[[{"header":{"parameterUnit":"m.s-1","parameterCategory":1,"la1":30.6,"la2":28.766,"lo1":-90.7593,"lo2":-88.6598,"dy":0.0162,"dx":0.0183,"nx":116,"ny":114,"refTime":"2024-05-31T06:00:00:Z","depth":0,"parameterNumber":2,"parameterNumberName":"U-component_of_WINDS"},"data":[0.0,0.0,0.0,0.0,0.0,0.0,0.0,0.0,0.0,0.0,0.0,0.0,0.0,0.0,0.0,0.0,0.0,0.0,0.0,0.0,0.0,0.0,0.0,0.0,0.0,0.0,0.0,0.0,0.0,0.0,0.0,0.0,0.0,0.0,0.0,0.0,0.0,0.0,0.0,0.0,0.0,0.0,0.0,0.0,0.0,0.0,0.0,0.0,0.0,0.0,0.0,0.0,0.0,0.0,0.0,0.0,0.0,0.0,0.0,0.0,0.0,0.0,0.0,0.0,0.0,0.0,0.0,0.0,0.0,0.0,0.0,0.0,0.0,0.0,0.0,0.0,0.0,0.0,0.0,0.0,0.0,0.0,0.0,0.0,0.0,0.0,0.0,0.0,0.0,0.0,0.0,0.0,0.0,0.0,0.0,0.0,0.0,0.0,0.0,0.0,0.0,0.0,0.0,0.0,0.0,0.0,0.0,0.0,0.0,0.0,0.0,0.0,0.0,0.0,0.0,0.0,0.0,0.0,0.0,0.0,0.0,0.0,0.0,0.0,0.0,0.0,0.0,0.0,0.0,0.0,0.0,0.0,0.0,0.0,0.0,0.0,0.0,0.0,0.0,0.0,0.0,0.0,0.0,0.0,0.0,0.0,0.0,0.0,0.0,0.0,0.0,0.0,0.0,0.0,0.0,0.0,0.0,0.0,0.0,0.0,0.0,0.0,0.0,0.0,0.0,0.0,0.0,0.0,0.0,0.0,0.0,0.0,0.0,0.0,0.0,0.0,0.0,0.0,0.0,0.0,0.0,0.0,0.0,0.0,0.0,0.0,0.0,0.0,0.0,0.0,0.0,0.0,0.0,0.0,0.0,0.0,0.0,0.0,0.0,0.0,0.0,0.0,0.0,0.0,0.0,0.0,0.0,0.0,0.0,0.0,0.0,0.0,0.0,0.0,0.0,0.0,0.0,0.0,0.0,0.0,0.0,0.0,0.0,0.0,0.0,0.0,0.0,0.0,0.0,0.0,0.0,0.0,0.0,0.0,0.0,0.0,0.0,0.0,0.0,0.0,0.0,0.0,0.0,0.0,0.0,0.0,0.0,0.0,0.0,0.0,0.0,0.0,0.0,0.0,0.0,0.0,0.0,0.0,0.0,0.0,0.0,0.0,0.0,0.0,0.0,0.0,0.0,0.0,0.0,0.0,0.0,0.0,0.0,0.0,0.0,0.0,0.0,0.0,0.0,0.0,0.0,0.0,0.0,0.0,0.0,0.0,0.0,0.0,0.0,0.0,0.0,0.0,0.0,0.0,0.0,0.0,0.0,0.0,0.0,0.0,0.0,0.0,0.0,0.0,0.0,0.0,0.0,0.0,0.0,0.0,0.0,0.0,0.0,0.0,0.0,0.0,0.0,0.0,0.0,0.0,0.0,0.0,0.0,0.0,0.0,0.0,0.0,0.0,0.0,0.0,0.0,0.0,0.0,0.0,0.0,0.0,0.0,0.0,0.0,0.0,0.0,0.0,0.0,0.0,0.0,0.0,0.0,0.0,0.0,0.0,0.0,0.0,0.0,0.0,0.0,0.0,0.0,0.0,0.0,0.0,0.0,0.0,0.0,0.0,0.0,0.0,0.0,0.0,0.0,0.0,0.0,0.0,0.0,0.0,0.0,0.0,0.0,0.0,0.0,0.0,0.0,0.0,0.0,0.0,0.0,0.0,0.0,0.0,0.0,0.0,0.0,0.0,0.0,0.0,0.0,0.0,0.0,0.0,0.0,0.0,0.0,0.0,0.0,0.0,0.0,0.0,0.0,0.0,0.0,0.0,0.0,0.0,0.0,0.0,0.0,0.0,0.0,0.0,0.0,0.0,0.0,0.0,0.0,0.0,0.0,0.0,0.0,0.0,0.0,0.0,0.0,0.0,0.0,0.0,0.0,0.0,0.0,0.0,0.0,0.0,0.0,0.0,0.0,0.0,0.0,0.0,0.0,0.0,0.0,0.0,0.0,0.0,0.0,0.0,0.0,0.0,0.0,0.0,0.0,0.0,0.0,0.0,0.0,0.0,0.0,0.0,0.0,0.0,0.0,0.0,0.0,0.0,0.0,0.0,0.0,0.0,0.0,0.0,0.0,0.0,0.0,0.0,0.0,0.0,0.0,0.0,0.0,0.0,0.0,0.0,0.0,0.0,0.0,0.0,0.0,0.0,0.0,0.0,0.0,0.0,0.0,0.0,0.0,0.0,0.0,0.0,0.0,0.0,0.0,0.0,0.0,0.0,0.0,0.0,0.0,0.0,0.0,0.0,0.0,0.0,0.0,0.0,0.0,0.0,0.0,0.0,0.0,0.0,0.0,0.0,0.0,0.0,0.0,0.0,0.0,0.0,0.0,0.0,0.0,0.0,0.0,0.0,0.0,0.0,0.0,0.0,0.0,0.0,0.0,0.0,0.0,0.0,0.0,0.0,0.0,0.0,0.0,0.0,0.0,0.0,0.0,0.0,0.0,0.0,0.0,0.0,0.0,0.0,0.0,0.0,0.0,0.0,0.0,0.0,0.0,0.0,0.0,0.0,0.0,0.0,0.0,0.0,0.0,0.0,0.0,0.0,0.0,0.0,0.0,0.0,0.0,0.0,0.0,0.0,0.0,0.0,0.0,0.0,0.0,0.0,0.0,0.0,0.0,0.0,0.0,0.0,0.0,0.0,0.0,0.0,0.0,0.0,0.0,0.0,0.0,0.0,0.0,0.0,0.0,0.0,0.0,0.0,0.0,0.0,0.0,0.0,0.0,0.0,0.0,0.0,0.0,0.0,0.0,0.0,0.0,0.0,0.0,0.0,0.0,0.0,0.0,0.0,0.0,0.0,0.0,0.0,0.0,0.0,0.0,0.0,0.0,0.0,0.0,0.0,0.0,0.0,0.0,0.0,0.0,0.0,0.0,0.0,0.0,0.0,0.0,0.0,0.0,0.0,0.0,0.0,0.0,0.0,0.0,0.0,0.0,0.0,0.0,0.0,0.0,0.0,0.0,0.0,0.0,0.0,0.0,0.0,0.0,0.0,0.0,0.0,0.0,0.0,0.0,0.0,0.0,0.0,0.0,0.0,0.0,0.0,0.0,0.0,0.0,0.0,0.0,0.0,0.0,0.0,0.0,0.0,0.0,0.0,0.0,0.0,0.0,0.0,0.0,0.0,0.0,0.0,0.0,0.0,0.0,0.0,0.0,0.0,0.0,0.0,0.0,0.0,0.0,0.0,0.0,0.0,0.0,0.0,0.0,0.0,0.0,0.0,0.0,0.0,0.0,0.0,0.0,0.0,0.0,0.0,0.0,0.0,0.0,0.0,0.0,0.0,0.0,0.0,0.0,0.0,0.0,0.0,0.0,0.0,0.0,0.0,0.0,0.0,0.0,0.0,0.0,0.0,0.0,0.0,0.0,0.0,0.0,0.0,0.0,0.0,0.0,0.0,0.0,0.0,0.0,0.0,0.0,0.0,0.0,0.0,0.0,0.0,0.0,0.0,0.0,0.0,0.0,0.0,0.0,0.0,0.0,0.0,0.0,0.0,0.0,0.0,0.0,0.0,0.0,0.0,0.0,0.0,0.0,0.0,0.0,0.0,0.0,0.0,0.0,0.0,0.0,0.0,0.0,0.0,0.0,0.0,0.0,0.0,0.0,0.0,0.0,0.0,0.0,0.0,0.0,0.0,0.0,0.0,0.0,0.0,0.0,0.0,0.0,0.0,0.0,0.0,0.0,0.0,0.0,0.0,0.0,0.0,0.0,0.0,0.0,0.0,0.0,0.0,0.0,0.0,0.0,0.0,0.0,0.0,0.0,0.0,0.0,0.0,0.0,0.0,0.0,0.0,0.0,0.0,0.0,0.0,0.0,0.0,0.0,0.0,0.0,0.0,0.0,0.0,0.0,0.0,0.0,0.0,0.0,0.0,0.0,0.0,0.0,0.0,0.0,0.0,0.0,0.0,0.0,0.0,0.0,0.0,0.0,0.0,0.0,0.0,0.0,0.0,0.0,0.0,0.0,0.0,0.0,0.0,0.0,0.0,0.0,0.0,0.0,0.0,0.0,0.0,0.0,0.0,0.0,0.0,0.0,0.0,0.0,0.0,0.0,0.0,0.0,0.0,0.0,0.0,0.0,0.0,0.0,0.0,0.0,0.0,0.0,0.0,0.0,0.0,0.0,0.0,0.0,0.0,0.0,0.0,0.0,0.0,0.0,0.0,0.0,0.0,0.0,0.0,0.0,0.0,0.0,0.0,0.0,0.0,0.0,0.0,0.0,0.0,0.0,0.0,0.0,0.0,0.0,0.0,0.0,0.0,0.0,0.0,0.0,0.0,0.0,0.0,0.0,0.0,0.0,0.0,0.0,0.0,0.0,0.0,0.0,0.0,0.0,0.0,0.0,0.0,0.0,0.0,0.0,0.0,0.0,0.0,0.0,0.0,0.0,0.0,0.0,0.0,0.0,0.0,0.0,0.0,0.0,0.0,0.0,0.0,0.0,0.0,0.0,0.0,0.0,0.0,0.0,0.0,0.0,0.0,0.0,0.0,0.0,0.0,0.0,0.0,0.0,0.0,0.0,0.0,0.0,0.0,0.0,0.0,0.0,0.0,0.0,0.0,0.0,0.0,0.0,0.0,0.0,0.0,0.0,0.0,0.0,0.0,0.0,0.0,0.0,0.0,0.0,0.0,0.0,0.0,0.0,0.0,0.0,0.0,0.0,0.0,0.0,0.0,0.0,0.0,0.0,0.0,0.0,0.0,0.0,0.0,0.0,0.0,0.0,0.0,0.0,0.0,0.0,0.0,0.0,0.0,0.0,0.0,0.0,0.0,0.0,0.0,0.0,0.0,0.0,0.0,0.0,0.0,0.0,0.0,0.0,0.0,0.0,0.0,0.0,0.0,0.0,0.0,0.0,0.0,0.0,0.0,0.0,0.0,0.0,0.0,0.0,0.0,0.0,0.0,0.0,0.0,0.0,0.0,0.0,0.0,0.0,0.0,0.0,0.0,0.0,0.0,0.0,0.0,0.0,0.0,0.0,0.0,0.0,0.0,0.0,0.0,0.0,0.0,0.0,0.0,0.0,0.0,0.0,0.0,0.0,0.0,0.0,0.0,0.0,0.0,0.0,0.0,0.0,0.0,0.0,0.0,0.0,0.0,0.0,0.0,0.0,0.0,0.0,0.0,0.0,0.0,0.0,0.0,0.0,0.0,0.0,0.0,0.0,0.0,0.0,0.0,0.0,0.0,0.0,0.0,0.0,0.0,0.0,0.0,0.0,0.0,0.0,0.0,0.0,0.0,0.0,0.0,0.0,0.0,0.0,0.0,0.0,0.0,0.0,0.0,0.0,0.0,0.0,0.0,0.0,0.0,0.0,0.0,0.0,0.0,0.0,0.0,0.0,0.0,0.0,0.0,0.0,0.0,0.0,0.0,0.0,0.0,0.0,0.0,0.0,0.0,0.0,0.0,0.0,0.0,0.0,0.0,0.0,0.0,0.0,0.0,0.0,0.0,0.0,0.0,0.0,0.0,0.0,0.0,0.0,0.0,0.0,0.0,0.0,0.0,0.0,0.0,0.0,0.0,0.0,0.0,0.0,0.0,0.0,0.0,0.0,0.0,0.0,0.0,0.0,0.0,0.0,0.0,0.0,0.0,0.0,0.0,0.0,0.0,0.0,0.0,0.0,0.0,0.0,0.0,0.0,0.0,0.0,0.0,0.0,0.0,0.0,0.0,0.0,0.0,0.0,0.0,0.0,0.0,0.0,0.0,0.0,0.0,0.0,0.0,0.0,0.0,0.0,0.0,0.0,0.0,0.0,0.0,0.0,0.0,0.0,0.0,0.0,0.0,0.0,0.0,0.0,0.0,0.0,0.0,0.0,0.0,0.0,0.0,0.0,0.0,0.0,0.0,0.0,0.0,0.0,0.0,0.0,0.0,0.0,0.0,0.0,0.0,0.0,0.0,0.0,0.0,0.0,0.0,0.0,0.0,0.0,0.0,0.0,0.0,0.0,0.0,0.0,0.0,0.0,0.0,0.0,0.0,0.0,0.0,0.0,0.0,0.0,0.0,0.0,0.0,0.0,0.0,0.0,0.0,0.0,0.0,-1.8449,-1.7385,0.0,0.0,0.0,0.0,0.0,0.0,0.0,0.0,0.0,0.0,0.0,0.0,0.0,0.0,0.0,0.0,0.0,0.0,0.0,0.0,0.0,0.0,0.0,-1.0462,-1.0749,-1.0818,-1.0829,-1.0832,-1.0876,0.0,0.0,0.0,0.0,0.0,-1.0293,-1.0703,-1.1328,-1.2129,-1.2578,-1.3457,-1.4727,-1.4238,-1.3555,-1.2734,0.0,0.0,0.0,0.0,0.0,0.0,0.0,0.0,0.0,0.0,0.0,0.0,0.0,0.0,0.0,0.0,0.0,0.0,0.0,0.0,0.0,0.0,0.0,0.0,0.0,0.0,0.0,0.0,0.0,0.0,0.0,0.0,0.0,0.0,0.0,0.0,0.0,0.0,0.0,0.0,0.0,0.0,0.0,0.0,0.0,0.0,0.0,0.0,0.0,0.0,0.0,0.0,0.0,0.0,0.0,0.0,0.0,0.0,0.0,0.0,0.0,0.0,0.0,0.0,0.0,0.0,0.0,0.0,0.0,0.0,-2.2008,-2.0643,0.0,0.0,0.0,0.0,0.0,0.0,0.0,0.0,0.0,0.0,0.0,0.0,0.0,0.0,0.0,0.0,0.0,0.0,0.0,0.0,0.0,-1.0152,-1.0308,-1.0964,-1.1493,-1.1715,-1.1731,-1.1692,-1.1601,-1.0937,0.0,0.0,0.0,-1.0527,-1.0527,-1.1523,-1.2793,-1.4336,-1.4941,-1.6055,-1.7637,-1.8496,-1.8144,-1.6699,-1.5371,0.0,0.0,0.0,0.0,0.0,0.0,0.0,0.0,0.0,0.0,0.0,0.0,0.0,0.0,0.0,0.0,0.0,0.0,0.0,0.0,0.0,0.0,0.0,0.0,0.0,0.0,0.0,0.0,0.0,0.0,0.0,0.0,0.0,0.0,0.0,0.0,0.0,0.0,0.0,0.0,0.0,0.0,0.0,0.0,0.0,0.0,0.0,0.0,0.0,0.0,0.0,0.0,0.0,0.0,0.0,0.0,0.0,0.0,0.0,0.0,0.0,0.0,0.0,-2.65,-2.7231,-2.8332,-2.8486,-2.9011,-2.9569,-2.5933,-2.4509,-2.4687,-2.3663,0.0,0.0,0.0,0.0,0.0,0.0,0.0,0.0,0.0,0.0,0.0,0.0,0.0,0.0,0.0,0.0,0.0,0.0,0.0,-1.0385,-1.1156,-1.1331,-1.1725,-1.2567,-1.2629,-1.2339,-1.164,-1.1484,0.0,-1.0332,-1.1016,-1.1426,-1.1426,-1.2969,-1.4258,-1.5234,-1.8262,-2.0254,-2.123,-2.2109,-2.2383,-2.2031,-1.8887,-1.748,-1.7363,0.0,0.0,0.0,0.0,0.0,0.0,0.0,0.0,0.0,0.0,0.0,0.0,0.0,0.0,0.0,0.0,0.0,0.0,0.0,0.0,0.0,0.0,0.0,0.0,0.0,0.0,0.0,0.0,0.0,0.0,0.0,0.0,0.0,0.0,0.0,0.0,0.0,0.0,0.0,0.0,0.0,-1.6467,-1.8136,0.0,0.0,0.0,0.0,0.0,0.0,0.0,0.0,0.0,0.0,0.0,0.0,0.0,-2.5865,-2.8088,-2.8967,-2.9519,-2.975,-3.1198,-3.1256,-3.0096,-3.0852,-3.1641,-3.2333,-3.1064,0.0,-2.728,-2.5635,0.0,0.0,0.0,0.0,0.0,0.0,0.0,0.0,0.0,0.0,0.0,0.0,0.0,0.0,0.0,0.0,0.0,0.0,0.0,0.0,0.0,-1.3005,-1.3974,-1.4901,-1.5409,-1.5124,-1.3828,-1.373,-1.3145,-1.1816,-1.2129,-1.2539,-1.3008,-1.4687,-1.6719,-1.9043,-2.2012,-2.3418,-2.332,-2.4199,-2.4609,-2.4531,-2.3008,-2.1523,-2.0059,-1.7812,0.0,0.0,0.0,0.0,0.0,0.0,0.0,0.0,0.0,0.0,0.0,0.0,0.0,0.0,0.0,0.0,0.0,0.0,0.0,0.0,0.0,0.0,0.0,0.0,0.0,0.0,0.0,0.0,0.0,0.0,0.0,0.0,0.0,0.0,0.0,0.0,0.0,0.0,0.0,-1.6057,-1.8526,-2.0219,-2.0412,-2.0258,0.0,0.0,0.0,0.0,0.0,0.0,0.0,0.0,0.0,-2.6876,-2.864,-3.0102,-3.1218,-3.2596,-3.3481,-3.3942,-3.4673,-3.4911,-3.468,-3.5064,-3.543,-3.5757,-3.5391,-3.4334,-3.2641,-2.9981,-2.789,-2.6222,0.0,0.0,0.0,0.0,-2.4793,-2.5236,0.0,0.0,0.0,0.0,0.0,0.0,0.0,0.0,0.0,0.0,0.0,0.0,-1.322,-1.4724,-1.6098,-1.7237,-1.79,-1.7708,-1.6484,-1.5762,-1.4844,-1.3594,-1.332,-1.3594,-1.4414,-1.6797,-1.9512,-2.2539,-2.4883,-2.5703,-2.5078,-2.5957,-2.6367,-2.6367,-2.6367,-2.5059,-2.2715,-2.0312,-1.8809,-1.7852,0.0,0.0,0.0,0.0,0.0,0.0,0.0,0.0,0.0,0.0,0.0,0.0,0.0,0.0,0.0,0.0,0.0,0.0,0.0,0.0,0.0,0.0,0.0,0.0,0.0,0.0,0.0,0.0,0.0,0.0,0.0,0.0,0.0,0.0,0.0,0.0,0.0,-1.8238,-2.0527,-2.1985,-2.2543,-2.2716,0.0,0.0,0.0,0.0,0.0,0.0,-2.6846,-2.8352,-2.966,-3.0698,-3.2776,-3.3987,-3.4199,-3.5481,-3.6442,-3.7019,-3.7019,-3.7373,-3.8007,-3.8007,-3.8123,-3.8315,-3.8104,-3.7757,-3.7123,-3.3968,-3.1775,-3.03,-2.9275,-2.8486,-2.7967,-2.8371,-2.8679,-2.9044,0.0,0.0,0.0,0.0,0.0,0.0,0.0,0.0,0.0,0.0,0.0,-1.2436,-1.4898,-1.5994,-1.7216,-1.8932,-1.9109,-1.9134,-1.9102,-1.6777,-1.5352,-1.5273,-1.4473,-1.4453,-1.5312,-1.9473,-2.25,-2.4277,-2.6055,-2.6914,-2.6894,-2.7754,-2.8164,-2.8164,-2.8164,-2.7187,-2.5391,-2.3594,-2.2383,-2.1406,-1.8848,0.0,0.0,0.0,0.0,0.0,0.0,0.0,0.0,0.0,0.0,0.0,0.0,0.0,0.0,0.0,0.0,0.0,0.0,0.0,0.0,0.0,0.0,0.0,0.0,0.0,0.0,0.0,0.0,0.0,0.0,0.0,0.0,0.0,0.0,0.0,0.0,0.0,0.0,-2.386,-2.537,0.0,0.0,0.0,0.0,-2.7448,-2.7626,-2.8736,-3.1237,-3.2199,-3.343,-3.5115,-3.6038,-3.6911,-3.7738,-3.7834,-3.7892,-3.793,-3.793,-3.7969,-3.8007,-3.8007,-3.845,-3.9188,-3.8354,-3.843,-3.8977,-3.6392,-3.4776,-3.3782,-3.2141,-3.1487,-3.1352,-3.0558,-3.0808,-3.1525,0.0,0.0,0.0,0.0,0.0,-1.0094,-1.0094,-1.0094,-1.0404,-1.1293,-1.2403,-1.4105,-1.6682,-1.8252,-1.9812,-2.1561,-2.2225,-2.2109,-2.1035,-1.957,-1.875,-1.875,-1.7363,-1.7793,-2.0293,-2.2988,-2.4902,-2.6074,-2.7266,-2.7832,-2.7832,-2.8144,-2.8301,-2.8301,-2.8301,-2.7949,-2.7266,-2.5508,-2.3984,-2.2617,-2.1113,-1.9121,0.0,0.0,0.0,0.0,0.0,0.0,0.0,0.0,0.0,0.0,0.0,0.0,0.0,0.0,0.0,0.0,0.0,0.0,0.0,0.0,0.0,0.0,0.0,0.0,0.0,0.0,0.0,0.0,0.0,0.0,0.0,0.0,0.0,0.0,0.0,0.0,0.0,-2.7087,-2.8332,0.0,-2.8615,-2.8577,-2.9288,-3.0987,-3.1121,-3.2237,-3.4769,-3.5192,-3.5892,-3.7065,-3.793,-3.8777,-3.9611,-4.0162,-4.0739,-4.1277,-4.1277,-4.1277,-4.1277,-4.1277,-4.145,-4.17,-4.0816,-4.0623,-4.0796,-3.9315,-3.7892,-3.6526,-3.5372,-3.4923,-3.4885,-3.4577,-3.4654,-3.5,0.0,0.0,0.0,0.0,-1.0094,-1.0094,-1.0094,-1.0346,-1.0942,-1.2096,-1.3778,-1.5857,-1.8451,-2.0317,-2.1951,-2.3418,-2.4062,-2.3926,-2.2812,-2.168,-2.0918,-2.0605,-1.9492,-2.0332,-2.3477,-2.4961,-2.6269,-2.7441,-2.8301,-2.873,-2.875,-2.9043,-2.918,-2.918,-2.918,-2.9004,-2.8652,-2.7519,-2.6035,-2.4414,-2.3535,-2.1797,-1.9609,0.0,0.0,0.0,0.0,0.0,0.0,0.0,0.0,0.0,0.0,0.0,0.0,0.0,0.0,0.0,0.0,0.0,0.0,0.0,0.0,0.0,0.0,0.0,0.0,0.0,0.0,0.0,0.0,0.0,0.0,0.0,0.0,0.0,0.0,-2.4981,-2.7313,-2.9294,-3.0814,-3.1558,-3.1269,-3.1788,-3.2692,-3.4083,-3.418,-3.518,-3.7469,-3.7834,-3.8373,-3.9258,-4.0123,-4.0835,-4.1381,-4.195,-4.2527,-4.3104,-4.3104,-4.3104,-4.3104,-4.3104,-4.3104,-4.3066,-4.2489,-4.2239,-4.22,-4.1623,-4.0546,-3.9181,-3.8027,-3.7584,-3.7546,-3.7257,-3.7142,-3.7219,0.0,0.0,0.0,-1.0076,-1.0094,-1.0094,-1.0094,-1.0848,-1.2002,-1.3687,-1.5493,-1.7612,-2.0154,-2.204,-2.3496,-2.4355,-2.4414,-2.4414,-2.4434,-2.2812,-2.1484,-2.0684,-2.0742,-2.1953,-2.4434,-2.5352,-2.6641,-2.834,-2.9219,-2.9648,-2.9668,-3.0508,-3.0898,-3.0898,-3.0937,-3.0469,-2.9648,-2.9668,-2.8672,-2.7012,-2.6133,-2.4746,-2.3008,0.0,0.0,0.0,0.0,0.0,0.0,0.0,0.0,0.0,0.0,0.0,0.0,0.0,0.0,0.0,0.0,0.0,0.0,0.0,0.0,0.0,0.0,0.0,0.0,0.0,0.0,0.0,0.0,0.0,0.0,0.0,0.0,0.0,-2.5423,-2.764,-2.9583,-3.0462,-3.2776,-3.3994,-3.3141,-3.4596,-3.5923,-3.675,-3.6827,-3.7584,-3.9342,-4.0169,-4.0969,-4.1808,-4.2662,-4.3104,-4.3143,-4.3143,-4.3143,-4.3181,-4.3181,-4.3181,-4.3181,-4.3181,-4.3181,-4.3181,-4.3143,-4.3143,-4.3143,-4.3104,-4.2604,-4.1673,-4.0027,-3.9361,-3.9246,-3.8392,-3.8084,-3.8065,0.0,0.0,-0.9941,-1.0076,-1.0094,-1.0094,-1.0094,-1.0848,-1.2002,-1.3687,-1.599,-1.8465,-2.1052,-2.2902,-2.4348,-2.5254,-2.4766,-2.4668,-2.5293,-2.2598,-2.1133,-2.1523,-2.3926,-2.5566,-2.6269,-2.7754,-2.8769,-2.9238,-3.0117,-3.0547,-3.0547,-3.0781,-3.0898,-3.0937,-3.1562,-3.1367,-3.0586,-3.1211,-3.0488,-2.8809,-2.7949,-2.6543,-2.4863,0.0,0.0,0.0,0.0,0.0,0.0,0.0,0.0,0.0,0.0,0.0,0.0,0.0,0.0,0.0,0.0,0.0,0.0,0.0,0.0,0.0,0.0,0.0,0.0,0.0,0.0,0.0,0.0,0.0,0.0,0.0,-2.6405,-2.8063,-2.8063,-3.08,-3.3122,-3.3981,-3.5795,-3.6853,-3.6622,-3.7026,-3.7911,-3.9354,-3.9457,-4.0219,-4.195,-4.2258,-4.2508,-4.2739,-4.2989,-4.3374,-4.3951,-4.397,-4.4278,-4.4921,-4.4921,-4.4921,-4.4921,-4.4921,-4.4921,-4.4883,-4.4239,-4.397,-4.3912,-4.3335,-4.297,-4.2624,-4.1546,-4.0719,-4.015,-3.99,-3.9804,-3.9727,0.0,-0.9893,-0.9941,-1.0076,-1.0094,-1.0094,-1.0094,-1.1156,-1.2543,-1.4228,-1.6728,-1.9342,-2.1963,-2.3167,-2.4168,-2.5078,-2.4687,-2.4316,-2.4121,-2.2246,-2.2012,-2.3945,-2.5586,-2.6973,-2.8066,-2.9082,-2.9785,-3.0137,-3.0644,-3.1094,-3.1445,-3.1445,-3.1621,-3.1973,-3.248,-3.2422,-3.1973,-3.248,-3.1914,-3.0644,-3.0137,-2.8672,-2.6738,-2.623,-2.5195,-2.3926,-2.3047,-2.2266,-2.1523,-2.0664,0.0,0.0,0.0,0.0,0.0,0.0,0.0,0.0,0.0,0.0,0.0,0.0,0.0,0.0,0.0,0.0,0.0,0.0,0.0,0.0,0.0,0.0,0.0,0.0,-2.9333,-3.1358,-3.1737,-3.3487,-3.5199,-3.6404,-3.7738,-3.8546,-3.8546,-3.9181,-4.0008,-4.0969,-4.1373,-4.2027,-4.3047,-4.3412,-4.3605,-4.3605,-4.3951,-4.4374,-4.4836,-4.4836,-4.5094,-4.5594,-4.5594,-4.5594,-4.5594,-4.5594,-4.5594,-4.5575,-4.5056,-4.4836,-4.4797,-4.4335,-4.3932,-4.3528,0.0,0.0,0.0,0.0,-4.0496,-4.0439,0.0,-0.9893,-0.9941,-1.0076,-1.0094,-1.0094,-1.0094,-1.1581,-1.3277,-1.4846,-1.7402,-2.0017,-2.2446,-2.293,-2.3445,-2.4316,-2.4316,-2.3613,-2.2129,-2.2227,-2.3672,-2.6719,-2.6309,-2.7129,-2.9551,-2.9707,-3.0137,-3.0898,-3.0996,-3.1445,-3.2207,-3.2285,-3.2715,-3.3398,-3.3496,-3.3496,-3.3418,-3.3496,-3.3086,-3.2324,-3.2246,-3.0684,-2.8457,-2.8457,-2.791,-2.7051,-2.6269,-2.4941,-2.3437,-2.2715,0.0,0.0,0.0,0.0,0.0,0.0,0.0,0.0,0.0,0.0,0.0,0.0,0.0,0.0,0.0,0.0,0.0,0.0,0.0,0.0,0.0,0.0,0.0,0.0,-3.2301,-3.4718,-3.5769,-3.5923,-3.6481,-3.7969,-3.8988,-3.9592,-3.9592,-4.1027,-4.1981,-4.2077,-4.2797,-4.3278,-4.3374,-4.4066,0.0,0.0,0.0,-4.5594,-4.5594,-4.5594,-4.5594,-4.5594,-4.5594,-4.5594,-4.5594,-4.5594,-4.5594,-4.5594,-4.5594,-4.5594,-4.5594,-4.5594,-4.5152,-4.4355,-4.3451,-4.2624,-4.1854,-4.1085,-4.0727,-4.065,0.0,-0.9893,-0.9941,-1.0076,-1.0094,-1.0094,-1.0094,-1.1581,-1.3043,-1.4017,-1.7,-1.949,-2.0766,-2.2179,-2.3382,-2.4316,-2.3769,-2.3203,-2.2891,-2.418,-2.5254,-2.5918,-2.7148,-2.8359,-2.957,-3.0293,-3.0723,-3.0898,-3.1601,-3.2031,-3.2207,-3.2851,-3.3242,-3.3437,-3.4121,-3.4062,-3.3457,-3.4141,-3.3945,-3.3105,-3.2461,-3.1055,-2.9355,-2.9355,-2.8809,-2.8027,-2.7851,-2.7129,-2.6211,-2.6074,-2.4961,-2.3516,-2.2637,-2.1797,0.0,0.0,0.0,0.0,0.0,0.0,0.0,0.0,0.0,0.0,0.0,0.0,0.0,0.0,0.0,0.0,0.0,0.0,0.0,-3.2686,-3.4353,-3.6026,-3.8257,-3.8565,-3.8681,-3.9015,-4.0392,-4.1316,-4.1316,-4.2258,-4.3124,-4.3778,-4.397,-4.4374,-4.5075,-4.5267,-4.5344,-4.5344,-4.5518,-4.5594,-4.5594,-4.5594,-4.5594,-4.5594,-4.5594,0.0,-4.5594,-4.5594,-4.5594,-4.5594,-4.5594,-4.5594,-4.5594,-4.5594,-4.5498,-4.521,-4.3682,-4.3008,-4.2835,-4.2662,-4.2143,-4.1546,-0.9831,-0.9885,-0.993,-1.002,-1.0078,-1.0094,-1.0094,-1.1214,-1.2483,-1.3745,-1.5766,-1.7776,-1.9567,-2.0171,-2.0812,-2.1715,-2.1835,-2.2383,-2.3672,-2.4961,-2.6094,-2.6953,-2.8242,-2.9355,-3.0234,-3.0684,-3.1113,-3.1543,-3.1992,-3.2637,-3.3457,-3.3867,-3.4277,-3.4726,-3.5156,-3.5117,-3.4726,-3.5176,-3.4844,-3.4023,-3.3613,-3.2422,-3.0859,-3.043,-2.998,-2.9531,-2.9101,-2.8398,-2.7578,-2.7148,-2.6133,-2.4961,-2.4531,-2.3828,-2.2812,0.0,0.0,0.0,0.0,0.0,0.0,0.0,0.0,0.0,0.0,0.0,0.0,0.0,0.0,-2.6897,0.0,0.0,-3.2493,-3.5045,-3.6546,-3.7853,-3.913,-3.965,-3.99,-3.99,-4.1027,-4.1788,-4.1788,-4.2951,-4.3874,-4.4259,-4.4701,-4.5152,-4.5575,-4.5594,-4.5594,-4.5594,-4.5594,-4.5594,-4.5594,-4.5594,-4.5594,-4.5594,-4.5594,-4.5594,-4.5594,-4.5594,-4.5594,-4.5594,-4.5594,-4.5594,-4.5594,-4.5594,-4.5594,-4.5518,-4.469,-4.4085,-4.3643,-4.3258,-4.2816,-4.245,-0.9775,-0.985,-0.9922,-0.9982,-1.0061,-1.0094,-1.0094,-1.0848,-1.1945,-1.3478,-1.4555,-1.6066,-1.8346,-1.8164,-1.8303,-1.936,-2.0467,-2.2031,-2.4258,-2.5215,-2.6484,-2.8223,-2.8965,-2.9824,-3.0879,-3.0898,-3.1328,-3.2207,-3.2363,-3.3203,-3.4707,-3.4863,-3.5332,-3.5996,-3.5996,-3.5996,-3.5996,-3.5996,-3.5586,-3.4941,-3.4766,-3.3789,-3.2344,-3.1484,-3.1055,-3.0781,-2.9902,-2.9043,-2.8164,-2.7285,-2.6426,-2.5703,-2.5703,-2.5215,-2.4355,-2.2832,-2.2383,0.0,0.0,0.0,0.0,0.0,0.0,0.0,0.0,0.0,-2.5217,-2.8252,-2.9011,-3.0006,-3.2872,-3.4103,-3.5238,-3.693,-3.8373,-3.9361,-3.9515,-4.0092,-4.0496,-4.0496,-4.1412,-4.2038,-4.2038,-4.3566,-4.4547,-4.4547,-4.521,-4.5594,-4.5594,-4.5594,-4.5594,-4.5594,-4.5594,-4.5594,-4.5594,-4.5594,-4.5594,-4.5594,-4.5594,-4.5594,-4.5594,-4.5594,-4.5594,-4.5594,-4.5594,-4.5594,-4.5594,-4.5594,-4.5594,-4.5594,-4.5594,-4.5171,-4.447,-4.3816,-4.347,-4.3335,0.0,-0.9811,-0.9922,-0.9982,-1.0061,-1.0094,-1.0094,-1.0848,-1.1755,-1.2719,-1.4214,-1.5617,-1.6669,-1.7394,-1.8493,-2.0219,-2.1912,-2.332,-2.4336,-2.5215,-2.6484,-2.8223,-2.8398,-2.9219,-3.0859,-3.0898,-3.1328,-3.2207,-3.293,-3.3769,-3.4726,-3.5488,-3.5918,-3.5996,-3.5996,-3.5996,-3.5996,-3.5996,-3.5937,-3.5781,-3.5019,-3.4121,-3.3184,-3.2363,-3.1562,-3.0781,-2.9902,-2.9043,-2.8164,-2.7285,-2.6426,-2.5703,-2.5703,-2.5625,-2.5371,-2.4394,0.0,-2.3926,-2.3008,-2.3312,-2.4025,-2.4673,-2.5484,-2.6936,0.0,0.0,-3.0088,-3.1968,-3.2949,-3.3853,-3.5,-3.5865,-3.6988,-3.8719,-3.9169,-3.9554,-4.0265,-4.0439,-4.0496,-4.0496,-4.195,-4.2951,-4.2951,-4.447,-4.546,-4.546,-4.5537,-4.5594,-4.5594,-4.5594,-4.5594,-4.5594,-4.5594,-4.5594,-4.5594,-4.5594,-4.5594,-4.5594,-4.5594,-4.5594,-4.5594,-4.5594,-4.5594,-4.5594,-4.5594,-4.5594,-4.5594,-4.5594,-4.5594,-4.5594,-4.5594,-4.5537,-4.5441,-4.5344,-4.4816,-4.4162,0.0,-0.9805,-0.9904,-0.9941,-1.0034,-1.0094,-1.0094,-1.0404,-1.0964,-1.1831,-1.3005,-1.4057,-1.4903,-1.5809,-1.7062,-1.8831,-2.0618,-2.2205,-2.3555,-2.541,-2.7012,-2.8242,-2.8789,-2.9648,-3.0879,-3.0898,-3.1328,-3.2207,-3.3008,-3.3848,-3.4726,-3.5586,-3.5996,-3.5996,-3.5996,-3.5996,-3.5996,-3.5996,-3.5996,-3.5918,-3.5059,-3.418,-3.3262,-3.1934,-3.0898,-3.0098,-2.9726,-2.8711,0.0,-2.7129,-2.6426,-2.5703,-2.5703,-2.5703,-2.5527,-2.4668,-2.5117,0.0,-2.6069,-2.6642,-2.7271,0.0,-2.8618,-2.9979,-3.1377,-3.1775,-3.2352,-3.4058,-3.5084,-3.6084,-3.7469,-3.7988,-3.8604,0.0,-4.0412,-4.07,-4.0516,-4.0931,-4.1066,-4.0554,-4.1585,-4.2547,-4.3047,-4.4162,-4.5056,-4.5556,-4.5594,-4.5594,-4.5594,-4.5594,-4.5594,-4.5594,-4.5594,-4.5594,-4.5594,-4.5594,-4.5594,-4.5594,-4.5594,-4.5594,-4.5594,-4.5594,-4.5594,-4.5594,-4.5594,-4.5594,-4.5594,-4.5594,-4.5594,-4.5594,-4.5594,-4.5594,-4.5594,-4.5594,-4.5364,-4.5056,0.0,-0.9788,-0.9869,-0.989,-1.0001,-1.008,-1.0092,-1.0094,-1.0404,-1.1293,-1.2161,-1.3101,-1.4132,-1.4874,-1.5901,-1.7386,-1.9122,-2.0872,-2.2636,-2.4961,-2.6777,-2.7891,-2.8789,-2.9648,-3.0527,-3.0781,-3.1328,-3.2207,-3.2773,-3.3516,-3.4355,-3.5234,-3.5644,-3.5644,-3.5898,-3.5996,-3.5976,-3.5742,-3.5644,-3.5566,-3.4687,-3.3828,-3.291,-3.1445,-3.0215,-2.9219,-2.8965,-2.8066,-2.6934,-2.6445,-2.6016,-2.5664,-2.543,-2.5508,-2.5625,-2.5234,-2.6172,-2.748,-2.8052,-2.893,-2.9799,-3.0187,-3.1535,-3.2831,-3.3032,-3.3718,-3.4603,-3.5615,-3.6481,-3.7373,-3.8392,-3.8977,-3.9554,-4.0362,-4.1239,-4.1662,-4.1266,-4.1546,-4.1566,-4.0931,-4.12,-4.1873,-4.2989,-4.3835,-4.4662,-4.5537,-4.5594,-4.5594,-4.5594,-4.5594,-4.5594,-4.5594,-4.5594,-4.5594,-4.5594,-4.5594,-4.5594,-4.5594,-4.5594,-4.5594,-4.5594,-4.5594,-4.5594,-4.5594,-4.5594,-4.5594,-4.5594,-4.5594,-4.5594,-4.5594,-4.5594,-4.5594,-4.5594,-4.5594,-4.5594,-4.5594,0.0,0.0,-0.9825,-0.9881,-0.9965,-1.0018,-1.0088,-1.0094,-1.0404,-1.1293,-1.2161,-1.3335,-1.4981,-1.5241,-1.5636,-1.6465,-1.8203,-1.9988,-2.1727,-2.3495,-2.5254,-2.6953,-2.7871,-2.875,-2.9629,-3.0469,-3.1328,-3.2207,-3.2226,-3.2656,-3.3457,-3.4336,-3.4746,-3.4785,-3.5625,-3.5996,-3.5937,-3.5098,-3.4746,-3.4668,-3.3789,-3.2969,-3.2148,-3.123,-2.9824,-2.8223,-2.7383,-2.7031,-2.6738,-2.5059,-2.5019,-2.5547,-2.4707,-2.5019,0.0,-2.668,-2.7559,-2.8242,-2.8208,-2.9447,-3.112,-3.2602,-3.4241,-3.566,-3.6388,-3.7219,-3.7623,-3.6827,-3.7353,-3.7719,-3.6923,-3.8161,-3.9554,-4.0362,-4.1239,-4.2085,-4.2912,-4.2316,-4.1788,-4.175,-4.1046,-4.1208,0.0,-4.3835,-4.4662,-4.5537,-4.5594,-4.5594,-4.5594,-4.5594,-4.5594,-4.5594,-4.5594,-4.5594,-4.5594,-4.5594,-4.5594,-4.5594,-4.5594,-4.5594,-4.5594,-4.5594,-4.5594,-4.5594,-4.5594,-4.5594,-4.5594,-4.5594,-4.5594,-4.5594,-4.5594,-4.5594,-4.5594,-4.5594,-4.5594,-4.5594,0.0,0.0,0.0,-0.9831,-0.9933,-1.0001,-1.0022,-1.0074,-1.0404,-1.1293,-1.2615,0.0,0.0,0.0,0.0,0.0,-1.8113,-1.9656,-2.0865,-2.3116,-2.4918,-2.6094,-2.6973,-2.7851,-2.8711,-2.959,-3.0176,-3.0469,-3.1621,-3.2344,-3.2617,-3.3457,-3.3848,-3.3848,-3.4141,-3.4277,-3.4258,-3.3965,-3.418,-3.4531,-3.2539,-3.1934,-3.1973,-2.9941,-2.8086,-2.6543,0.0,-2.5762,-2.5195,-2.4609,-2.459,-2.4883,-2.5176,0.0,0.0,-2.7441,-2.8066,-2.8789,-3.1034,-3.2467,-3.37,-3.5281,-3.6512,-3.7359,-3.753,-3.7796,-3.7911,-3.7623,-3.7334,-3.7219,-3.7507,-3.8046,-3.8719,-3.9573,-4.1373,-4.2566,-4.2277,-4.2951,-4.3047,-4.1923,-4.2047,0.0,0.0,0.0,0.0,-4.5498,-4.5594,-4.5594,-4.5594,-4.5594,-4.5594,-4.5594,-4.5594,-4.5594,-4.5594,-4.5594,-4.5594,-4.5594,-4.5594,-4.5594,-4.5594,-4.5594,-4.5594,-4.5594,-4.5594,-4.5594,-4.5594,-4.5594,-4.5594,-4.5594,-4.5594,-4.5594,-4.5594,-4.5594,-4.5594,-4.5594,0.0,0.0,0.0,0.0,0.0,0.0,0.0,0.0,0.0,0.0,0.0,0.0,0.0,0.0,0.0,0.0,0.0,-1.8694,-1.992,-2.1862,-2.3655,-2.5173,-2.5779,-2.6483,-2.7344,-2.793,-2.8359,-2.8672,-2.9785,-3.0508,-3.082,-3.1641,-3.2031,-3.2051,-3.2363,-3.2519,-3.248,-3.2168,-3.2363,-3.2715,-3.0762,-3.0312,-3.0586,-2.8594,-2.6953,0.0,-2.498,-2.4238,-2.3555,-2.3848,-2.4141,-2.4492,-2.5059,-2.5879,-2.6855,-2.7969,-2.8965,-3.0293,-3.3105,-3.4469,-3.5561,-3.7498,-3.8357,-3.8699,-3.8537,-3.8498,-3.8246,-3.731,-3.6411,-3.5872,-3.6122,-3.618,-3.6757,-3.8546,-4.07,-4.2297,-4.2643,-4.3624,-4.3893,-4.2816,-4.2931,-4.3201,0.0,0.0,0.0,-4.5498,-4.5594,-4.5594,-4.5594,-4.5594,-4.5594,-4.5594,-4.5594,-4.5594,-4.5594,-4.5594,-4.5594,-4.5594,-4.5594,-4.5594,-4.5594,-4.5594,-4.5594,-4.5594,-4.5594,-4.5594,-4.5594,-4.5594,-4.5594,-4.5594,-4.5594,-4.5594,-4.5594,-4.5594,-4.5594,-4.5594,0.0,0.0,0.0,0.0,0.0,0.0,0.0,0.0,0.0,0.0,0.0,0.0,0.0,0.0,0.0,0.0,0.0,0.0,-1.8858,-1.9875,-2.1534,-2.4083,-2.4278,-2.4717,-2.5547,-2.5605,-2.6055,-2.6934,-2.6973,-2.7441,-2.832,-2.9141,-2.9531,-2.957,-3.0391,-3.0762,-3.0703,-2.9883,-2.9551,-2.9512,-2.8594,-2.8223,-2.8144,-2.7266,-2.6348,-2.5293,-2.3672,-2.2598,-2.2012,-2.2832,-2.3769,0.0,0.0,0.0,-2.8457,-2.8535,-3.0351,-3.2695,-3.4434,-3.5547,-3.6776,-3.9171,-3.9765,-3.9694,-3.9466,-3.9351,-3.8551,-3.5971,-3.468,-3.3763,0.0,0.0,-3.3994,-3.7334,-3.9392,-4.1439,-4.3893,-4.4316,-4.4355,0.0,0.0,0.0,0.0,0.0,0.0,-4.5537,-4.5594,-4.5594,-4.5594,-4.5594,-4.5594,-4.5594,-4.5594,-4.5594,-4.5594,-4.5594,-4.5594,-4.5594,-4.5594,-4.5594,-4.5594,-4.5594,-4.5594,-4.5594,-4.5594,-4.5594,-4.5594,-4.5594,-4.5594,-4.5594,-4.5594,-4.5594,-4.5594,-4.5594,-4.5594,-4.5594,0.0,0.0,0.0,0.0,0.0,0.0,0.0,0.0,0.0,0.0,0.0,0.0,0.0,0.0,0.0,0.0,0.0,0.0,-1.712,-1.9192,-2.0703,-2.1396,-2.2665,-2.3481,-2.376,-2.4405,-2.5152,-2.6035,-2.668,-2.7441,-2.8301,-2.8535,-2.8633,-2.8633,-2.8867,-2.8965,-2.8945,-2.873,-2.9004,-2.9473,-2.7949,-2.7324,-2.7246,-2.6367,-2.4707,-2.2891,-2.3105,-2.2637,0.0,0.0,0.0,0.0,0.0,-2.918,-3.0488,0.0,0.0,-3.457,-3.6953,-3.8242,-3.9198,-4.0363,-4.0662,-4.0469,-3.9715,-3.8531,-3.7042,-3.5081,-3.2997,-3.142,0.0,0.0,0.0,-3.579,-3.9142,0.0,-4.322,-4.447,0.0,-4.4374,0.0,-4.4786,-4.4335,-4.4902,0.0,-4.5575,-4.5594,-4.5594,-4.5594,-4.5594,-4.5594,-4.5594,-4.5594,-4.5594,-4.5594,-4.5594,-4.5594,-4.5594,-4.5594,-4.5594,-4.5594,-4.5594,-4.5594,-4.5594,-4.5594,-4.5594,-4.5594,-4.5594,-4.5594,-4.5594,-4.5594,-4.5594,-4.5594,-4.5594,-4.5594,-4.5594,0.0,0.0,0.0,0.0,0.0,0.0,0.0,0.0,0.0,0.0,0.0,0.0,0.0,0.0,0.0,0.0,0.0,0.0,0.0,-1.7863,-1.9198,-2.0351,-2.0973,-2.166,-2.2462,-2.2968,-2.3447,-2.3932,-2.4829,-2.5494,-2.5964,-2.5964,-2.5964,-2.5964,-2.5964,-2.5964,-2.5964,-2.5964,-2.6257,0.0,0.0,-2.529,-2.5232,-2.4785,-2.3477,-2.1953,0.0,0.0,0.0,0.0,0.0,-2.8594,-3.0234,-3.1328,-3.2324,-3.4043,0.0,-3.6816,-3.8672,-3.9805,-4.0566,-4.0987,-4.0807,-4.0076,-3.8358,-3.6916,-3.5229,-3.2691,-3.0737,0.0,-2.9414,-3.0452,-3.2129,0.0,0.0,0.0,-4.2874,-4.4528,-4.5421,0.0,-4.5306,0.0,-4.4921,-4.5306,-4.5594,-4.5594,-4.5594,-4.5594,-4.5594,-4.5594,-4.5594,-4.5594,-4.5594,-4.5594,-4.5594,-4.5594,-4.5594,-4.5594,-4.5594,-4.5594,-4.5594,-4.5594,-4.5594,-4.5594,-4.5594,-4.5594,-4.5594,-4.5594,-4.5635,-4.5688,-4.561,-4.5653,-4.5736,-4.5696,-4.5718,-4.5731,0.0,0.0,0.0,0.0,0.0,0.0,0.0,0.0,0.0,0.0,0.0,0.0,0.0,0.0,0.0,0.0,0.0,0.0,0.0,0.0,-1.7725,-2.0103,-1.961,-1.9972,-2.1476,-2.1507,-2.1587,-2.1702,-2.2457,-2.289,-2.2995,-2.2995,-2.2995,-2.2995,-2.2995,-2.2995,-2.2995,-2.2995,-2.2995,-2.3019,-2.3189,-2.3199,-2.3104,0.0,0.0,0.0,0.0,0.0,0.0,0.0,-2.8633,-2.9277,-3.1875,-3.3262,-3.4258,-3.6016,-3.7598,-3.8965,-3.9844,-4.0625,-4.1191,-4.1191,-4.0469,-3.9062,-3.6504,-3.5071,-3.3301,-2.9869,0.0,-2.791,-2.7713,-2.8439,-3.0148,-3.3499,0.0,-3.9931,-4.2701,-4.4432,-4.5479,-4.5594,-4.5594,-4.5594,-4.5594,-4.5594,-4.5594,-4.5594,-4.5594,-4.5594,-4.5594,-4.5594,-4.5594,-4.5594,-4.5594,-4.5594,-4.5594,-4.5594,-4.5594,-4.5594,-4.5594,-4.5594,-4.5594,-4.5594,-4.5594,-4.5594,-4.5629,-4.5637,-4.5618,-4.5632,-4.5711,-4.5803,-4.5692,-4.5757,-4.5885,-4.5825,-4.5839,-4.5899,0.0,0.0,0.0,0.0,0.0,0.0,0.0,0.0,0.0,0.0,-1.5939,-1.5192,0.0,0.0,0.0,0.0,0.0,0.0,0.0,0.0,0.0,-1.9193,-1.9783,-2.0227,-2.0543,-2.0543,-2.0927,-2.1702,0.0,-2.2288,-2.2995,-2.2995,-2.2995,-2.2995,-2.2995,-2.2995,-2.2995,-2.2995,-2.2995,-2.3056,-2.38,-2.3661,-2.3098,-2.382,0.0,0.0,0.0,0.0,0.0,0.0,-3.0332,-3.1973,-3.4531,-3.5937,-3.6973,-3.8711,-3.9434,-3.9863,-4.0742,-4.1074,-4.1191,-4.1191,-4.0,-3.832,-3.6425,-3.4237,0.0,0.0,-2.7789,-2.6944,-2.6152,-2.7264,-2.9376,-3.2671,-3.5438,-3.8546,-4.2547,-4.3912,-4.4778,0.0,-4.5594,-4.5594,-4.5594,-4.5594,0.0,0.0,-4.5594,-4.5594,-4.5594,-4.5594,-4.5594,-4.5594,-4.5594,-4.5594,-4.5594,-4.5594,-4.5594,-4.5594,-4.5594,-4.5594,-4.5594,-4.5594,-4.5594,-4.5603,-4.5723,-4.5775,-4.5763,-4.5822,-4.5867,-4.5886,-4.5862,-4.5862,-4.5899,-4.5896,-4.5881,-4.5899,0.0,0.0,0.0,0.0,0.0,0.0,0.0,-1.4907,-1.6608,-1.8445,-1.8027,-1.7278,-1.6586,-1.5712,-1.5192,0.0,0.0,0.0,0.0,0.0,0.0,0.0,-1.9408,-1.985,-2.0282,0.0,0.0,0.0,0.0,0.0,0.0,0.0,0.0,0.0,0.0,0.0,0.0,-2.1584,-2.1584,-2.1664,-2.2533,-2.2638,0.0,0.0,0.0,0.0,0.0,0.0,0.0,0.0,-3.0078,-3.2051,-3.5059,-3.6601,-3.7637,-3.9394,-3.9902,-4.0098,-4.0957,-4.1191,-4.1191,-4.1191,-3.9551,-3.7344,-3.5156,0.0,0.0,0.0,-2.6602,-2.6171,-2.5685,-2.7,0.0,-3.136,-3.3476,-3.6477,-4.1247,-4.2181,0.0,-4.5449,-4.5643,-4.5594,0.0,-4.5594,-4.5594,-4.5594,-4.5594,-4.5594,-4.5594,-4.5594,-4.5594,-4.5594,-4.5594,-4.5594,-4.5594,-4.5594,-4.5594,-4.5594,-4.5673,-4.57,-4.5708,-4.575,-4.5751,-4.5757,-4.5817,-4.5845,-4.585,-4.5896,-4.5936,-4.5995,-4.5924,-4.5985,-4.6108,-4.6033,-4.6045,-4.6113,0.0,0.0,0.0,0.0,0.0,0.0,0.0,-1.6056,-1.7944,-1.9719,-1.9925,-1.9535,-1.8514,-1.6772,-1.568,0.0,0.0,0.0,0.0,0.0,0.0,0.0,0.0,-1.9592,0.0,0.0,0.0,0.0,0.0,0.0,0.0,0.0,0.0,0.0,0.0,0.0,0.0,0.0,-2.0404,0.0,0.0,0.0,0.0,0.0,0.0,0.0,0.0,0.0,0.0,0.0,-2.9062,-3.084,-3.3711,-3.5723,-3.7363,-3.9101,-3.9746,-4.0098,-4.0957,-4.1191,-4.1191,-4.1191,-3.9082,-3.6387,-3.3945,-3.1289,0.0,0.0,-2.5703,-2.5683,-2.5633,0.0,-2.8246,0.0,-3.1744,-3.4587,-3.9567,-4.0634,-4.2066,0.0,-4.5592,0.0,-4.5594,-4.5594,0.0,-4.5594,-4.5637,-4.5627,-4.5594,-4.5594,-4.5594,-4.5594,-4.5594,-4.562,-4.5643,-4.5643,-4.5648,-4.5677,-4.577,-4.5814,-4.582,-4.5877,-4.5899,-4.5903,-4.5924,-4.5936,-4.5955,-4.5978,-4.6045,-4.6122,-4.6033,-4.6115,-4.6289,-4.6177,-4.6202,-4.6308,0.0,0.0,0.0,0.0,0.0,0.0,0.0,-1.6029,-1.8656,-2.0462,-2.065,-2.0637,-2.0696,-1.8596,-1.7265,0.0,0.0,0.0,0.0,0.0,0.0,0.0,0.0,0.0,0.0,0.0,0.0,0.0,0.0,0.0,0.0,0.0,0.0,0.0,0.0,0.0,0.0,0.0,0.0,0.0,0.0,0.0,0.0,0.0,0.0,0.0,0.0,0.0,0.0,0.0,0.0,-2.873,-2.9844,-3.293,-3.6465,-3.8203,0.0,0.0,-4.0957,-4.1191,-4.1191,-4.1191,-3.8633,-3.5644,-3.3828,0.0,0.0,-2.6074,-2.5703,-2.5703,-2.5683,-2.5772,-2.6647,-2.9104,0.0,-3.3543,0.0,0.0,-4.2617,-4.4402,0.0,0.0,-4.5612,-4.5594,-4.5594,-4.5594,-4.5715,-4.5718,-4.5603,-4.5594,-4.5594,-4.5594,-4.5594,-4.5648,-4.5776,-4.5776,-4.5814,-4.5867,-4.5876,-4.5885,-4.5885,-4.5894,-4.5899,-4.5907,-4.6033,-4.6082,-4.6084,-4.6203,-4.6268,-4.6289,-4.6268,-4.6289,-4.6308,-4.6289,-4.6289,-4.6308,0.0,0.0,0.0,0.0,0.0,0.0,-1.5197,-1.6548,-1.8529,-2.1709,-2.1683,-2.1618,-2.2256,-2.0665,-1.9025,-1.7695,0.0,0.0,0.0,0.0,0.0,0.0,0.0,0.0,0.0,0.0,0.0,0.0,0.0,0.0,0.0,0.0,0.0,0.0,0.0,0.0,0.0,0.0,0.0,0.0,0.0,0.0,0.0,0.0,0.0,0.0,0.0,0.0,0.0,0.0,0.0,0.0,-2.791,-2.9922,0.0,0.0,-3.6875,-3.7969,-3.9902,-4.0801,-4.1074,-4.0547,-3.8184,-3.543,-3.3184,0.0,-2.7812,-2.6055,-2.5703,-2.5703,-2.5703,-2.5682,-2.6167,-2.7706,-2.8089,-2.9857,-3.4676,-3.6182,0.0,-4.2665,-4.387,0.0,0.0,0.0,-4.5776,-4.5776,-4.5828,-4.5839,-4.5776,-4.5776,-4.5776,-4.5776,-4.5776,-4.5805,-4.5861,-4.5861,-4.5872,-4.5903,-4.5985,-4.6027,-4.6011,-4.6091,-4.6144,-4.6145,-4.62,-4.6223,-4.6224,-4.6289,-4.6308,-4.6308,-4.6308,-4.6308,-4.6308,-4.6308,-4.6308,-4.6308,0.0,0.0,0.0,0.0,0.0,-1.3954,-1.5881,-1.6798,-1.8383,-2.1502,-2.184,-2.2082,-2.2771,-2.1735,-2.0356,-1.8769,-1.885,0.0,0.0,0.0,0.0,0.0,0.0,0.0,0.0,0.0,-2.1754,-2.2274,0.0,0.0,0.0,0.0,0.0,0.0,0.0,0.0,0.0,0.0,0.0,0.0,0.0,0.0,0.0,0.0,0.0,0.0,0.0,0.0,0.0,0.0,0.0,0.0,0.0,0.0,0.0,0.0,-3.4746,-3.6133,-3.8496,-3.9766,-4.0273,-3.9668,-3.7559,-3.5019,0.0,-3.0176,-2.7812,-2.6055,-2.5703,-2.5703,-2.5703,-2.5703,-2.5898,-2.6523,-2.6758,-2.8301,-3.2461,-3.3877,0.0,0.0,0.0,-4.3623,-4.5023,-4.5607,-4.5916,-4.5967,-4.5967,-4.5981,-4.6027,-4.6027,-4.5985,-4.5903,-4.5899,-4.5916,-4.5967,-4.5967,-4.5981,-4.6027,-4.6115,-4.615,-4.6152,-4.6267,-4.6308,-4.6308,-4.6308,-4.6308,-4.6308,-4.6308,-4.6308,-4.6308,-4.6308,-4.6308,-4.6308,-4.6308,-4.6308,-4.6308,0.0,0.0,0.0,0.0,0.0,0.0,-1.4402,-1.6548,-1.839,-1.9224,-2.0784,-2.185,-2.1995,-2.1403,-2.1071,-2.1251,-1.9867,0.0,0.0,0.0,0.0,0.0,0.0,0.0,0.0,0.0,-2.235,-2.4072,-2.4072,-2.4091,0.0,0.0,0.0,0.0,0.0,0.0,0.0,0.0,0.0,0.0,0.0,0.0,0.0,0.0,0.0,0.0,0.0,0.0,0.0,0.0,0.0,0.0,0.0,0.0,0.0,0.0,-3.3418,-3.5098,-3.6855,-3.7969,-3.8613,-3.8613,-3.6641,-3.4277,-3.2578,-3.0176,-2.7812,-2.6055,-2.5703,-2.5703,-2.5703,-2.5703,-2.5703,-2.5703,-2.7871,-3.0176,-3.1953,-3.5137,0.0,0.0,0.0,-4.2599,-4.3342,-4.4941,-4.5963,-4.6084,-4.6108,-4.6168,-4.6289,-4.6308,-4.6174,-4.5907,-4.5899,-4.5951,-4.6108,-4.6108,-4.6152,-4.6308,-4.6308,-4.6308,-4.6308,-4.6308,-4.6308,-4.6308,-4.6308,-4.6308,-4.6308,-4.6308,-4.6308,-4.6308,-4.6308,-4.6308,-4.6308,-4.6308,-4.6308,-4.6308,0.0,0.0,0.0,0.0,0.0,0.0,0.0,-1.578,-1.6558,-1.838,-1.8608,-1.9017,-2.0168,-2.022,-2.0233,-2.0396,-2.008,0.0,0.0,0.0,0.0,0.0,0.0,0.0,0.0,0.0,-2.2951,-2.411,-2.4639,-2.4928,-2.4928,-2.4928,-2.4485,0.0,0.0,0.0,0.0,0.0,0.0,0.0,0.0,0.0,0.0,0.0,0.0,0.0,0.0,0.0,0.0,0.0,0.0,0.0,0.0,0.0,0.0,-2.8066,0.0,0.0,-3.3496,-3.4844,-3.5664,-3.4512,-3.3164,-3.1641,-2.9922,-2.8437,-2.709,-2.5937,-2.5703,-2.5703,-2.5703,-2.5703,-2.6289,-2.8066,-2.9062,0.0,0.0,0.0,0.0,-3.9625,-4.2905,-4.513,0.0,0.0,-4.6198,-4.6226,-4.6245,-4.6267,-4.6308,-4.6308,-4.6268,-4.6174,-4.6174,-4.6199,-4.6245,-4.6245,-4.6268,-4.6308,-4.6308,-4.6308,-4.6308,-4.6308,-4.6308,-4.6308,-4.6308,-4.6308,-4.6308,-4.6308,-4.6308,-4.6308,-4.6308,-4.6308,-4.6308,-4.6308,-4.6308,-4.6308,0.0,0.0,0.0,0.0,0.0,0.0,0.0,-1.548,-1.5856,-1.7275,-1.7296,-1.7824,-1.9501,-1.9537,-1.9732,-2.0494,-2.0393,0.0,0.0,0.0,0.0,0.0,0.0,0.0,-2.1966,-2.2528,-2.3374,-2.4548,-2.539,-2.5615,-2.5308,-2.5635,-2.5351,-2.4548,-2.424,0.0,0.0,0.0,0.0,0.0,0.0,0.0,0.0,0.0,0.0,0.0,0.0,0.0,0.0,0.0,0.0,0.0,0.0,0.0,0.0,0.0,-2.7891,-2.9687,0.0,-3.2226,-3.3027,-3.1973,-3.1055,-3.0039,-2.8613,-2.7637,-2.6758,-2.5879,-2.5703,-2.5703,-2.5703,-2.5703,-2.623,-2.7851,-2.8672,0.0,0.0,0.0,0.0,-4.0527,0.0,0.0,0.0,-4.6113,-4.6308,-4.6308,-4.6308,-4.6308,-4.6308,-4.6308,-4.6308,-4.6308,-4.6308,-4.6308,-4.6308,-4.6308,-4.6308,-4.6308,-4.6308,-4.6308,-4.6308,-4.6308,-4.6308,-4.6308,-4.6308,-4.6308,0.0,-4.6308,-4.6308,-4.6308,-4.6308,-4.6308,-4.6308,-4.6308,-4.6308,-4.6308,0.0,0.0,0.0,0.0,0.0,0.0,0.0,-1.5559,-1.6036,-1.6012,-1.6667,-1.7797,-1.9555,-1.9125,-1.9423,-2.1169,0.0,0.0,0.0,0.0,0.0,0.0,0.0,0.0,-2.2759,-2.2797,-2.362,-2.5308,-2.6173,-2.6192,-2.5404,-2.6269,-2.6231,-2.5365,-2.4606,-2.4245,0.0,0.0,0.0,0.0,0.0,0.0,0.0,0.0,0.0,0.0,0.0,0.0,0.0,0.0,0.0,0.0,0.0,0.0,0.0,0.0,0.0,0.0,0.0,-2.9961,-3.0605,-3.0547,-2.9922,-2.9101,-2.8301,-2.748,0.0,-2.5879,-2.5703,-2.5742,-2.5859,-2.5781,-2.582,-2.6191,-2.7559,0.0,0.0,-3.4805,0.0,0.0,-4.3398,0.0,-4.5019,-4.582,-4.6308,-4.6308,-4.6308,-4.6308,-4.6308,-4.6308,-4.6308,-4.6308,-4.6308,-4.6308,-4.6308,-4.6308,-4.6308,-4.6308,-4.6308,-4.6308,-4.6308,-4.6308,-4.6308,-4.6308,-4.6308,-4.6308,-4.6308,-4.6308,-4.6308,-4.6308,-4.6308,-4.6308,-4.6308,-4.6308,-4.6308,-4.6308,0.0,0.0,0.0,0.0,0.0,0.0,0.0,0.0,0.0,0.0,-1.5418,-1.5963,-1.7047,-1.7594,-1.8346,0.0,0.0,0.0,0.0,0.0,0.0,0.0,0.0,0.0,-2.2759,-2.2797,-2.362,-2.5308,-2.6173,-2.6505,-2.6308,-2.7198,-2.7121,-2.6288,-2.6101,-2.564,0.0,0.0,0.0,0.0,0.0,0.0,0.0,0.0,0.0,0.0,-2.4317,-2.4259,0.0,0.0,0.0,0.0,0.0,0.0,0.0,0.0,-2.5859,-2.6094,-2.6504,0.0,-2.7754,-2.709,-2.6777,-2.6562,0.0,-2.6152,-2.5957,-2.5742,0.0,-2.6113,-2.7441,-2.6602,-2.6992,-3.0957,0.0,0.0,-3.5644,0.0,0.0,-4.5039,-4.5566,-4.5762,-4.5976,-4.6172,-4.6308,-4.6308,-4.6308,-4.6308,-4.6308,-4.6308,-4.6308,-4.6308,-4.6308,-4.6308,-4.6308,-4.6308,-4.6308,-4.6308,-4.6308,-4.6308,-4.6308,-4.6308,-4.6308,-4.6308,-4.6308,-4.6308,-4.6308,-4.6308,-4.6308,-4.6308,-4.6308,-4.6308,-4.6308,-4.6308,-4.6308,-4.6308,0.0,0.0,0.0,0.0,0.0,0.0,0.0,0.0,0.0,0.0,0.0,-1.6014,-1.6857,-1.7727,0.0,0.0,0.0,0.0,0.0,0.0,0.0,0.0,0.0,-2.1081,-2.2759,-2.2797,-2.362,-2.5308,-2.6173,-2.6601,-2.6621,-2.7082,-2.7044,-2.6582,-2.6173,-2.5731,0.0,0.0,0.0,0.0,0.0,0.0,0.0,0.0,0.0,0.0,-2.3355,-2.349,0.0,-2.4466,-2.507,-2.5459,0.0,0.0,0.0,0.0,-2.5682,-2.5703,-2.5703,-2.6348,-2.6894,-2.6406,-2.6309,-2.6309,-2.6309,0.0,0.0,0.0,0.0,0.0,0.0,0.0,0.0,0.0,-3.2012,0.0,0.0,0.0,-4.4277,-4.6074,-4.6308,-4.6308,-4.6308,-4.6308,-4.6308,-4.6308,-4.6308,-4.6308,-4.6308,-4.6308,-4.6308,-4.6308,-4.6308,-4.6308,-4.6308,-4.6308,-4.6308,-4.6308,-4.6308,-4.6308,-4.6308,-4.6308,-4.6308,-4.6308,-4.6308,-4.6308,-4.6308,-4.6308,-4.6308,-4.6308,-4.6308,-4.6308,-4.6308,-4.6308,-4.6308,-4.6308,0.0,0.0,0.0,0.0,0.0,0.0,0.0,0.0,0.0,0.0,0.0,0.0,0.0,0.0,0.0,0.0,0.0,0.0,0.0,0.0,0.0,0.0,-2.0481,-2.1216,-2.2778,-2.2932,-2.3755,-2.5308,-2.6308,-2.6794,-2.6794,-2.7063,-2.7044,-2.6755,-2.5885,-2.5423,0.0,0.0,0.0,0.0,0.0,0.0,0.0,0.0,0.0,0.0,0.0,0.0,0.0,-2.3605,-2.4493,-2.5228,-2.5216,0.0,0.0,0.0,0.0,0.0,-2.5859,-2.6621,-2.7305,-2.6894,-2.6894,-2.6973,-2.6836,0.0,0.0,0.0,0.0,0.0,0.0,-2.75,0.0,0.0,0.0,0.0,-4.0898,-4.3555,-4.5312,-4.6191,-4.6308,-4.6308,-4.6308,-4.6308,-4.6308,-4.6308,-4.6308,-4.6308,-4.6308,-4.6308,-4.6308,-4.6308,-4.6308,-4.6308,-4.6308,-4.6308,-4.6308,-4.6308,-4.6308,-4.6308,-4.6308,-4.6308,-4.6308,-4.6308,-4.6308,-4.6308,-4.6308,-4.6308,-4.6308,-4.6308,-4.6308,-4.6308,-4.6308,-4.6308,-4.6308,-4.6308,0.0,0.0,0.0,0.0,0.0,0.0,0.0,0.0,0.0,0.0,0.0,0.0,0.0,0.0,0.0,0.0,0.0,0.0,0.0,0.0,0.0,-2.1293,-2.1331,-2.1773,-2.2778,-2.3509,-2.4356,-2.5308,-2.6909,-2.7698,-2.7736,-2.9154,-2.9058,-2.7659,-2.6794,-2.5981,-2.5308,-2.5308,0.0,0.0,0.0,0.0,0.0,0.0,0.0,0.0,0.0,0.0,0.0,-2.272,-2.3628,-2.4386,-2.439,0.0,0.0,0.0,0.0,0.0,-2.6581,-2.7988,-2.8672,-2.6445,-2.6445,-2.6816,-2.6074,0.0,0.0,0.0,0.0,0.0,0.0,-2.9219,-3.0351,0.0,0.0,-3.9941,0.0,0.0,-4.5312,-4.6191,-4.6308,-4.6308,-4.6308,-4.6308,-4.6308,-4.6308,-4.6308,-4.6308,-4.6308,-4.6308,-4.6308,-4.6308,-4.6308,-4.6308,-4.6308,-4.6308,-4.6308,-4.6308,-4.6308,-4.6308,-4.6308,-4.6308,-4.6308,-4.6308,-4.6308,-4.6308,-4.6308,-4.6308,-4.6308,-4.6308,-4.6308,-4.6308,-4.6308,-4.6308,-4.6308,-4.6308,0.0,0.0,0.0,0.0,0.0,0.0,0.0,0.0,0.0,0.0,0.0,0.0,0.0,0.0,0.0,0.0,0.0,0.0,0.0,0.0,-2.1115,-2.1485,-2.2389,-2.3086,-2.349,-2.4312,-2.5159,-2.6,-2.7717,-2.8549,-2.8569,-2.889,-2.839,-2.7159,-2.6288,-2.5673,-2.5308,-2.5308,0.0,0.0,0.0,0.0,0.0,0.0,0.0,0.0,0.0,0.0,0.0,0.0,-2.3009,-2.4153,-2.4153,0.0,0.0,0.0,0.0,0.0,-2.6004,-2.6831,-2.738,-2.7168,-2.8476,-2.957,-2.8711,-2.8516,0.0,0.0,0.0,0.0,0.0,0.0,-3.3633,-3.7578,0.0,-4.2539,-4.418,-4.5156,-4.5859,-4.625,-4.6308,-4.6308,-4.6308,-4.6308,-4.6308,-4.6308,-4.6308,-4.6308,-4.6308,-4.6308,-4.6308,-4.6308,-4.6308,-4.6308,-4.6308,-4.6308,-4.6308,-4.6308,-4.6308,-4.6308,-4.6308,-4.6308,-4.6308,-4.6308,-4.6308,-4.6308,-4.6308,-4.6308,-4.6308,-4.6308,-4.6308,-4.6308,-4.6308,-4.6308,-4.6308,-4.6308,0.0,0.0,0.0,0.0,0.0,0.0,0.0,0.0,0.0,0.0,0.0,0.0,0.0,0.0,0.0,0.0,0.0,0.0,0.0,-2.1058,-2.16,-2.1793,-2.3278,-2.4187,-2.4375,-2.5178,-2.6115,-2.7198,-2.8472,-2.9204,-2.939,-2.8569,-2.7717,-2.6871,-2.5981,-2.55,-2.5308,-2.5308,-2.5308,0.0,0.0,0.0,0.0,0.0,0.0,0.0,0.0,0.0,0.0,0.0,0.0,0.0,0.0,0.0,0.0,-2.5395,-2.4878,-2.4501,-2.5611,-2.5899,-2.6298,-2.791,0.0,-3.1016,-3.1172,-3.0898,0.0,0.0,0.0,0.0,0.0,-3.375,0.0,-4.1113,-4.3027,-4.4316,-4.5176,-4.5879,-4.6308,-4.6308,-4.6308,-4.6308,-4.6308,-4.6308,-4.6308,-4.6308,-4.6308,-4.6308,-4.6308,-4.6308,-4.6308,-4.6308,-4.6308,-4.6308,-4.6308,-4.6308,-4.6308,-4.6308,-4.6308,-4.6308,-4.6308,-4.6308,-4.6308,-4.6308,-4.6308,-4.6308,-4.6308,-4.6308,-4.6308,-4.6308,-4.6308,-4.6308,-4.6308,-4.6308,-4.6308,-4.6308,0.0,0.0,0.0,0.0,0.0,0.0,0.0,0.0,0.0,0.0,0.0,0.0,0.0,0.0,0.0,0.0,0.0,0.0,0.0,-2.1058,-2.187,-2.2663,-2.3605,-2.4452,-2.5192,-2.6058,-2.7294,-2.8915,-2.905,-2.9506,-3.0288,-2.941,-2.8588,-2.778,-2.6909,-2.6058,-2.5308,-2.5308,-2.5308,-2.5308,0.0,0.0,0.0,0.0,0.0,0.0,0.0,0.0,0.0,0.0,0.0,0.0,0.0,0.0,-2.5327,-2.5379,-2.4839,-2.4593,-2.6328,-2.6817,-2.704,-2.8046,-2.7832,-2.8203,-3.1387,-3.0859,0.0,-3.2734,0.0,0.0,0.0,-3.6016,-3.9453,-4.2949,-4.4297,-4.5215,-4.6074,-4.6269,-4.6308,-4.6308,-4.6308,-4.6308,-4.6308,-4.6308,-4.6308,-4.6308,-4.6308,-4.6308,-4.6308,-4.6308,-4.6308,-4.6308,-4.6308,-4.6308,-4.6308,-4.6308,-4.6308,-4.6308,-4.6308,-4.6308,-4.6308,-4.6308,-4.6308,-4.6308,-4.6308,-4.6308,-4.6308,-4.6308,-4.6308,-4.6308,-4.6308,-4.6308,-4.6308,-4.6308,-4.6308,-4.6308,0.0,0.0,0.0,0.0,0.0,0.0,0.0,0.0,0.0,0.0,0.0,0.0,0.0,0.0,0.0,0.0,0.0,0.0,0.0,-2.1562,-2.247,-2.2797,-2.4101,-2.5236,-2.6096,-2.6967,-2.7967,-2.9107,-2.9107,-2.9544,-3.0365,-2.8448,-2.7371,-2.7044,-2.6173,-2.5615,-2.5308,-2.5308,-2.5308,-2.5308,-2.5308,0.0,0.0,0.0,0.0,0.0,0.0,0.0,0.0,0.0,-2.1677,-2.2759,-2.2547,-2.3774,-2.5202,-2.4741,-2.3983,-2.3724,-2.5537,-2.6063,-2.6574,-2.8593,-2.9277,0.0,0.0,-3.3691,-3.4961,-3.7012,-3.7871,0.0,0.0,0.0,-4.1562,-4.3398,-4.4883,-4.5918,-4.625,-4.6308,-4.6308,-4.6308,-4.6308,-4.6308,-4.6308,-4.6308,-4.6308,-4.6308,-4.6308,-4.6308,-4.6308,-4.6308,-4.6308,-4.6308,-4.6308,-4.6308,-4.6308,-4.6308,-4.6308,-4.6308,-4.6308,-4.6308,-4.6308,-4.6308,-4.6308,-4.6308,-4.6308,-4.6308,-4.6308,-4.6308,-4.6308,-4.6308,-4.6308,-4.6308,-4.6308,-4.6308,-4.6308,-4.6308,0.0,0.0,0.0,0.0,0.0,0.0,0.0,0.0,0.0,0.0,0.0,0.0,0.0,0.0,0.0,0.0,0.0,0.0,-2.0308,-2.162,-2.2509,-2.2797,-2.4159,-2.5447,-2.6582,-2.7178,-2.814,-2.9506,-2.9506,-2.9544,-2.9577,-2.7544,-2.6755,-2.6967,-2.5808,-2.5442,-2.5692,-2.5423,-2.5308,-2.5308,-2.5308,-2.4962,0.0,0.0,0.0,0.0,0.0,0.0,0.0,0.0,-2.1446,-2.237,-2.2331,-2.3524,-2.487,-2.4567,-2.406,-2.3964,-2.5485,-2.5753,-2.6239,-2.8925,0.0,0.0,-3.4062,-3.6016,-3.7949,-4.0215,-4.0957,-4.1367,-4.1894,0.0,0.0,-4.3926,-4.5332,-4.6308,-4.6308,-4.6308,-4.6308,-4.6308,-4.6308,-4.6308,-4.6308,-4.6308,-4.6308,-4.6308,-4.6308,-4.6308,-4.6308,-4.6308,-4.6308,-4.6308,-4.6308,-4.6308,-4.6308,-4.6308,-4.6308,-4.6308,-4.6308,-4.6308,-4.6308,-4.6308,-4.6308,-4.6308,-4.6308,-4.6308,-4.6308,-4.6308,-4.6308,-4.6308,-4.6308,-4.6308,-4.6308,-4.6308,-4.6308,-4.6308,0.0,0.0,0.0,0.0,0.0,0.0,0.0,0.0,0.0,0.0,0.0,0.0,0.0,0.0,0.0,0.0,0.0,0.0,-2.0308,-2.1058,-2.1889,-2.2759,-2.3624,-2.4875,-2.6544,-2.6601,-2.7846,-3.0385,-3.0385,-2.9519,-2.7876,-2.7005,-2.7063,-2.7799,-2.6077,-2.5788,-2.6524,-2.5673,-2.5308,-2.5308,-2.5308,-2.5308,0.0,0.0,0.0,0.0,0.0,0.0,0.0,0.0,-2.1485,-2.1793,-2.3528,-2.4091,-2.4259,-2.5058,-2.5335,-2.5609,-2.6534,-2.6222,-2.6278,0.0,0.0,0.0,-3.6348,-3.7324,-3.8301,-4.1738,-4.1797,-4.1738,-4.3418,-4.3008,-4.2988,-4.4726,-4.5723,-4.6308,-4.6308,-4.6308,-4.6308,-4.6308,-4.6308,-4.6308,-4.6308,-4.6308,-4.6308,-4.6308,-4.6308,-4.6308,-4.6308,-4.6308,-4.6308,-4.6308,-4.6308,-4.6308,-4.6308,-4.6308,-4.6308,-4.6308,-4.6308,-4.6308,-4.6308,-4.6308,-4.6308,-4.6308,-4.6308,-4.6308,-4.6308,-4.6308,-4.6308,-4.6308,-4.6308,-4.6308,-4.6308,-4.6308,-4.6308,-4.6308,0.0,0.0,0.0,0.0,0.0,0.0,0.0,0.0,0.0,0.0,0.0,0.0,0.0,0.0,0.0,0.0,0.0,0.0,-2.0308,-2.1058,-2.1889,-2.2759,-2.3624,-2.4606,-2.5654,-2.6288,-2.7274,-2.864,-2.864,-2.8063,-2.6986,-2.6717,-2.6409,-2.6077,-2.6173,-2.6019,-2.5673,-2.5404,-2.5308,-2.5308,-2.5308,-2.5308,0.0,0.0,0.0,0.0,0.0,0.0,0.0,0.0,0.0,0.0,-2.21,-2.3505,-2.4889,-2.4548,-2.4864,-2.5404,-2.5721,-2.6578,0.0,-2.9927,0.0,0.0,0.0,-3.9609,0.0,0.0,-4.4473,-4.4023,-4.4512,-4.4394,-4.4394,-4.4922,-4.5723,-4.6308,-4.6308,-4.6308,-4.6308,-4.6308,-4.6308,-4.6308,-4.6308,-4.6308,-4.6308,-4.6308,-4.6308,-4.6308,-4.6308,-4.6308,-4.6308,-4.6308,-4.6308,-4.6308,-4.6308,-4.6308,-4.6308,-4.6308,-4.6308,-4.6308,-4.6308,-4.6308,-4.6308,-4.6308,-4.6308,-4.6308,-4.6308,-4.6308,-4.6308,-4.6308,-4.6308,-4.6308,-4.6308,-4.6308,-4.6308,-4.6308,0.0,0.0,0.0,0.0,0.0,0.0,0.0,0.0,0.0,0.0,-2.0308,0.0,0.0,0.0,0.0,0.0,0.0,0.0,0.0,-2.1235,-2.1889,-2.2759,-2.3624,-2.449,-2.5288,-2.6154,-2.6697,-2.6871,-2.7217,-2.6948,-2.6096,-2.6447,-2.6505,-2.637,-2.689,-2.6813,-2.6308,-2.5962,-2.5615,-2.5308,-2.5308,-2.5308,-2.5212,0.0,0.0,0.0,0.0,0.0,0.0,0.0,0.0,0.0,-2.1408,0.0,-2.3841,-2.4066,-2.4733,-2.5622,-2.6726,-2.7831,0.0,-3.2179,-3.4705,-3.7461,-4.1094,0.0,0.0,0.0,-4.5605,-4.5117,-4.5449,-4.5234,-4.5117,-4.5469,-4.5957,-4.6308,-4.6308,-4.6308,-4.6308,-4.6308,-4.6308,-4.6308,-4.6308,-4.6308,-4.6308,-4.6308,-4.6308,-4.6308,-4.6308,-4.6308,-4.6308,-4.6308,-4.6308,-4.6308,-4.6308,-4.6308,-4.6308,-4.6308,-4.6308,-4.6308,-4.6308,-4.6308,-4.6308,-4.6308,-4.6308,-4.6308,-4.6308,-4.6308,-4.6308,-4.6308,-4.6308,-4.6308,-4.6308,-4.6308,-4.6308,-4.6308,0.0,0.0,0.0,0.0,0.0,0.0,0.0,0.0,0.0,0.0,-2.0308,-2.0308,0.0,0.0,0.0,0.0,0.0,0.0,0.0,-2.1504,-2.1927,-2.2874,-2.374,-2.4548,-2.5288,-2.6077,-2.6096,-2.5308,-2.6173,-2.6154,-2.5327,-2.6269,-2.7101,-2.7799,-2.7857,-2.7857,-2.7717,-2.6851,-2.6019,-2.5308,-2.5308,-2.5308,-2.5212,-2.4413,0.0,0.0,0.0,0.0,0.0,0.0,0.0,0.0,-2.1273,-2.1543,-2.1967,-2.3674,-2.479,-2.605,-2.8654,0.0,0.0,-3.4941,-3.6933,0.0,-4.3906,-4.5058,-4.5332,-4.6133,0.0,-4.5351,-4.6152,-4.5644,-4.5371,-4.6172,-4.6308,-4.6308,-4.6308,-4.6308,-4.6308,-4.6308,-4.6308,-4.6308,-4.6308,-4.6308,-4.6308,-4.6308,-4.6308,-4.6308,-4.6308,-4.6308,-4.6308,-4.6308,-4.6308,-4.6308,-4.6308,-4.6308,-4.6308,-4.6308,-4.6308,-4.6308,-4.6308,-4.6308,-4.6308,-4.6308,-4.6308,-4.6308,-4.6308,-4.6308,-4.6308,-4.6308,-4.6308,-4.6308,-4.6308,-4.6308,-4.6308,-4.6308,0.0,0.0,0.0,0.0,0.0,0.0,0.0,0.0,0.0,0.0,0.0,0.0,0.0,0.0,0.0,0.0,0.0,0.0,0.0,-2.1504,-2.2197,-2.3744,-2.4601,-2.5115,-2.5308,-2.5481,-2.55,-2.5308,-2.6173,-2.6154,-2.5327,-2.689,-2.7351,-2.6909,-2.7582,-2.7525,-2.6813,-2.5942,-2.5462,-2.5308,-2.5308,-2.5308,-2.5212,-2.4413,-2.3567,0.0,0.0,0.0,0.0,0.0,0.0,0.0,-2.1446,-2.1966,-2.2725,-2.3814,-2.4703,-2.5777,-2.7776,-2.936,0.0,0.0,-3.9158,-4.2793,-4.459,-4.5527,-4.6074,-4.6269,-4.6152,-4.6074,-4.6269,-4.6152,-4.6074,-4.6269,-4.6308,-4.6308,-4.6308,-4.6308,-4.6308,-4.6308,-4.6308,-4.6308,-4.6308,-4.6308,-4.6308,-4.6308,-4.6308,-4.6308,-4.6308,-4.6308,-4.6308,-4.6308,-4.6308,-4.6308,-4.6308,-4.6308,-4.6308,-4.6308,-4.6308,-4.6308,-4.6308,-4.6308,-4.6308,-4.6308,-4.6308,-4.6308,-4.6308,-4.6308,-4.6308,-4.6308,-4.6308,-4.6308,-4.6308,-4.6308,-4.6308,-4.6308,0.0,0.0,0.0,0.0,0.0,0.0,0.0,0.0,0.0,0.0,0.0,0.0,0.0,0.0,0.0,0.0,0.0,0.0,0.0,-2.212,-2.2889,-2.4601,-2.5077,-2.5308,-2.5308,-2.5308,-2.5308,-2.5308,-2.5769,-2.5962,-2.5942,-2.7274,-2.7852,-2.7813,-2.828,-2.8011,-2.7178,-2.6288,-2.5673,-2.5308,-2.5308,-2.5077,-2.4678,-2.4259,-2.3297,-2.212,-2.1658,0.0,0.0,0.0,0.0,0.0,0.0,0.0,-2.2267,-2.2771,-2.3497,-2.4733,0.0,0.0,0.0,-3.6633,0.0,-4.3926,-4.4805,-4.5664,-4.6308,-4.6308,-4.6308,-4.6308,-4.6308,-4.6308,-4.6308,-4.6308,-4.6308,-4.6308,-4.6308,-4.6308,-4.6308,-4.6308,-4.6308,-4.6308,-4.6308,-4.6308,-4.6308,-4.6308,-4.6308,-4.6308,-4.6308,-4.6308,-4.6308,-4.6308,-4.6308,-4.6308,-4.6308,-4.6308,-4.6308,-4.6308,-4.6308,-4.6308,-4.6308,-4.6308,-4.6308,-4.6308,-4.6308,-4.6308,-4.6308,-4.6308,-4.6308,-4.6308,-4.6308,-4.6308,-4.6308,-4.6308,-4.6308,-4.6308,0.0,0.0,0.0,0.0,0.0,0.0,0.0,0.0,0.0,0.0,0.0,0.0,0.0,0.0,0.0,0.0,0.0,0.0,0.0,-2.2855,-2.3716,-2.5231,-2.5308,-2.5308,-2.5308,-2.5308,-2.5308,-2.5308,-2.5308,-2.5962,-2.7274,-2.7698,-2.8338,-2.9088,-2.8953,-2.853,-2.7818,-2.6659,-2.5755,-2.5077,-2.4923,-2.4466,-2.386,-2.3706,-2.2759,-2.1485,-2.135,-2.0942,-2.0615,-2.1273,0.0,0.0,0.0,0.0,-2.1505,-2.1578,-2.2201,-2.3582,0.0,0.0,0.0,0.0,-4.1699,0.0,-4.4766,-4.5566,-4.6113,-4.6269,-4.6308,-4.6308,-4.6308,-4.6308,-4.6308,-4.6308,-4.6308,-4.6308,-4.6308,-4.6308,-4.6308,-4.6308,-4.6308,-4.6308,-4.6308,-4.6308,-4.6308,-4.6308,-4.6308,-4.6308,-4.6308,-4.6308,-4.6308,-4.6308,-4.6308,-4.6308,-4.6308,-4.6308,-4.6308,-4.6308,-4.6308,-4.6308,-4.6308,-4.6308,-4.6308,-4.6308,-4.6308,-4.6308,-4.6308,-4.6308,-4.6308,-4.6308,-4.6308,-4.6308,-4.6308,-4.6308,-4.6308,-4.6308,0.0,0.0,0.0,0.0,0.0,0.0,0.0,0.0,0.0,0.0,0.0,-2.0308,-2.0308,-2.0308,0.0,0.0,0.0,0.0,-2.162,0.0,0.0,-2.5269,-2.5308,-2.5308,-2.5308,-2.5308,-2.5308,-2.5308,-2.5308,-2.6885,-2.9865,-2.8525,-2.8338,-2.9069,-2.8376,-2.8011,-2.7761,-2.5414,-2.4375,-2.4182,-2.3432,-2.3067,-2.2893,-2.212,-2.1696,-2.1408,-2.0712,-2.0846,-2.137,-2.1466,-2.2004,0.0,0.0,0.0,-2.1504,-2.1505,-2.2125,-2.3265,0.0,0.0,0.0,0.0,-4.125,-4.3008,0.0,0.0,-4.5391,0.0,-4.6308,-4.6308,-4.6308,-4.6308,-4.6308,-4.6308,-4.6308,-4.6308,-4.6308,-4.6308,-4.6308,-4.6308,-4.6308,-4.6308,-4.6308,-4.6308,-4.6308,-4.6308,-4.6308,-4.6308,-4.6308,-4.6308,-4.6308,-4.6308,-4.6308,-4.6308,-4.6308,-4.6308,-4.6308,-4.6308,-4.6308,-4.6308,-4.6308,-4.6308,-4.6308,-4.6308,-4.6308,-4.6308,-4.6308,-4.6308,-4.6308,-4.6308,-4.6308,-4.6308,-4.6308,-4.6308,-4.6308,-4.6308,0.0,0.0,0.0,0.0,0.0,0.0,0.0,0.0,0.0,0.0,0.0,-2.0962,-2.0962,-2.0962,0.0,0.0,0.0,0.0,-2.1446,-2.3124,0.0,-2.4601,-2.5058,-2.5308,-2.5308,-2.487,-2.4851,-2.5308,-2.4851,-2.6621,-3.0385,-2.9654,-3.0256,-3.1878,-3.0102,-2.9025,-2.8415,-2.5851,-2.4509,-2.4072,-2.3682,-2.3798,-2.4005,-2.2197,-2.21,-2.272,-2.0946,-2.0538,-2.0962,-2.1908,-2.2489,-2.274,-2.235,0.0,0.0,0.0,-2.1427,0.0,-2.6665,0.0,0.0,0.0,0.0,-4.2051,-4.3262,0.0,-4.5117,-4.5488,-4.5957,-4.6308,-4.6308,-4.6308,-4.6308,-4.6308,-4.6308,-4.6308,-4.6308,-4.6308,-4.6308,-4.6308,-4.6308,-4.6308,-4.6308,-4.6308,-4.6308,-4.6308,-4.6308,-4.6308,-4.6308,-4.6308,-4.6308,-4.6308,-4.6308,-4.6308,-4.6308,-4.6308,-4.6308,-4.6308,-4.6308,-4.6308,-4.6308,-4.6308,-4.6308,-4.6308,-4.6308,-4.6308,-4.6308,-4.6308,-4.6308,-4.6308,-4.6308,-4.6308,-4.6308,-4.6308,-4.6308,-4.6308,0.0,0.0,0.0,0.0,0.0,0.0,0.0,0.0,0.0,0.0,0.0,0.0,-2.1812,0.0,0.0,0.0,0.0,0.0,-2.1446,0.0,0.0,0.0,-2.487,-2.5308,-2.5308,-2.4509,-2.449,-2.5308,-2.449,-2.6376,-3.0731,-3.0731,-3.2314,-3.5052,-3.2275,-3.0448,-2.9256,-2.6712,-2.5409,-2.5029,-2.4586,-2.4755,-2.5154,-2.3908,-2.4105,-2.4779,-2.2658,-2.175,-2.1731,-2.2778,-2.3124,-2.3086,-2.2874,-2.2797,0.0,0.0,0.0,0.0,0.0,0.0,0.0,0.0,0.0,0.0,0.0,0.0,-4.416,0.0,-4.5195,-4.5644,-4.5644,-4.5996,-4.6308,-4.6308,-4.6308,-4.6308,-4.6308,-4.6308,-4.6308,-4.6308,-4.6308,-4.6308,-4.6308,-4.6308,-4.6308,-4.6308,-4.6308,-4.6308,-4.6308,-4.6308,-4.6308,-4.6308,-4.6308,-4.6308,-4.6308,-4.6308,-4.6308,-4.6308,-4.6308,-4.6308,-4.6308,-4.6308,-4.6308,-4.6308,-4.6308,-4.6308,-4.6308,-4.6308,-4.6308,-4.6308,-4.6308,-4.6308,-4.6308,-4.6308,-4.6308,-4.6308,0.0,0.0,0.0,0.0,0.0,0.0,0.0,0.0,0.0,0.0,0.0,0.0,-2.2643,-2.1985,-2.1485,-2.1446,0.0,0.0,0.0,0.0,0.0,0.0,0.0,0.0,-2.5308,-2.4509,-2.449,-2.5308,-2.449,-2.6683,-3.1641,-3.1641,-3.3833,-3.7642,-3.4276,-3.1872,-3.0173,-2.7615,-2.6986,-2.7568,-2.5904,-2.5269,-2.5558,-2.7832,-2.8299,-2.7588,-2.6621,-2.5731,-2.4942,-2.4259,-2.4033,-2.3898,-2.3067,-2.2797,-2.247,0.0,0.0,0.0,0.0,0.0,0.0,0.0,0.0,0.0,0.0,0.0,-4.1855,-4.3437,-4.3808,-4.3848,-4.3848,-4.5195,-4.6308,-4.6308,-4.6308,-4.6308,-4.6308,-4.6308,-4.6308,-4.6308,-4.6308,-4.6308,-4.6308,-4.6308,-4.6308,-4.6308,-4.6308,-4.6308,-4.6308,-4.6308,-4.6308,-4.6308,-4.6308,-4.6308,-4.6308,-4.6308,-4.6308,-4.6308,-4.6308,-4.6308,-4.6308,-4.6308,-4.6308,-4.6308,-4.6308,-4.6308,-4.6308,-4.6308,-4.6308,-4.6308,-4.6308,-4.6308,-4.6308,-4.6308,-4.6308,-4.6308,0.0,0.0,0.0,0.0,0.0,0.0,0.0,0.0,0.0,0.0,0.0,0.0,0.0,-2.3355,-2.2932,-2.237,-2.1562,0.0,0.0,0.0,0.0,0.0,0.0,0.0,-2.5308,-2.3966,-2.3682,-2.4529,-2.3682,-2.5317,-2.9275,-3.0365,-3.1673,-3.3096,-3.2429,-3.2083,-3.1737,-2.7538,-2.6269,-2.7005,-2.639,-2.7442,-2.9327,-2.8602,-2.9838,-3.1628,-2.9107,-2.7313,-2.6173,-2.6452,-2.5452,-2.3956,-2.3067,-2.2797,-2.247,-2.0788,-2.1062,0.0,0.0,0.0,0.0,0.0,-3.3155,-3.5453,-3.6984,-3.9334,-4.1367,-4.1973,-4.2949,-4.3691,-4.3691,-4.4219,-4.4805,-4.5371,-4.5469,-4.5664,-4.6211,-4.6308,-4.6308,-4.6308,-4.6308,-4.6308,-4.6308,-4.6308,-4.6308,-4.6308,-4.5781,-4.5469,-4.5469,-4.4941,-4.4629,-4.4629,-4.4629,-4.4629,-4.4629,-4.4629,-4.4629,-4.4648,-4.5195,-4.5469,-4.5488,-4.6035,-4.6308,-4.6308,-4.6308,-4.6308,-4.6308,-4.6308,-4.6308,-4.6308,-4.6308,-4.6308,-4.6308,-4.6308,-4.6308,-4.6308,0.0,0.0,0.0,0.0,0.0,0.0,0.0,0.0,-2.1812,-2.2682,0.0,0.0,0.0,0.0,-2.3744,-2.2874,-2.2274,-2.1947,-2.1947,-2.2759,0.0,0.0,0.0,0.0,0.0,-2.3947,-2.3509,-2.411,-2.322,-2.4394,-2.7486,-2.8596,-2.9731,-3.0827,-3.0544,-3.1198,-3.2275,-2.8885,-2.7769,-2.8332,-2.8602,-2.991,-3.1737,-3.2025,-3.334,-3.4776,-3.2801,-3.1006,-2.9544,-2.9275,-2.7664,-2.5587,-2.4432,-2.3293,-2.2081,-2.0712,-2.1273,0.0,-2.3116,0.0,0.0,0.0,0.0,-3.2569,-3.4899,-3.7271,-3.9215,-4.0047,-4.1403,-4.25,-4.2751,-4.2831,-4.3223,-4.4375,-4.4551,-4.4766,-4.5351,-4.5683,-4.5762,-4.5469,-4.5937,-4.6074,-4.5488,-4.5683,-4.5742,-4.5449,-4.4883,-4.4551,-4.4551,-4.4004,-4.3691,-4.3691,-4.3691,-4.3691,-4.3691,-4.3691,-4.3691,-4.3711,-4.4297,-4.4726,-4.5019,-4.5605,-4.6016,-4.6308,-4.6308,-4.6308,-4.6308,-4.6308,-4.6308,-4.6308,-4.6308,-4.6308,-4.6308,-4.6308,-4.6308,-4.6308,0.0,0.0,0.0,0.0,0.0,0.0,0.0,0.0,-2.1889,-2.274,0.0,0.0,0.0,0.0,0.0,-2.299,-2.2893,-2.2855,-2.2836,-2.3624,0.0,0.0,0.0,0.0,-2.5308,-2.4509,-2.4091,-2.4052,-2.3201,-2.4062,-2.6486,-2.6544,-2.8352,-3.1448,-2.9025,-2.9294,-3.1583,-3.1525,-3.1583,-3.1756,-3.2487,-3.2449,-3.2545,-3.8207,-3.8911,-3.6981,-3.7796,-3.7007,-3.5231,-3.2737,-3.0679,-2.8876,-2.7101,-2.4255,-2.1389,-2.0596,-2.0942,-2.1562,0.0,0.0,0.0,0.0,0.0,0.0,-3.3151,0.0,-3.5222,-3.7689,-3.9034,-4.0017,-4.0789,-4.1045,-4.1699,-4.332,-4.3633,-4.3672,-4.3691,-4.4433,-4.4648,-4.3808,-4.5195,-4.5566,-4.3867,-4.4473,-4.4609,-4.3769,-4.3672,-4.3652,-4.3652,-4.3633,-4.3633,-4.3633,-4.3633,-4.3633,-4.3633,-4.3633,-4.3633,-4.3633,-4.3652,-4.4101,-4.4922,-4.4941,-4.5449,-4.6269,-4.6269,-4.6289,-4.6308,-4.6308,-4.6308,-4.6308,-4.6308,-4.6308,-4.6308,-4.6308,-4.6308,-4.6308,0.0,0.0,0.0,0.0,0.0,-2.3163,-2.2547,-2.299,-2.3471,0.0,0.0,0.0,-2.5288,-2.5659,-2.5813,-2.5563,-2.4962,-2.437,-2.3778,-2.3975,-2.411,-2.411,-2.487,-2.5308,-2.5308,-2.4509,-2.3783,-2.3163,-2.2913,-2.3163,-2.387,-2.5096,-2.65,-2.8025,-2.8549,-2.8838,-2.8871,-2.7615,-2.8865,-3.1602,-3.0564,-3.2974,-3.7161,-3.6969,-3.8738,-4.12,-4.0162,-3.915,-3.8046,-3.6719,-3.391,-3.0352,-2.6788,-2.4178,-2.2393,-2.2177,-2.272,-2.324,-2.2605,0.0,0.0,0.0,0.0,0.0,0.0,0.0,-3.3256,-3.5151,-3.6292,-3.7362,-3.8798,-3.9583,-4.0213,-4.0722,-4.1911,-4.2988,-4.3613,-4.3906,-4.3965,-4.373,-4.4121,-4.4238,-4.375,-4.3926,-4.3965,-4.3711,-4.3125,-4.2754,-4.2754,-4.2207,-4.1894,-4.1894,-4.1894,-4.1894,-4.1894,-4.1894,-4.1894,-4.1894,-4.248,-4.2891,-4.3144,-4.3769,-4.4531,-4.5351,-4.5351,-4.5723,-4.6308,-4.6308,-4.6308,-4.6308,-4.6308,-4.6308,-4.6308,-4.6308,-4.6308,-4.6308,0.0,0.0,0.0,-2.4678,-2.4601,-2.4428,-2.3928,-2.4274,-2.4601,0.0,0.0,0.0,-2.5808,-2.6928,-2.7351,-2.6659,-2.6135,-2.5481,-2.4659,-2.4601,-2.4601,-2.4601,-2.5058,-2.5308,-2.5308,-2.4832,-2.4182,-2.3336,-2.3336,-2.3163,-2.2836,-2.4178,-2.4889,-2.5063,-2.6414,-2.6741,-2.6241,-2.5236,-2.7044,-3.0717,-3.1814,-3.4468,-3.7815,-3.8796,-4.0585,-4.2527,-4.22,-4.1574,-4.0739,-3.9873,-3.6546,-3.2006,-2.7736,-2.5466,-2.4178,-2.3105,-2.3644,-2.4336,-2.3124,-2.3774,0.0,0.0,0.0,0.0,-2.8133,-2.9438,-3.0895,-3.2912,-3.4068,-3.5217,-3.6861,-3.7914,-3.854,-3.8566,-4.0079,-4.1568,-4.2519,-4.2949,-4.3027,-4.2695,-4.3262,-4.3437,-4.2715,-4.2969,-4.3027,-4.2676,-4.2187,-4.1894,-4.1894,-4.1445,-4.1191,-4.1191,-4.1191,-4.1191,-4.1191,-4.1191,-4.1191,-4.1211,-4.168,-4.207,-4.2422,-4.293,-4.3633,-4.4473,-4.4844,-4.5293,-4.5781,-4.6152,-4.6308,-4.6308,-4.6308,-4.6308,-4.6308,-4.6308,-4.6308,-4.6308,0.0,0.0,-2.5327,-2.5423,-2.5442,-2.5519,-2.5692,-2.5654,-2.5654,0.0,-2.5942,-2.6385,-2.7332,-2.8602,-2.88,-2.7294,-2.6909,-2.6365,-2.55,-2.5346,-2.5308,-2.5308,-2.5308,-2.5308,-2.5308,-2.5308,-2.4909,-2.411,-2.411,-2.3701,-2.2951,-2.3744,-2.3687,-2.299,-2.3744,-2.411,-2.411,-2.4302,-2.626,-2.9646,-3.4276,-3.6115,-3.6635,-4.1873,-4.3181,-4.2412,-4.3797,-4.3893,-4.322,-4.2162,-3.8604,-3.3898,-2.9761,-2.7852,-2.6678,-2.4101,-2.4543,-2.55,-2.3812,-2.4067,-2.5087,-2.6294,-2.5683,0.0,-2.8088,-2.8314,-2.8619,-3.0824,-3.1988,-3.3112,-3.4725,-3.5771,-3.6407,-3.6417,-3.7964,-3.9591,-4.0854,-4.1737,-4.1972,-4.1269,-4.2519,-4.2832,-4.1348,-4.1855,-4.1973,-4.125,-4.1191,-4.1191,-4.1191,-4.1191,-4.1191,-4.1191,-4.1191,-4.1191,-4.1191,-4.1191,-4.1191,-4.1191,-4.1191,-4.1562,-4.2266,-4.2266,-4.2734,-4.3594,-4.4375,-4.4824,-4.5058,-4.584,-4.6211,-4.6308,-4.6308,-4.6308,-4.6308,-4.6308,-4.6308,-4.6308,0.0,-2.5192,-2.5519,-2.6212,-2.6351,-2.6794,-2.814,-2.7813,-2.789,-2.9231,-3.0019,-3.1025,-3.2551,-3.1795,-3.1064,-3.0737,-2.8832,-2.7274,-2.6404,-2.5692,-2.5308,-2.5308,-2.5308,-2.5308,-2.5308,-2.5308,-2.4909,-2.411,-2.411,-2.4014,-2.386,-2.4014,-2.4014,-2.386,-2.4014,-2.411,-2.4187,-2.5548,-2.7678,-3.0288,-3.1987,-3.543,-3.965,-4.0804,-4.2747,-4.4806,-4.4432,-4.4643,-4.4767,-4.2547,-3.9777,-3.6622,-3.3045,-3.1352,-3.0198,-2.764,-2.8082,-2.9038,-2.7351,-2.8005,-2.875,-2.7024,-2.7909,0.0,-2.6519,-2.7012,-2.8067,-2.8536,-2.8795,-2.9448,-3.1102,-3.2133,-3.2743,-3.2811,-3.4809,-3.7217,-3.9588,-4.0695,-4.1205,-4.1069,-4.1422,-4.1562,-4.123,-4.1348,-4.1367,-4.1211,-4.1191,-4.1191,-4.1191,-4.1191,-4.1191,-4.1191,-4.1191,-4.1191,-4.1191,-4.1191,-4.1191,-4.1191,-4.1191,-4.1289,-4.1426,-4.1426,-4.1875,-4.2656,-4.2832,-4.3691,-4.5019,-4.5176,-4.5664,-4.6308,-4.6308,-4.6308,-4.6308,-4.6308,-4.6308,-4.6308,-2.5308,-2.5308,-2.5577,-2.6447,-2.6967,-2.7813,-2.9486,-2.941,-2.9756,-3.1423,-3.2769,-3.343,-3.3006,-3.2949,-3.2449,-3.1154,-2.9121,-2.7525,-2.6659,-2.5788,-2.5308,-2.5308,-2.5308,-2.5308,-2.5308,-2.5308,-2.5096,-2.4697,-2.4298,-2.3879,-2.3451,-2.3898,-2.411,-2.411,-2.411,-2.4567,-2.5356,-2.5356,-2.6813,-2.9486,-3.3314,-3.7103,-4.0689,-4.2382,-4.4113,-4.5537,-4.5114,-4.5229,-4.5133,-4.2162,-4.0296,-3.8584,-3.4757,-3.3564,-3.3,-3.0025,-3.0038,-3.0596,-2.8467,-2.8506,-2.8948,-2.8063,-2.8179,0.0,0.0,-2.6601,-2.6967,-2.8242,-2.7832,-2.7909,-3.0019,-3.041,-3.056,-3.1037,-3.2877,-3.4721,-3.6076,-3.8213,-3.965,-3.965,-3.9738,-3.9797,-3.9797,-3.9862,-4.0078,-4.0527,-4.0547,-4.0742,-4.1172,-4.1191,-4.1191,-4.1191,-4.1191,-4.1191,-4.1191,-4.1191,-4.1191,-4.1191,-4.1191,-4.1191,-4.1191,-4.1191,-4.1426,-4.1816,-4.2226,-4.2891,-4.3769,-4.4648,-4.5254,-4.5683,-4.6133,-4.6308,-4.6308,-4.6308,-4.6268,-4.62,-2.5308,-2.5308,-2.5577,-2.6447,-2.7313,-2.8467,-3.0135,-3.0404,-3.1115,-3.3141,-3.5045,-3.5558,-3.3833,-3.4564,-3.441,-3.25,-3.0217,-2.8506,-2.764,-2.6462,-2.5731,-2.5558,-2.5385,-2.5385,-2.5558,-2.5385,-2.5308,-2.5308,-2.449,-2.3744,-2.3067,-2.3764,-2.4014,-2.386,-2.4182,-2.5183,-2.6505,-2.5164,-2.6529,-3.0063,-3.5545,-3.8373,-3.9708,-4.344,-4.4883,-4.494,-4.5421,-4.5594,-4.5152,-4.2228,-4.1131,-4.0323,-3.6418,-3.5661,-3.5596,-3.2346,-3.2115,-3.2391,-3.0006,-2.9602,-2.9781,-2.9429,-2.8698,-2.7948,0.0,0.0,0.0,-2.8005,-2.7294,-2.6981,0.0,-2.8832,-2.8602,-2.9308,-3.0968,-3.2102,-3.1968,-3.4875,-3.716,-3.7509,-3.7754,-3.7964,-3.812,-3.8091,-3.8493,-3.953,-3.9315,-3.9668,-4.0879,-4.0957,-4.1035,-4.1191,-4.1191,-4.1191,-4.1191,-4.1191,-4.1191,-4.1191,-4.1191,-4.1191,-4.1191,-4.1191,-4.1191,-4.123,-4.1894,-4.2266,-4.2519,-4.3926,-4.4609,-4.4844,-4.5898,-4.6308,-4.6308,-4.6308,-4.6222,-4.6108,-2.5308,-2.5308,-2.5577,-2.6447,-2.7313,-2.8467,-3.0135,-3.0404,-3.1558,-3.4788,-3.7334,-3.9315,-4.0519,-3.9508,-3.89,-3.9323,-3.5045,-3.1987,-3.1179,-2.8909,-2.7255,-2.6486,-2.5712,-2.5654,-2.6447,-2.5692,-2.5308,-2.5308,-2.449,-2.4052,-2.3956,-2.4052,-2.3687,-2.3009,-2.4505,-2.5692,-2.6582,-2.6409,-2.9948,-3.5769,-3.6538,-3.6065,-3.5456,-4.0354,-4.2239,-4.2527,-4.4786,-4.5594,-4.5421,-4.4259,-4.3393,-4.2335,-3.9592,-3.8784,-3.8354,-3.5692,-3.6038,-3.6892,-3.5115,-3.5718,-3.5795,-3.1365,-3.1814,-3.1968,-2.6769,0.0,-2.7255,-2.5981,0.0,-2.5538,-2.5827,0.0,0.0,-2.5865,-2.7928,-2.928,-2.8569,-3.0777,-3.304,-3.4651,-3.558,-3.637,-3.7085,-3.6532,-3.6794,-3.8448,-3.719,-3.7435,-3.9922,-4.0059,-4.0391,-4.1172,-4.1191,-4.1191,-4.1191,-4.1191,-4.1191,-4.1191,-4.1191,-4.1191,-4.1191,-4.1191,-4.1191,-4.1211,-4.1308,-4.1738,-4.2422,-4.2617,-4.3144,-4.4004,-4.5664,-4.6308,-4.6308,-4.6308,-4.6222,-4.6108,-2.5308,-2.5308,-2.5577,-2.6447,-2.6909,-2.789,-3.0077,-3.2904,-3.5334,-3.6757,-3.9604,-4.1585,-4.1769,-4.0719,-4.0131,-4.0477,-3.718,-3.4545,-3.3237,-3.1237,-2.9717,-2.8846,-2.7038,-2.6467,-2.7332,-2.6,-2.5308,-2.5308,-2.449,-2.411,-2.411,-2.411,-2.4683,-2.5818,-2.6986,-2.8813,-3.0948,-2.9967,-3.1198,-3.3891,-3.4853,-3.4526,-3.4218,-4.1316,-4.3989,-4.4143,-4.5229,-4.5594,-4.5325,-4.347,-4.297,-4.2739,-4.065,-3.9996,-3.9688,-3.8161,-3.7853,-3.7623,-3.5962,-3.6346,-3.6392,-3.2756,-3.2295,-3.1718,-2.7717,-2.6601,-2.6467,-2.6755,0.0,0.0,0.0,0.0,0.0,0.0,-2.6948,-2.7525,-2.7198,-2.8506,-3.0136,-3.1871,-3.2452,-3.3073,-3.3954,-3.3746,-3.4266,-3.6004,-3.5485,-3.6036,-3.8214,-3.9268,-3.9995,-4.043,-4.0937,-4.1191,-4.1191,-4.1191,-4.1191,-4.1191,-4.1191,-4.1191,-4.1191,-4.1191,-4.1191,-4.1191,-4.1191,-4.1387,-4.1738,-4.2207,-4.2617,-4.3125,-4.4863,-4.5547,-4.5605,-4.6027,-4.6108,-4.5978,-2.5308,0.0,-2.55,-2.6135,-2.664,-2.789,-3.0654,-3.443,-3.7296,-3.8238,-4.0912,-4.2777,-4.2835,-4.2277,-4.2074,-4.2536,-4.0046,-3.7834,-3.6372,-3.4064,-3.2462,-3.1827,-2.9135,-2.7948,-2.8563,-2.6909,-2.5788,-2.5308,-2.449,-2.411,-2.411,-2.411,-2.5087,-2.6933,-2.8684,-3.1083,-3.3801,-3.3064,-3.3545,-3.4891,-3.5629,-3.611,-3.6969,-4.247,-4.4998,-4.5594,-4.5594,-4.5594,-4.5287,-4.3181,-4.2912,-4.3162,-4.1689,-4.1208,-4.1054,-4.0219,-3.97,-3.9027,-3.7334,-3.7462,-3.725,-3.3776,-3.2468,-3.1179,-2.7928,-2.6755,-2.6563,-2.7371,-2.7096,0.0,0.0,0.0,-2.6135,-2.6544,0.0,-2.6794,-2.6308,-2.6986,-2.8005,-2.9212,-2.9805,-3.0376,-3.1079,-3.093,-3.1624,-3.3612,-3.3323,-3.418,-3.6674,-3.7962,-3.8995,-3.9821,-4.0466,-4.0917,-4.1191,-4.1191,-4.1191,-4.1191,-4.1191,-4.1191,-4.1191,-4.1191,-4.1191,-4.1191,-4.1191,-4.1171,-4.1188,-4.1774,-4.1986,-4.2118,-4.3621,-4.4344,-4.4693,-4.5728,-4.6024,-4.5881,-2.5308,-2.5308,-2.5308,-2.5346,-2.6736,-2.8986,-3.2314,-3.366,-3.5514,-3.8823,-4.0777,-4.2777,-4.521,-4.546,-4.6086,-4.7721,-4.4816,-4.2508,-4.1615,-3.7673,-3.5365,-3.5346,-3.2096,-3.0288,-3.0327,-2.8679,-2.6986,-2.5308,-2.449,-2.411,-2.411,-2.411,-2.4149,-2.4399,-2.8525,-3.1327,-3.3045,-3.4673,-3.8231,-4.2585,-4.0958,-4.2266,-4.496,-4.2758,-4.3451,-4.5594,-4.5594,-4.5594,-4.546,-4.4528,-4.4239,-4.4124,-4.3278,-4.3028,-4.2854,-4.197,-4.2297,-4.2566,-4.0804,-4.0969,-4.0231,-3.4353,-3.2872,-3.1545,-2.6538,-2.7255,-2.853,-2.6967,-2.8558,-2.975,-2.8179,-2.7857,-2.7544,-2.6736,-2.7313,0.0,0.0,-2.6096,-2.6659,-2.6717,-2.8165,-2.9157,-2.9182,-2.8489,-2.9095,-3.1683,-3.0377,-3.1324,-3.5626,-3.5901,-3.7086,-3.9637,-3.9735,-4.022,-4.1191,-4.1191,-4.1191,-4.1191,-4.1191,-4.1191,-4.1191,-4.1191,-4.1191,-4.1191,-4.1191,-4.1127,-4.1017,-4.1037,-4.0964,-4.0945,-4.1848,-4.2704,-4.3666,-4.5443,-4.6024,-4.5881,-2.6154,0.0,-2.6659,-2.55,-2.625,-2.8563,-3.3064,-3.5937,-3.8784,-4.2162,-4.3605,-4.5278,-4.7836,-4.7605,-4.7702,-4.8856,-4.7394,-4.5566,-4.3585,-4.1623,-4.0008,-3.8854,-3.5577,-3.3788,-3.3788,-3.1,-2.8717,-2.7024,-2.6178,-2.5755,-2.5736,-2.5159,-2.5505,-2.6741,-2.9871,-3.2808,-3.5526,-3.7276,-3.9315,-4.1324,-4.0746,-4.2555,-4.5518,-4.4643,-4.4863,-4.5594,-4.5594,-4.5594,-4.5556,-4.5267,-4.4778,-4.4355,-4.4662,-4.3989,-4.3143,-4.3374,-4.3297,-4.297,-4.2374,-4.2816,-4.2297,-3.7488,-3.5449,-3.3423,-2.8852,-2.8472,-2.8626,-2.6948,-2.8635,-2.9885,-2.8217,-2.7895,-2.7601,-2.6736,-2.6851,-2.664,0.0,-2.5558,-2.5731,-2.5731,-2.6755,0.0,-2.7448,-2.7198,-2.7878,-2.9862,-2.9481,-3.0322,-3.3002,-3.4749,-3.6351,-3.7879,-3.9029,-4.0051,-4.0928,-4.1023,-4.1023,-4.0947,-4.1025,-4.1023,-4.0947,-4.0947,-4.0947,-4.0947,-4.0947,-4.0914,-4.0867,-4.0867,-4.085,-4.0894,-4.1758,-4.2634,-4.3521,-4.4632,-4.5384,-4.582,-2.7121,-2.7505,-2.7544,-2.6428,-2.7678,-3.0352,-3.4853,-3.818,-4.1393,-4.4778,-4.5951,-4.7451,-5.001,-4.9798,-4.9683,-5.024,-4.951,-4.8067,-4.5797,-4.4605,-4.3355,-4.192,-3.9219,-3.7462,-3.6853,-3.4096,-3.1519,-2.9256,-2.839,-2.7659,-2.7044,-2.6173,-2.6524,-2.8011,-3.0564,-3.3564,-3.6846,-3.92,-4.1008,-4.2305,-4.2305,-4.3632,-4.5594,-4.5594,-4.5594,-4.5594,-4.5594,-4.5594,-4.5594,-4.5594,-4.5229,-4.4855,-4.5421,-4.4863,-4.4028,-4.4239,-4.4143,-4.3855,-4.3258,-4.3682,-4.3355,-3.9431,-3.7642,-3.5661,-3.1064,-3.0737,-3.0814,-2.8813,-2.9942,-3.1154,-3.0698,-2.9352,-2.8236,-2.7986,-2.7198,-2.6288,0.0,-2.5308,-2.5308,-2.5308,0.0,0.0,0.0,-2.589,-2.6409,-2.8082,-2.8203,-2.9117,-3.1197,-3.3425,-3.535,-3.6927,-3.8345,-3.9645,-4.0797,-4.0899,-4.0899,-4.0801,-4.0899,-4.0877,-4.0797,-4.0797,-4.0797,-4.0797,-4.0797,-4.0796,-4.0757,-4.0757,-4.0733,-4.0751,-4.1318,-4.225,-4.3383,-4.4194,-4.5027,-4.5723,-2.8165,-2.8165,-2.8299,-2.8396,-3.0929,-3.4141,-3.7642,-4.0277,-4.3115,-4.6558,-4.774,-4.9183,-5.1692,-5.1962,-5.1962,-5.1962,-5.1221,-5.0029,-4.8336,-4.6701,-4.5402,-4.4528,-4.2874,-4.1219,-3.9592,-3.7719,-3.5154,-3.1891,-3.0885,-2.9558,0.0,0.0,0.0,0.0,-3.0544,0.0,-3.6788,-4.0269,-4.3239,-4.5594,-4.5594,-4.5594,-4.5594,-4.5594,-4.5594,-4.5594,-4.5594,-4.5594,-4.5594,-4.5594,-4.5594,-4.5594,-4.5594,-4.5594,-4.5441,-4.4605,-4.496,-4.5248,-4.3662,-4.3778,-4.3585,-4.0362,-3.9457,-3.8092,-3.3199,-3.3942,-3.4981,-3.2468,-3.2622,-3.368,-3.5154,-3.2064,-2.9506,-3.0173,-2.8173,-2.625,-2.5423,-2.5308,-2.5327,-2.5365,0.0,0.0,0.0,-2.4548,-2.4779,-2.6409,-2.6582,-2.7692,-3.0192,-3.1929,-3.4056,-3.6681,-3.7688,-3.901,-4.0703,-4.077,-4.0789,-4.0781,-4.0789,-4.0789,-4.0781,-4.0781,-4.0781,-4.0781,-4.0781,-4.0757,-4.0686,-4.0686,-4.0616,-4.0496,-4.0496,-4.1574,-4.3225,-4.42,-4.5,-4.5594,-2.9808,-3.1808,-3.3949,-3.5199,-3.4545,-3.543,-4.0104,-4.1931,-4.422,-4.8221,-4.949,-5.076,-5.2664,-5.2876,-5.2876,-5.2876,-5.2087,-5.1144,-5.0087,-4.9009,-4.8029,-4.7163,-4.5509,-4.4124,-4.3028,-3.9508,-3.6642,-3.4519,-3.175,-2.9852,-2.878,0.0,0.0,0.0,0.0,-3.2872,-3.5103,-3.9123,-4.2689,-4.5594,-4.5594,-4.5594,-4.5594,-4.5594,-4.5594,-4.5594,-4.5594,-4.5594,-4.5594,-4.5594,-4.5594,-4.5594,-4.5594,-4.5594,-4.5556,-4.5325,-4.5421,-4.5518,-4.5075,-4.5114,-4.4902,-4.3393,-4.1593,-3.9688,-3.7784,-3.7853,-3.7777,-3.5815,-3.6603,-3.7007,-3.4911,-3.3103,-3.1179,-2.8909,-2.6909,-2.5558,-2.5327,-2.5308,-2.5538,-2.6192,0.0,0.0,0.0,-2.4221,-2.4529,-2.5558,-2.6231,-2.7428,-2.9333,-3.1064,-3.2897,-3.4834,-3.6954,-3.8568,-3.9676,-4.0374,-4.0684,-4.0584,-4.0684,-4.0659,-4.0584,-4.0584,-4.0584,-4.0584,-4.0584,-4.0575,-4.0552,-4.0552,-4.0523,-4.0496,-4.0496,-4.1574,-4.3286,-4.4768,-4.5434,-4.5594,-3.2635,-3.5365,-3.8104,-3.9431,-3.9084,-3.97,-4.2951,-4.4201,-4.6009,-4.951,-5.0702,-5.1722,-5.3068,-5.3857,-5.4145,-5.3799,-5.3318,-5.2529,-5.1298,-5.0779,-4.9952,-4.8721,-4.7759,-4.6682,-4.547,-4.2354,-3.9565,-3.7161,-3.3737,-3.1237,-2.9621,0.0,0.0,0.0,0.0,-3.2487,-3.5084,-4.0065,-4.3498,-4.5594,-4.5594,-4.5594,0.0,-4.5594,-4.5594,-4.5594,-4.5594,-4.5594,-4.5594,-4.5594,-4.5594,-4.5594,-4.5594,-4.5594,-4.5594,-4.5594,-4.5594,-4.5594,-4.5594,-4.5594,-4.5479,-4.4998,-4.3786,-4.2324,-4.0758,-4.0392,-4.0008,-3.8642,-3.8257,-3.8027,-3.7603,-3.4699,-3.1275,-2.7871,-2.6505,-2.5731,-2.5346,-2.5308,0.0,0.0,-2.5293,-2.4601,-2.4149,-2.411,-2.4125,-2.4197,-2.5346,-2.6442,-2.739,-3.016,-3.2295,-3.3583,-3.6469,-3.8411,-3.9284,-4.0176,-4.0561,-4.0496,-4.0581,-4.0581,-4.0496,-4.0496,-4.0496,-4.0496,-4.0496,-4.0496,-4.0496,-4.0496,-4.0496,-4.0573,-4.1343,-4.2239,-4.3297,-4.4979,-4.5594,-4.5594,-3.6135,-3.8777,-4.1247,-4.2008,-4.3605,-4.5124,-4.6114,-4.6913,-4.8279,-5.0702,-5.1837,-5.2692,-5.3433,-5.4838,-5.5415,-5.4722,-5.4549,-5.3857,-5.2327,-5.2135,-5.1365,-4.9798,-4.9625,-4.8779,-4.7077,-4.5259,-4.2662,-3.9304,-3.5879,-3.2833,0.0,0.0,0.0,0.0,0.0,0.0,0.0,-4.17,-4.4605,-4.5594,-4.5594,-4.5594,-4.5594,-4.5594,-4.5594,-4.5594,-4.5594,-4.5594,-4.5594,-4.5594,-4.5594,-4.5594,-4.5594,-4.5594,-4.5594,-4.5594,-4.5594,-4.5594,-4.5594,-4.5594,-4.5594,-4.5594,-4.5594,-4.5017,-4.2797,-4.2297,-4.2085,-4.1324,-3.9238,-3.8385,-4.1123,-3.6372,-3.0948,-2.764,-2.7005,-2.6697,-2.6058,-2.5673,0.0,0.0,-2.4986,0.0,-2.4259,-2.4168,-2.3783,-2.3028,-2.4423,-2.5404,-2.5635,-2.9275,-3.1833,-3.2872,-3.6103,-3.8257,-3.913,-4.0035,-4.0496,-4.0496,-4.0496,-4.0496,-4.0496,-4.0496,-4.0496,-4.0496,-4.0496,-4.0496,-4.0496,-4.0496,-4.0573,-4.0823,-4.245,-4.3162,-4.3451,-4.5017,-4.5594,-4.5594,-3.9496,-4.1777,-4.3682,-4.3835,-4.5836,-4.7971,-4.9558,-4.9942,-5.0683,-5.2529,-5.4087,-5.5088,-5.5241,-5.5511,-5.5645,-5.5491,-5.4876,-5.4376,-5.4068,-5.3376,-5.2529,-5.15,-5.0837,-4.9663,-4.7932,-4.5528,-4.2662,-3.9304,-3.5879,-3.2532,-2.93,-2.8179,0.0,0.0,0.0,0.0,-3.8796,-4.1219,-4.3547,-4.5594,-4.5594,-4.5594,-4.5594,-4.5594,-4.5594,-4.5594,-4.5594,-4.5594,-4.5594,-4.5594,-4.5594,-4.5594,-4.5594,-4.5594,-4.5594,-4.5594,-4.5594,-4.5594,-4.5594,-4.5594,-4.5594,-4.5594,-4.5594,-4.5479,-4.5037,-4.494,-4.4902,-4.4748,-4.3239,-4.172,-4.0881,-3.6918,-3.2872,-3.0173,-2.9121,-2.8852,-2.9423,-2.7692,0.0,0.0,0.0,-2.589,-2.5154,-2.449,-2.4033,-2.3879,-2.4755,-2.5923,-2.7371,-2.88,-3.0583,-3.2833,-3.5526,-3.7353,-3.8219,-3.9746,-4.0496,-4.0496,-4.0496,-4.0496,-4.0496,-4.0496,-4.0496,-4.0496,-4.0496,-4.0496,-4.0496,-4.0496,-4.0912,-4.1681,-4.2701,-4.3508,-4.4201,-4.5229,-4.5594,-4.5594,-4.3643,-4.5143,-4.6413,-4.6874,-4.8682,-5.051,-5.1798,-5.2722,-5.326,-5.3222,-5.3895,-5.4395,-5.4395,-5.5184,-5.5703,-5.5703,-5.5338,-5.5126,-5.5126,-5.4337,-5.3683,-5.328,-5.201,-5.0721,-4.9471,-4.6951,-4.3989,-4.0604,-3.6757,-3.3122,-2.9756,-2.8486,-2.7428,-2.6794,0.0,-3.5603,0.0,-4.2181,-4.4066,-4.5594,-4.5594,-4.5594,-4.5594,-4.5594,-4.5594,-4.5594,-4.5594,-4.5594,-4.5594,-4.5594,-4.5594,-4.5594,-4.5594,-4.5594,-4.5594,-4.5594,-4.5594,-4.5594,-4.5594,-4.5594,-4.5594,-4.5594,-4.5594,-4.5594,-4.5594,-4.5594,-4.5594,-4.5594,-4.4259,-4.2297,-3.9681,-3.6834,-3.4314,-3.2641,-3.091,-3.0083,-3.0942,-2.9236,-2.8044,0.0,0.0,0.0,-2.5385,-2.4947,-2.4351,-2.349,-2.4601,-2.5673,-2.6505,-2.8159,-3.0088,-3.2218,-3.5154,-3.7123,-3.7988,-3.9669,-4.0496,-4.0496,-4.0496,-4.0496,-4.0496,-4.0496,-4.0496,-4.0496,-4.0496,-4.0496,-4.0535,-4.0989,-4.1431,-4.1923,-4.322,-4.3951,-4.4412,-4.5287,-4.5594,-4.5594,-4.7298,-4.824,-4.9125,-4.9817,-5.1471,-5.2953,-5.3626,-5.5164,-5.5645,-5.3953,-5.3741,-5.3741,-5.3741,-5.4914,-5.5703,-5.5703,-5.5703,-5.5703,-5.5703,-5.5107,-5.4684,-5.4511,-5.3183,-5.1895,-5.0731,-4.8721,-4.5855,-4.2085,-3.8365,-3.4731,-3.1173,-2.9486,-2.8525,-2.8448,-3.3692,-3.7796,-4.092,-4.3104,-4.4643,-4.5594,-4.5594,-4.5594,-4.5594,-4.5594,-4.5594,-4.5594,-4.5594,-4.5594,-4.5594,-4.5594,-4.5594,-4.5594,-4.5594,-4.5594,-4.5594,-4.5594,-4.5594,-4.5594,-4.5594,-4.5594,-4.5594,-4.5594,-4.5594,-4.5594,-4.5594,-4.5594,-4.5594,-4.5594,-4.4259,-4.2066,-3.8623,-3.7219,-3.6045,-3.4456,-3.2679,-3.1654,-3.216,-3.0583,-2.9198,0.0,0.0,0.0,-2.5654,-2.525,-2.4505,-2.3182,-2.4462,-2.5462,-2.5827,-2.7582,-2.9448,-3.1371,-3.4507,-3.6584,-3.7469,-3.9477,-4.0496,-4.0496,-4.0496,-4.0496,-4.0496,-4.0496,-4.0496,-4.0496,-4.0496,-4.0612,-4.0843,-4.172,-4.2181,-4.247,-4.3778,-4.4412,-4.4662,-4.5344,-4.5594,-4.5594,-4.9144,-5.0452,-5.1577,-5.1654,-5.3703,-5.5376,-5.5453,-5.6934,-5.7434,-5.5684,-5.5472,-5.5472,-5.5472,-5.5607,-5.5703,-5.5703,-5.5703,-5.5703,-5.5703,-5.5626,-5.5261,-5.453,-5.4337,-5.3145,-5.075,-5.0481,-4.7913,-4.2989,-4.0989,-3.7918,-3.3821,-3.2122,-3.2102,-3.3609,-3.6488,-3.9219,-4.1758,-4.2777,-4.4143,-4.5594,-4.5594,-4.5594,-4.5594,-4.5594,-4.5594,-4.5594,-4.5594,-4.5594,-4.5594,-4.5594,-4.5594,-4.5594,-4.5594,-4.5594,-4.5594,-4.5594,-4.5594,-4.5594,-4.5594,-4.5594,-4.5594,-4.5594,-4.5594,-4.5594,-4.5594,-4.5594,-4.5594,-4.5594,-4.4259,-4.2066,-3.8623,-3.9104,-3.8746,-3.484,-3.4661,-3.4769,-3.4071,-3.1833,-3.0538,-3.1256,0.0,0.0,-2.6563,-2.5106,-2.4149,-2.3995,-2.4793,-2.5981,-2.7563,-2.7121,-2.7967,-3.0442,-3.3064,-3.4853,-3.5731,-3.8892,-4.0496,-4.0496,-4.0496,-4.0496,-4.0496,-4.0496,-4.0496,-4.0496,-4.0496,-4.095,-4.1758,-4.2624,-4.3412,-4.4085,-4.4239,-4.4778,-4.5498,-4.5575,-4.5594,-4.5594,-5.3183,-5.3337,-5.378,-5.478,-5.5376,-5.6049,-5.7107,-5.7857,-5.805,-5.7357,-5.7261,-5.7049,-5.6541,-5.6483,-5.6272,-5.5742,-5.5703,-5.5703,-5.5703,-5.5703,-5.5549,-5.5222,-5.4761,-5.401,-5.2991,-5.1481,-4.8952,-4.5374,-4.3143,-4.0142,-3.6469,-3.5795,-3.6122,-3.738,-3.9912,-4.1893,-4.3412,-4.5297,-4.649,-4.7105,-4.7105,-4.7105,-4.7105,-4.7105,-4.7105,-4.7048,-4.6547,-4.6374,-4.6297,-4.5787,-4.5594,-4.5594,-4.5594,-4.5594,-4.5594,-4.5594,-4.5594,-4.5594,-4.5594,-4.5594,-4.5594,-4.5594,-4.5594,-4.5594,-4.5594,-4.5594,-4.5594,-4.5594,-4.4259,-4.2354,-3.995,-3.9219,-3.8784,-3.8092,-3.6584,-3.5731,-3.6392,-3.3833,-3.1852,-3.1718,0.0,-2.7563,-2.6678,-2.5087,-2.4509,-2.5529,-2.4971,-2.5082,-2.6274,-2.7005,-2.8313,-3.0346,-3.3385,-3.5391,-3.6212,-3.9065,-4.0496,-4.0496,-4.0496,-4.0496,-4.0496,-4.0496,-4.0785,-4.1277,-4.1277,-4.1777,-4.2643,-4.3489,-4.4008,-4.4355,-4.4874,-4.5287,-4.5594,-4.5594,-4.5594,-4.5594,-5.603,-5.5818,-5.6069,-5.7492,-5.7434,-5.7607,-5.8858,-5.905,-5.905,-5.905,-5.905,-5.8607,-5.7492,-5.7376,-5.703,-5.6145,-5.6069,-5.5972,-5.5722,-5.5703,-5.5703,-5.5703,-5.5164,-5.4741,-5.4511,-5.2741,-5.0567,-4.8029,-4.5951,-4.3335,-4.0219,-3.9969,-4.0315,-4.1247,-4.3297,-4.4662,-4.5547,-4.7336,-4.8105,-4.8105,-4.8105,-4.8105,-4.8105,-4.8105,-4.8105,-4.8029,-4.7471,-4.725,-4.7124,-4.6259,-4.597,-4.5932,-4.5691,-4.5594,-4.5594,-4.5594,-4.5594,-4.5594,-4.5594,-4.5594,-4.5594,-4.5594,-4.5594,-4.5594,-4.5594,-4.5594,-4.546,-4.4979,-4.3912,-4.2566,-4.0823,-3.9534,-3.895,-3.965,-3.7777,-3.6481,-3.718,-3.4757,-3.2602,-3.1795,-2.9448,-2.7563,-2.6678,-2.5293,-2.5043,-2.6486,-2.5741,-2.5568,-2.6365,-2.7351,-2.8794,-3.0712,-3.3846,-3.5885,-3.6692,-3.9219,-4.0496,-4.0496,-4.0496,-4.0496,-4.0516,-4.0766,-4.1219,-4.1827,-4.2316,-4.2874,-4.3528,-4.4335,-4.4682,-4.4739,-4.5364,-4.5594,-4.5594,-4.5594,-4.5594,-4.5594,-5.683,-5.7665,-5.8511,-5.9338,-6.0165,-6.0742,-6.0762,-6.0762,-6.0762,-6.0762,-6.0762,-6.0146,-5.8473,-5.828,-5.7934,-5.706,-5.6973,-5.6626,-5.5761,-5.5703,-5.5703,-5.5703,-5.5684,-5.5299,-5.4511,-5.4472,-5.3203,-5.0654,-4.976,-4.8009,-4.5498,-4.4624,-4.4682,-4.5556,-4.6471,-4.7298,-4.8067,-4.8086,-4.8105,-4.8105,-4.8105,-4.8105,-4.8105,-4.8105,-4.8105,-4.8105,-4.8086,-4.8086,-4.7971,-4.7163,-4.6885,-4.674,-4.5874,-4.5594,-4.5594,-4.5594,-4.5594,-4.5594,-4.5594,-4.5594,-4.5594,-4.5594,-4.5594,-4.5594,-4.5594,-4.5594,-4.5133,-4.347,-4.3104,-4.2566,-4.0823,-4.0477,-3.9938,-3.8296,-3.8007,-3.7411,-3.575,-3.4007,-3.2602,-3.1795,-2.9448,-2.7563,-2.6678,-2.5808,-2.5654,-2.6524,-2.7371,-2.8203,-2.9011,-2.8319,-2.9063,-3.1602,-3.4173,-3.5885,-3.6692,-3.9219,-4.0496,-4.0496,-4.0496,-4.0496,-4.0535,-4.1393,-4.1788,-4.1885,-4.3547,-4.4278,-4.4355,-4.5229,-4.5575,-4.5594,-4.5594,-4.5594,-4.5594,-4.5594,-4.5594,-4.5594,-5.9531,-5.98,-6.0089,-6.0339,-6.0608,-6.08,-6.08,-6.08,-6.08,-6.08,-6.08,-6.0589,-6.005,-5.9473,-5.88,-5.7953,-5.7896,-5.753,-5.6637,-5.6599,-5.6329,-5.5722,-5.5703,-5.5568,-5.5318,-5.478,-5.3818,-5.2395,-5.1529,-5.0106,-4.8163,-4.7298,-4.7048,-4.7336,-4.8221,-4.8759,-4.9029,-4.9625,-4.9875,-4.9875,-4.9875,-4.9875,-4.9875,-4.9875,-4.9875,-4.9779,-4.9202,-4.899,-4.8856,-4.8009,-4.7721,-4.7682,-4.7394,-4.6509,-4.5594,-4.5594,-4.5594,-4.5594,-4.5594,-4.5594,-4.5594,-4.5594,-4.5594,-4.5594,-4.5594,-4.5594,-4.5287,-4.4143,-4.347,-4.2758,-4.1604,-4.0893,-4.0323,-3.9785,-3.8738,-3.7603,-3.6481,-3.4353,-3.2602,-3.1795,-2.9929,-2.8607,-2.8338,-2.7563,-2.7198,-2.7467,-2.7198,-2.7371,-2.8242,-2.9698,-3.0852,-3.1679,-3.4692,-3.6731,-3.7584,-3.9515,-4.0496,-4.0496,-4.0496,-4.0804,-4.1412,-4.2297,-4.2989,-4.3528,-4.4066,-4.4643,-4.521,-4.5498,-4.5594,-4.5594,-4.5594,-4.5594,-4.5594,-4.5594,-4.5594,-4.5594,-6.08,-6.08,-6.08,-6.08,-6.08,-6.08,-6.08,-6.08,-6.08,-6.08,-6.08,-6.08,-6.08,-6.03,-5.9646,-5.8819,-5.8761,-5.8396,-5.753,-5.7492,-5.7088,-5.6233,-5.6195,-5.603,-5.5703,-5.5203,-5.453,-5.3683,-5.2818,-5.1856,-5.0818,-5.0279,-4.9837,-4.9538,-5.0106,-5.0164,-4.9913,-5.0481,-5.0712,-5.0712,-5.0712,-5.0712,-5.0712,-5.0712,-5.0712,-5.0635,-5.0067,-4.9894,-4.976,-4.8875,-4.8586,-4.8529,-4.8202,-4.7375,-4.6471,-4.6182,-4.5864,-4.5594,-4.5594,-4.5594,-4.5594,-4.5594,-4.5594,-4.5594,-4.5594,-4.5594,-4.5344,-4.447,-4.3662,-4.2835,-4.1962,-4.1085,-4.0496,-4.0496,-3.9084,-3.77,-3.6827,-3.4507,-3.2602,-3.1795,-3.0448,-2.9583,-2.9583,-2.9429,-2.9448,-2.9756,-2.989,-3.0044,-3.0262,-3.1179,-3.2275,-3.3545,-3.6238,-3.8084,-3.8931,-3.9977,-4.0496,-4.0496,-4.0835,-4.1431,-4.2316,-4.3162,-4.3816,-4.4316,-4.4643,-4.5094,-4.5594,-4.5594,-4.5594,-4.5594,-4.5594,-4.5594,-4.5594,-4.5594,-4.5594,-4.5594,-6.08,-6.08,-6.08,-6.08,-6.08,-6.08,-6.08,-6.08,-6.08,-6.08,-6.08,-6.08,-6.08,-6.08,-6.0473,-5.9665,-5.9588,-5.9261,-5.8434,-5.8377,-5.7992,-5.7137,-5.7099,-5.6676,-5.5799,-5.578,-5.5395,-5.4587,-5.3703,-5.3299,-5.3299,-5.3241,-5.2779,-5.1981,-5.1981,-5.1568,-5.0866,-5.0866,-5.0866,-5.0866,-5.0866,-5.0846,-5.0789,-5.0789,-5.075,-5.0712,-5.0712,-5.0712,-5.0577,-4.976,-4.949,-4.9356,-4.8548,-4.824,-4.8029,-4.7154,-4.6336,-4.5691,-4.5614,-4.5594,-4.5594,-4.5594,-4.5594,-4.5594,-4.5594,-4.5594,-4.5364,-4.4566,-4.3739,-4.2912,-4.2038,-4.1181,-4.0554,-4.0439,-3.9065,-3.768,-3.675,-3.4526,-3.2699,-3.1891,-3.1115,-3.0654,-3.0654,-3.1442,-3.2256,-3.2949,-3.4481,-3.5084,-3.434,-3.2852,-3.3487,-3.6596,-3.8392,-3.9688,-4.0496,-4.0496,-4.0535,-4.0593,-4.1527,-4.2412,-4.3201,-4.4028,-4.4393,-4.4432,-4.5248,-4.5594,-4.5594,-4.5594,-4.5594,-4.5594,-4.5594,-4.5594,-4.5594,-4.5594,-4.5594,-4.5594,-6.08,-6.08,-6.08,-6.08,-6.08,-6.08,-6.08,-6.08,-6.08,-6.08,-6.08,-6.08,-6.08,-6.08,-6.0723,-6.0512,-6.0492,-6.0127,-5.9281,-5.9223,-5.8858,-5.803,-5.7992,-5.7569,-5.6714,-5.6695,-5.6272,-5.5415,-5.4587,-5.4184,-5.4184,-5.351,-5.3087,-5.2895,-5.2895,-5.2799,-5.2606,-5.2606,-5.2606,-5.2606,-5.2606,-5.2222,-5.1625,-5.1625,-5.1221,-5.0712,-5.0712,-5.0712,-5.0673,-5.0462,-5.0385,-5.0366,-5.0144,-4.9625,-4.8798,-4.7336,-4.6759,-4.6451,-4.5787,-4.5594,-4.5594,-4.5594,-4.5594,-4.5594,-4.5594,-4.5594,-4.5537,-4.5325,-4.4605,-4.3778,-4.2931,-4.2085,-4.1066,-3.9785,-3.8681,-3.7488,-3.5981,-3.4699,-3.3564,-3.2718,-3.3026,-3.3295,-3.3295,-3.4083,-3.441,-3.3936,-3.4276,-3.4718,-3.5173,-3.5404,-3.5885,-3.6673,-3.8392,-3.9688,-4.0496,-4.0496,-4.0835,-4.1508,-4.3008,-4.3816,-4.4047,-4.4893,-4.5287,-4.5306,-4.5518,-4.5594,-4.5594,-4.5594,-4.5594,-4.5594,-4.5594,-4.5594,-4.5594,-4.5594,-4.5594,-4.5594,-6.08,-6.08,-6.08,-6.08,-6.08,-6.08,-6.08,-6.08,-6.08,-6.08,-6.08,-6.08,-6.08,-6.08,-6.08,-6.08,-6.08,-6.0589,-6.0127,-6.0089,-5.9723,-5.8877,-5.8858,-5.8454,-5.7607,-5.7214,-5.6579,-5.5703,-5.5261,-5.5049,-5.503,-5.4568,-5.4145,-5.3799,-5.3799,-5.3568,-5.3203,-5.3203,-5.3203,-5.3203,-5.3203,-5.2933,-5.2481,-5.2481,-5.1991,-5.1241,-5.1241,-5.101,-5.0712,-5.0712,-5.0712,-5.0712,-5.0712,-5.0385,-4.974,-4.8432,-4.7509,-4.6797,-4.6317,-4.5893,-4.5594,-4.5594,-4.5594,-4.5594,-4.5594,-4.5594,-4.5594,-4.5594,-4.4921,-4.4047,-4.3258,-4.2393,-4.1258,-3.9573,-3.8565,-3.7411,-3.5731,-3.4757,-3.416,-3.4103,-3.4507,-3.5103,-3.5853,-3.6372,-3.6449,-3.5968,-3.6322,-3.6565,-3.6642,-3.7777,-3.8277,-3.7892,-3.9161,-4.0246,-4.1085,-4.1489,-4.2104,-4.2951,-4.3874,-4.4509,-4.4913,-4.5383,-4.5594,-4.5594,-4.5594,-4.5594,-4.5594,-4.5594,-4.5594,-4.5594,-4.5594,-4.5594,-4.5594,-4.5594,-4.5594,-4.5594,-6.08,-6.08,-6.08,-6.08,-6.08,-6.08,-6.08,-6.08,-6.08,-6.08,-6.08,-6.08,-6.08,-6.08,-6.08,-6.08,-6.08,-6.08,-6.08,-6.08,-6.0473,-5.9723,-5.9704,-5.9319,-5.8511,-5.7627,-5.6772,-5.5895,-5.5895,-5.5818,-5.5703,-5.5703,-5.5338,-5.4684,-5.4684,-5.426,-5.3587,-5.3587,-5.3587,-5.3587,-5.3587,-5.351,-5.3395,-5.3395,-5.2856,-5.2096,-5.2096,-5.1568,-5.0875,-5.0875,-5.0808,-5.0712,-5.0712,-5.0712,-5.0558,-4.9798,-4.8509,-4.7221,-4.6962,-4.6259,-4.5594,-4.5594,-4.5594,-4.5594,-4.5594,-4.5594,-4.5594,-4.5594,-4.5017,-4.4239,-4.3431,-4.2585,-4.1412,-3.9592,-3.8681,-3.7565,-3.575,-3.5084,-3.5007,-3.5615,-3.5904,-3.6635,-3.8065,-3.82,-3.8257,-3.8373,-3.895,-3.9034,-3.8411,-3.9854,-4.0381,-3.97,-4.0342,-4.1104,-4.1981,-4.2854,-4.3624,-4.4297,-4.4432,-4.4874,-4.5594,-4.5594,-4.5594,-4.5594,-4.5594,-4.5594,-4.5594,-4.5594,-4.5594,-4.5594,-4.5594,-4.5594,-4.5594,-4.5594,-4.5594,-4.5594,-6.08,-6.08,-6.08,-6.08,-6.08,-6.08,-6.08,-6.08,-6.08,-6.08,-6.08,-6.08,-6.08,-6.08,-6.08,-6.08,-6.08,-6.08,-6.08,-6.08,-6.0742,-6.0589,-6.0589,-6.0204,-5.9338,-5.8531,-5.7665,-5.681,-5.681,-5.6426,-5.5703,-5.5703,-5.5626,-5.5511,-5.5511,-5.5434,-5.5299,-5.5299,-5.5299,-5.5299,-5.5299,-5.4895,-5.4299,-5.4299,-5.376,-5.301,-5.301,-5.2452,-5.1712,-5.1712,-5.126,-5.0712,-5.0712,-5.0712,-5.0673,-5.0539,-4.9779,-4.8702,-4.7278,-4.6259,-4.5594,-4.5594,-4.5594,-4.5594,-4.5594,-4.5594,-4.5594,-4.5594,-4.5498,-4.5152,-4.4259,-4.3451,-4.2104,-3.9688,-3.9188,-3.8257,-3.5846,-3.6603,-3.7199,-3.6596,-3.7815,-3.8815,-3.9073,-3.9111,-3.9381,-4.0054,-3.9611,-3.9534,-4.0073,-4.1066,-4.1546,-4.1431,-4.1527,-4.2027,-4.2893,-4.3701,-4.4182,-4.4316,-4.5056,-4.5479,-4.5594,-4.5594,-4.5594,-4.5594,-4.5594,-4.5594,-4.5594,-4.5594,-4.5594,-4.5594,-4.5594,-4.5594,-4.5594,-4.5594,-4.5594,-4.5594,-6.08,-6.08,-6.08,-6.08,-6.08,-6.08,-6.08,-6.08,-6.08,-6.08,-6.08,-6.08,-6.08,-6.08,-6.08,-6.08,-6.08,-6.08,-6.08,-6.08,-6.08,-6.08,-6.08,-6.0396,-5.9511,-5.9146,-5.855,-5.7703,-5.7703,-5.7242,-5.6406,-5.6406,-5.6156,-5.5703,-5.5703,-5.5703,-5.5703,-5.5703,-5.5703,-5.5703,-5.5703,-5.5472,-5.5145,-5.5145,-5.4626,-5.3895,-5.3895,-5.3337,-5.2519,-5.2058,-5.1654,-5.123,-5.0585,-5.0388,-5.0388,-5.0388,-4.9919,-4.9029,-4.7355,-4.6605,-4.6182,-4.5729,-4.5594,-4.5594,-4.5594,-4.5594,-4.5594,-4.5594,-4.5594,-4.5325,-4.4451,-4.3643,-4.2566,-4.0912,-3.9892,-3.89,-3.7719,-3.7815,-3.8027,-3.8084,-3.8815,-3.9477,-3.99,-4.0373,-4.0796,-4.1162,-4.1296,-4.1508,-4.1873,-4.2277,-4.2701,-4.3124,-4.3143,-4.3335,-4.3739,-4.4586,-4.4998,-4.5017,-4.5421,-4.5594,-4.5594,-4.5594,-4.5594,-4.5594,-4.5594,-4.5594,-4.5594,-4.5594,-4.5594,-4.5594,-4.5594,-4.5594,-4.5594,-4.5594,-4.5594,-4.5594,-6.0482,-6.0482,-6.0508,-6.0622,-6.0553,-6.0508,-6.0622,-6.0553,-6.0482,-6.0482,-6.0565,-6.0634,-6.0634,-6.0634,-6.069,-6.08,-6.0702,-6.069,-6.08,-6.08,-6.08,-6.08,-6.08,-6.0492,-5.9819,-5.98,-5.9396,-5.8588,-5.8469,-5.7973,-5.714,-5.6929,-5.6487,-5.5834,-5.5728,-5.5703,-5.5703,-5.5703,-5.5703,-5.5703,-5.5703,-5.5703,-5.5703,-5.5703,-5.5318,-5.478,-5.478,-5.4222,-5.3395,-5.2731,-5.2365,-5.1998,-5.0753,-5.0378,-5.0328,-5.0044,-4.9771,-4.9259,-4.7856,-4.7201,-4.6722,-4.5946,-4.562,-4.5485,-4.5485,-4.5485,-4.5504,-4.5577,-4.5594,-4.5402,-4.472,-4.3932,-4.3104,-4.2239,-4.1027,-4.0035,-3.965,-3.9354,-3.9354,-3.9835,-4.0065,-4.0439,-4.1035,-4.172,-4.2104,-4.2104,-4.272,-4.3104,-4.3104,-4.3278,-4.3739,-4.4586,-4.4605,-4.4605,-4.4605,-4.5267,-4.5594,-4.5594,-4.5594,-4.5594,-4.5594,-4.5594,-4.5594,-4.5594,-4.5594,-4.5594,-4.5594,-4.5594,-4.5594,-4.5594,-4.5594,-4.5594,-4.5594,-4.5594,-4.5594,-4.5594,-5.9492,-5.9492,-5.9644,-6.0089,-5.9789,-5.9661,-6.0089,-5.9773,-5.9492,-5.9492,-5.9885,-6.0146,-6.0146,-6.0146,-6.0324,-6.0757,-6.0411,-6.0338,-6.0769,-6.08,-6.08,-6.08,-6.08,-6.0762,-6.0704,-6.0704,-6.0281,-5.9415,-5.8993,-5.8358,-5.7543,-5.6723,-5.6322,-5.624,-5.5858,-5.5703,-5.5703,-5.5703,-5.5703,-5.5703,-5.5703,-5.5703,-5.5703,-5.5703,-5.5665,-5.5607,-5.5607,-5.5088,-5.4395,-5.4337,-5.378,-5.2882,-5.1625,-5.1211,-5.0996,-4.9872,-4.9789,-4.992,-4.9365,-4.8086,-4.68,-4.6369,-4.5693,-4.5148,-4.5148,-4.5148,-4.5222,-4.555,-4.5594,-4.5575,-4.5518,-4.4797,-4.3951,-4.3143,-4.2893,-4.2258,-4.065,-4.1739,-4.245,-4.1692,-4.2335,-4.2835,-4.2893,-4.297,-4.3008,-4.3008,-4.3066,-4.3104,-4.3104,-4.3816,-4.4605,-4.5479,-4.5498,-4.5498,-4.5498,-4.5575,-4.5594,-4.5594,-4.5594,-4.5594,-4.5594,-4.5594,-4.5594,-4.5594,-4.5594,-4.5594,-4.5594,-4.5594,-4.5594,-4.5594,-4.5594,-4.5594,-4.5594,-4.5594,-4.5594,-4.5594,-5.9389,-5.923,-5.9211,-5.9611,-5.9354,-5.9211,-5.9611,-5.9509,-5.9389,-5.9389,-5.9561,-5.9677,-5.9677,-5.9677,-5.9741,-5.9916,-5.9757,-5.9741,-5.9916,-5.9931,-6.0189,-6.0769,-6.08,-6.08,-6.08,-6.08,-6.0493,-5.9873,-5.9698,-5.9018,-5.7905,-5.7564,-5.7166,-5.6658,-5.6523,-5.6159,-5.5698,-5.5698,-5.5408,-5.4966,-5.4966,-5.4966,-5.4966,-5.4966,-5.4966,-5.4993,-5.5244,-5.5128,-5.4839,-5.4581,-5.4103,-5.3364,-5.2113,-5.1185,-5.0378,-4.9415,-4.9416,-4.9684,-4.9512,-4.8974,-4.8107,-4.6653,-4.6061,-4.5662,-4.4962,-4.48,-4.4837,-4.4954,-4.514,-4.5302,-4.5302,-4.4757,-4.4374,-4.4605,-4.3778,-4.3047,-4.2874,-4.2989,-4.2989,-4.2643,-4.2893,-4.3104,-4.3104,-4.3547,-4.3835,-4.3835,-4.4335,-4.4643,-4.4643,-4.494,-4.5267,-4.5594,-4.5594,-4.5594,-4.5594,-4.5594,-4.5594,-4.5594,-4.5594,-4.5594,-4.5594,-4.5594,-4.5594,-4.5594,-4.5594,-4.5594,-4.5594,-4.5594,-4.5594,-4.5594,-4.5594,-4.5594,-4.5594,-4.5594,-4.5594,-4.5594,-5.8952,-5.8776,-5.8736,-5.9102,-5.8875,-5.8737,-5.9102,-5.9047,-5.8952,-5.8952,-5.9084,-5.9195,-5.9195,-5.9195,-5.9249,-5.9391,-5.9285,-5.923,-5.9389,-5.9389,-5.9741,-6.0553,-6.0578,-6.0647,-6.08,-6.08,-6.0565,-6.0103,-5.9946,-5.9341,-5.8275,-5.7994,-5.76,-5.7056,-5.695,-5.6585,-5.6074,-5.6074,-5.5619,-5.488,-5.488,-5.4729,-5.4503,-5.4503,-5.4503,-5.4535,-5.4804,-5.4924,-5.4857,-5.4594,-5.4294,-5.3813,-5.2573,-5.1325,-5.0193,-4.9478,-4.9468,-4.9664,-4.9535,-4.9461,-4.9037,-4.7341,-4.6533,-4.5941,-4.5154,-4.467,-4.4447,-4.4567,-4.4769,-4.4943,-4.4943,-4.4734,-4.4747,-4.5342,-4.458,-4.4085,-4.4624,-4.422,-4.3893,-4.3893,-4.3893,-4.3893,-4.3893,-4.4374,-4.4701,-4.4701,-4.5267,-4.5594,-4.5594,-4.5594,-4.5594,-4.5594,-4.5594,-4.5594,-4.5594,-4.5594,-4.5594,-4.5594,-4.5594,-4.5594,-4.5594,-4.5594,-4.5594,-4.5594,-4.5594,-4.5594,-4.5594,-4.5594,-4.5594,-4.5594,-4.5594,-4.5594,-4.5594,-4.5594,-4.5594,-4.5594,-5.7997,-5.7997,-5.8164,-5.8611,-5.8307,-5.8164,-5.8632,-5.8304,-5.7997,-5.7997,-5.8397,-5.8694,-5.8694,-5.8694,-5.8894,-5.9337,-5.8952,-5.8894,-5.9354,-5.9389,-5.9611,-6.0069,-6.0084,-6.0324,-6.0788,-6.08,-6.0565,-6.0103,-5.9628,-5.9139,-5.8676,-5.7816,-5.7405,-5.7388,-5.7056,-5.6907,-5.6907,-5.6907,-5.6434,-5.5697,-5.5697,-5.5223,-5.4506,-5.4487,-5.4487,-5.4487,-5.4503,-5.4503,-5.4503,-5.4503,-5.4503,-5.4272,-5.2988,-5.1768,-5.0718,-5.0229,-5.011,-5.0008,-4.9616,-4.9508,-4.93,-4.8513,-4.706,-4.58,-4.58,-4.4857,-4.4121,-4.4514,-4.4593,-4.4612,-4.4612,-4.4872,-4.5096,-4.5096,-4.5381,-4.5586,-4.5605,-4.5605,-4.5594,-4.5594,-4.5594,-4.5594,-4.5605,-4.5605,-4.5605,-4.5605,-4.5594,-4.5594,-4.5594,-4.5594,-4.5594,-4.5594,-4.5594,-4.5594,-4.5594,-4.5594,-4.5594,-4.5594,-4.5594,-4.5594,-4.5594,-4.5594,-4.5594,-4.5594,-4.5594,-4.5594,-4.5594,-4.5594,-4.5594,-4.5594,-4.5594,-4.5594,-4.5594,-4.5594,-4.5594,-4.5594,-5.7997,-5.7997,-5.8047,-5.819,-5.8074,-5.8047,-5.819,-5.8092,-5.7997,-5.7997,-5.8119,-5.8213,-5.8213,-5.8213,-5.826,-5.8397,-5.8304,-5.826,-5.8397,-5.8418,-5.8632,-5.9103,-5.9424,-5.9677,-5.9804,-5.9823,-5.9595,-5.9121,-5.8971,-5.8673,-5.8194,-5.7932,-5.7822,-5.7822,-5.7719,-5.7357,-5.6821,-5.6821,-5.6379,-5.5619,-5.5619,-5.5492,-5.5194,-5.4638,-5.4416,-5.4401,-5.4111,-5.4013,-5.4048,-5.4387,-5.4272,-5.3793,-5.2563,-5.1936,-5.1503,-5.0797,-5.0172,-4.9731,-4.9602,-4.933,-4.8888,-4.8081,-4.7501,-4.6769,-4.5352,-4.4744,-4.438,-4.3918,-4.402,-4.4175,-4.4175,-4.4482,-4.4745,-4.4745,-4.4818,-4.4977,-4.5222,-4.5243,-4.5332,-4.5577,-4.5594,-4.5504,-4.5263,-4.5243,-4.5243,-4.5243,-4.5476,-4.5594,-4.5594,-4.5594,-4.5594,-4.5594,-4.5594,-4.5594,-4.5594,-4.5594,-4.5594,-4.5594,-4.5594,-4.5594,-4.5594,-4.5594,-4.5594,-4.5594,-4.5594,-4.5594,-4.5594,-4.5594,-4.5594,-4.5594,-4.5594,-4.5594,-4.5594,-4.5594,-4.5594,-4.5568,-5.7997,-5.7997,-5.7997,-5.7997,-5.7997,-5.7997,-5.7997,-5.7997,-5.7997,-5.7997,-5.7997,-5.7997,-5.7997,-5.7997,-5.7997,-5.7997,-5.7997,-5.7997,-5.7997,-5.7997,-5.8119,-5.8418,-5.8694,-5.9009,-5.9389,-5.9389,-5.9176,-5.8694,-5.8694,-5.8442,-5.7997,-5.7997,-5.7997,-5.7997,-5.7997,-5.7721,-5.7281,-5.7281,-5.6804,-5.6069,-5.6069,-5.5868,-5.5559,-5.506,-5.4858,-5.4791,-5.4242,-5.4047,-5.4031,-5.4,-5.3796,-5.3432,-5.2704,-5.2472,-5.2325,-5.1499,-5.0912,-5.0418,-4.9776,-4.938,-4.8972,-4.8138,-4.7813,-4.7378,-4.6163,-4.5272,-4.4562,-4.4066,-4.3884,-4.3804,-4.3804,-4.4106,-4.4359,-4.4359,-4.4501,-4.467,-4.4872,-4.4908,-4.5041,-4.5352,-4.5302,-4.5191,-4.5107,-4.4977,-4.4908,-4.4908,-4.5096,-4.5263,-4.54,-4.541,-4.5457,-4.5605,-4.5594,-4.5594,-4.5594,-4.5594,-4.5594,-4.5594,-4.5594,-4.5594,-4.5594,-4.5594,-4.5594,-4.5594,-4.5594,-4.5594,-4.5594,-4.5594,-4.5594,-4.5594,-4.5594,-4.5594,-4.5594,-4.5594,-4.5594,-4.5559,-5.7997,-5.7997,-5.7997,-5.7997,-5.7997,-5.7997,-5.7997,-5.7997,-5.7997,-5.7997,-5.7997,-5.7997,-5.7997,-5.7997,-5.7997,-5.7997,-5.7997,-5.7997,-5.7997,-5.7997,-5.7997,-5.7997,-5.7997,-5.8397,-5.9267,-5.9266,-5.9065,-5.8652,-5.8652,-5.8418,-5.7997,-5.7997,-5.7997,-5.7997,-5.7997,-5.7997,-5.7997,-5.7997,-5.7574,-5.6914,-5.6914,-5.6473,-5.5794,-5.5721,-5.5724,-5.5592,-5.4803,-5.4454,-5.4289,-5.3482,-5.3185,-5.3185,-5.3185,-5.3185,-5.3078,-5.2307,-5.205,-5.1665,-5.0216,-4.9721,-4.9408,-4.8618,-4.8069,-4.7729,-4.7655,-4.6239,-4.4874,-4.4837,-4.4176,-4.3625,-4.3625,-4.3795,-4.3955,-4.3955,-4.4266,-4.4514,-4.454,-4.454,-4.467,-4.5,-4.48,-4.4714,-4.4977,-4.472,-4.454,-4.454,-4.458,-4.472,-4.5041,-4.5063,-4.5201,-4.5504,-4.5513,-4.5522,-4.5559,-4.5522,-4.5531,-4.5594,-4.5594,-4.5594,-4.5594,-4.5594,-4.5594,-4.5594,-4.5594,-4.5594,-4.5594,-4.5594,-4.5594,-4.5594,-4.5594,-4.5594,-4.5594,-4.5594,-4.5594,-4.5559,-5.7997,-5.7997,-5.7997,-5.7997,-5.7997,-5.7997,-5.7997,-5.7997,-5.7997,-5.7997,-5.7997,-5.7997,-5.7997,-5.7997,-5.7997,-5.7997,-5.7997,-5.7997,-5.7997,-5.7997,-5.7997,-5.7997,-5.7997,-5.8115,-5.8304,-5.8286,-5.826,-5.8164,-5.8164,-5.8097,-5.7997,-5.7997,-5.7997,-5.7997,-5.7997,-5.7997,-5.7997,-5.7997,-5.7905,-5.774,-5.774,-5.7629,-5.7409,-5.6785,-5.6547,-5.6436,-5.5629,-5.4932,-5.4289,-5.3482,-5.3185,-5.3185,-5.3185,-5.3185,-5.3167,-5.3004,-5.2491,-5.1903,-5.1555,-5.0565,-4.9555,-4.9372,-4.8731,-4.7997,-4.7371,-4.6875,-4.6397,-4.5773,-4.5002,-4.4452,-4.4452,-4.3988,-4.3614,-4.3614,-4.3679,-4.382,-4.4106,-4.4117,-4.4276,-4.4657,-4.4631,-4.4495,-4.4261,-4.4175,-4.4117,-4.4117,-4.4414,-4.4618,-4.4695,-4.4714,-4.4732,-4.4806,-4.4806,-4.4943,-4.5211,-4.4943,-4.5085,-4.5594,-4.5594,-4.5594,-4.5594,-4.5594,-4.5594,-4.5594,-4.5594,-4.5594,-4.5594,-4.5594,-4.5594,-4.5594,-4.5594,-4.5594,-4.5594,-4.5594,-4.5594,-4.5559,-5.7997,-5.7997,-5.7997,-5.7997,-5.7997,-5.7997,-5.7997,-5.7997,-5.7997,-5.7997,-5.7997,-5.7997,-5.7997,-5.7997,-5.7997,-5.7997,-5.7997,-5.7997,-5.7997,-5.7997,-5.7997,-5.7997,-5.7997,-5.7997,-5.7997,-5.7997,-5.7997,-5.7997,-5.7997,-5.7997,-5.7997,-5.7997,-5.7997,-5.7997,-5.7997,-5.7997,-5.7997,-5.7997,-5.7997,-5.7997,-5.7997,-5.7997,-5.7941,-5.7538,-5.7373,-5.7281,-5.6455,-5.5409,-5.4344,-5.3922,-5.3537,-5.3185,-5.3185,-5.3185,-5.3185,-5.3185,-5.2913,-5.2491,-5.2087,-5.1391,-5.0565,-4.9794,-4.9262,-4.8691,-4.7846,-4.7369,-4.6984,-4.6562,-4.5828,-4.5168,-4.4782,-4.436,-4.3956,-4.3552,-4.3515,-4.3546,-4.3742,-4.3756,-4.3896,-4.4261,-4.4165,-4.3989,-4.3772,-4.3756,-4.3756,-4.3756,-4.3962,-4.4154,-4.4308,-4.4304,-4.4387,-4.4593,-4.4593,-4.4682,-4.4861,-4.4701,-4.4769,-4.5129,-4.5292,-4.5352,-4.5381,-4.5522,-4.5513,-4.5362,-4.5522,-4.5594,-4.5594,-4.5594,-4.5594,-4.5594,-4.5594,-4.5594,-4.5594,-4.5594,-4.541,-4.5107,-5.7997,-5.7997,-5.7997,-5.7997,-5.7997,-5.7997,-5.7997,-5.7997,-5.7997,-5.7997,-5.7997,-5.7997,-5.7997,-5.7997,-5.7997,-5.7997,-5.7997,-5.7997,-5.7997,-5.7997,-5.7997,-5.7997,-5.7997,-5.7997,-5.7997,-5.7997,-5.7997,-5.7997,-5.7997,-5.7997,-5.7997,-5.7997,-5.7997,-5.7997,-5.7997,-5.7997,-5.7997,-5.7997,-5.7997,-5.7997,-5.7997,-5.7997,-5.7997,-5.7997,-5.7997,-5.7905,-5.7244,-5.6069,-5.4785,-5.4656,-5.4069,-5.3427,-5.3427,-5.3295,-5.3185,-5.3185,-5.3185,-5.3059,-5.238,-5.2087,-5.1665,-5.0345,-4.9812,-4.9408,-4.8691,-4.7902,-4.7314,-4.7314,-4.6673,-4.5902,-4.5241,-4.4874,-4.4488,-4.3809,-4.3589,-4.3515,-4.3515,-4.3515,-4.3614,-4.3881,-4.3679,-4.3515,-4.3515,-4.3515,-4.3515,-4.3515,-4.3515,-4.3612,-4.3912,-4.3909,-4.4061,-4.4406,-4.4406,-4.4433,-4.4501,-4.4433,-4.4474,-4.4593,-4.4806,-4.4954,-4.5011,-4.5293,-4.5273,-4.5041,-4.5312,-4.5429,-4.5429,-4.5429,-4.5429,-4.5429,-4.5429,-4.5429,-4.5429,-4.5429,-4.5033,-4.4501,-5.7997,-5.7997,-5.7997,-5.7997,-5.7997,-5.7997,-5.7997,-5.7997,-5.7997,-5.7997,-5.7997,-5.7997,-5.7997,-5.7997,-5.7997,-5.7997,-5.7997,-5.7997,-5.7997,-5.7997,-5.7997,-5.7997,-5.7997,-5.7997,-5.7997,-5.7997,-5.7997,-5.7997,-5.7997,-5.7997,-5.7997,-5.7997,-5.7997,-5.7997,-5.7997,-5.7997,-5.7997,-5.7997,-5.7997,-5.7997,-5.7997,-5.7997,-5.7997,-5.7997,-5.7997,-5.7997,-5.7886,-5.7244,-5.6381,-5.5666,-5.4895,-5.4234,-5.4234,-5.3775,-5.3185,-5.3185,-5.3185,-5.3167,-5.3078,-5.2527,-5.194,-5.172,-5.0639,-4.9574,-4.9445,-4.8765,-4.8141,-4.8141,-4.7498,-4.6892,-4.6801,-4.5627,-4.4654,-4.4562,-4.3956,-4.3515,-4.3515,-4.3515,-4.3513,-4.3546,-4.3531,-4.3515,-4.3515,-4.3515,-4.3515,-4.3515,-4.3515,-4.3513,-4.3582,-4.3563,-4.3597,-4.3647,-4.3647,-4.3791,-4.4073,-4.3788,-4.3977,-4.4612,-4.429,-4.4332,-4.4657,-4.4707,-4.4707,-4.467,-4.4726,-4.4751,-4.4751,-4.4751,-4.4751,-4.4751,-4.4751,-4.4751,-4.4751,-4.4751,-4.4455,-4.4073,-5.7997,-5.7997,-5.7997,-5.7997,-5.7997,-5.7997,-5.7997,-5.7997,-5.7997,-5.7997,-5.7997,-5.7997,-5.7997,-5.7997,-5.7997,-5.7997,-5.7997,-5.7997,-5.7997,-5.7997,-5.7997,-5.7997,-5.7997,-5.7997,-5.7997,-5.7997,-5.7997,-5.7997,-5.7997,-5.7997,-5.7997,-5.7997,-5.7997,-5.7997,-5.7997,-5.7997,-5.7997,-5.7997,-5.7997,-5.7997,-5.7997,-5.7997,-5.7997,-5.7997,-5.7997,-5.7997,-5.7997,-5.7483,-5.6767,-5.64,-5.5739,-5.4987,-5.4546,-5.4161,-5.3794,-5.3335,-5.3185,-5.3185,-5.3185,-5.2949,-5.2564,-5.2105,-5.1483,-5.0712,-4.9812,-4.9317,-4.8893,-4.8398,-4.8012,-4.7626,-4.7186,-4.6526,-4.5883,-4.5443,-4.4709,-4.4176,-4.4176,-4.3773,-4.3515,-4.3515,-4.3515,-4.3515,-4.3515,-4.3515,-4.3515,-4.3515,-4.3515,-4.3515,-4.3515,-4.3515,-4.3515,-4.3515,-4.3515,-4.3563,-4.3726,-4.3563,-4.3662,-4.3992,-4.3823,-4.3912,-4.4261,-4.4501,-4.4474,-4.4294,-4.4501,-4.4593,-4.4593,-4.4593,-4.4593,-4.4593,-4.4593,-4.4593,-4.4593,-4.4593,-4.435,-4.4001]},{"header":{"parameterUnit":"m.s-1","parameterCategory":1,"la1":30.6,"la2":28.766,"lo1":-90.7593,"lo2":-88.6598,"dy":0.0162,"dx":0.0183,"nx":116,"ny":114,"refTime":"2024-05-31T06:00:00:Z","depth":0,"parameterNumber":3,"parameterNumberName":"V-component_of_WINDS"},"data":[0.0,0.0,0.0,0.0,0.0,0.0,0.0,0.0,0.0,0.0,0.0,0.0,0.0,0.0,0.0,0.0,0.0,0.0,0.0,0.0,0.0,0.0,0.0,0.0,0.0,0.0,0.0,0.0,0.0,0.0,0.0,0.0,0.0,0.0,0.0,0.0,0.0,0.0,0.0,0.0,0.0,0.0,0.0,0.0,0.0,0.0,0.0,0.0,0.0,0.0,0.0,0.0,0.0,0.0,0.0,0.0,0.0,0.0,0.0,0.0,0.0,0.0,0.0,0.0,0.0,0.0,0.0,0.0,0.0,0.0,0.0,0.0,0.0,0.0,0.0,0.0,0.0,0.0,0.0,0.0,0.0,0.0,0.0,0.0,0.0,0.0,0.0,0.0,0.0,0.0,0.0,0.0,0.0,0.0,0.0,0.0,0.0,0.0,0.0,0.0,0.0,0.0,0.0,0.0,0.0,0.0,0.0,0.0,0.0,0.0,0.0,0.0,0.0,0.0,0.0,0.0,0.0,0.0,0.0,0.0,0.0,0.0,0.0,0.0,0.0,0.0,0.0,0.0,0.0,0.0,0.0,0.0,0.0,0.0,0.0,0.0,0.0,0.0,0.0,0.0,0.0,0.0,0.0,0.0,0.0,0.0,0.0,0.0,0.0,0.0,0.0,0.0,0.0,0.0,0.0,0.0,0.0,0.0,0.0,0.0,0.0,0.0,0.0,0.0,0.0,0.0,0.0,0.0,0.0,0.0,0.0,0.0,0.0,0.0,0.0,0.0,0.0,0.0,0.0,0.0,0.0,0.0,0.0,0.0,0.0,0.0,0.0,0.0,0.0,0.0,0.0,0.0,0.0,0.0,0.0,0.0,0.0,0.0,0.0,0.0,0.0,0.0,0.0,0.0,0.0,0.0,0.0,0.0,0.0,0.0,0.0,0.0,0.0,0.0,0.0,0.0,0.0,0.0,0.0,0.0,0.0,0.0,0.0,0.0,0.0,0.0,0.0,0.0,0.0,0.0,0.0,0.0,0.0,0.0,0.0,0.0,0.0,0.0,0.0,0.0,0.0,0.0,0.0,0.0,0.0,0.0,0.0,0.0,0.0,0.0,0.0,0.0,0.0,0.0,0.0,0.0,0.0,0.0,0.0,0.0,0.0,0.0,0.0,0.0,0.0,0.0,0.0,0.0,0.0,0.0,0.0,0.0,0.0,0.0,0.0,0.0,0.0,0.0,0.0,0.0,0.0,0.0,0.0,0.0,0.0,0.0,0.0,0.0,0.0,0.0,0.0,0.0,0.0,0.0,0.0,0.0,0.0,0.0,0.0,0.0,0.0,0.0,0.0,0.0,0.0,0.0,0.0,0.0,0.0,0.0,0.0,0.0,0.0,0.0,0.0,0.0,0.0,0.0,0.0,0.0,0.0,0.0,0.0,0.0,0.0,0.0,0.0,0.0,0.0,0.0,0.0,0.0,0.0,0.0,0.0,0.0,0.0,0.0,0.0,0.0,0.0,0.0,0.0,0.0,0.0,0.0,0.0,0.0,0.0,0.0,0.0,0.0,0.0,0.0,0.0,0.0,0.0,0.0,0.0,0.0,0.0,0.0,0.0,0.0,0.0,0.0,0.0,0.0,0.0,0.0,0.0,0.0,0.0,0.0,0.0,0.0,0.0,0.0,0.0,0.0,0.0,0.0,0.0,0.0,0.0,0.0,0.0,0.0,0.0,0.0,0.0,0.0,0.0,0.0,0.0,0.0,0.0,0.0,0.0,0.0,0.0,0.0,0.0,0.0,0.0,0.0,0.0,0.0,0.0,0.0,0.0,0.0,0.0,0.0,0.0,0.0,0.0,0.0,0.0,0.0,0.0,0.0,0.0,0.0,0.0,0.0,0.0,0.0,0.0,0.0,0.0,0.0,0.0,0.0,0.0,0.0,0.0,0.0,0.0,0.0,0.0,0.0,0.0,0.0,0.0,0.0,0.0,0.0,0.0,0.0,0.0,0.0,0.0,0.0,0.0,0.0,0.0,0.0,0.0,0.0,0.0,0.0,0.0,0.0,0.0,0.0,0.0,0.0,0.0,0.0,0.0,0.0,0.0,0.0,0.0,0.0,0.0,0.0,0.0,0.0,0.0,0.0,0.0,0.0,0.0,0.0,0.0,0.0,0.0,0.0,0.0,0.0,0.0,0.0,0.0,0.0,0.0,0.0,0.0,0.0,0.0,0.0,0.0,0.0,0.0,0.0,0.0,0.0,0.0,0.0,0.0,0.0,0.0,0.0,0.0,0.0,0.0,0.0,0.0,0.0,0.0,0.0,0.0,0.0,0.0,0.0,0.0,0.0,0.0,0.0,0.0,0.0,0.0,0.0,0.0,0.0,0.0,0.0,0.0,0.0,0.0,0.0,0.0,0.0,0.0,0.0,0.0,0.0,0.0,0.0,0.0,0.0,0.0,0.0,0.0,0.0,0.0,0.0,0.0,0.0,0.0,0.0,0.0,0.0,0.0,0.0,0.0,0.0,0.0,0.0,0.0,0.0,0.0,0.0,0.0,0.0,0.0,0.0,0.0,0.0,0.0,0.0,0.0,0.0,0.0,0.0,0.0,0.0,0.0,0.0,0.0,0.0,0.0,0.0,0.0,0.0,0.0,0.0,0.0,0.0,0.0,0.0,0.0,0.0,0.0,0.0,0.0,0.0,0.0,0.0,0.0,0.0,0.0,0.0,0.0,0.0,0.0,0.0,0.0,0.0,0.0,0.0,0.0,0.0,0.0,0.0,0.0,0.0,0.0,0.0,0.0,0.0,0.0,0.0,0.0,0.0,0.0,0.0,0.0,0.0,0.0,0.0,0.0,0.0,0.0,0.0,0.0,0.0,0.0,0.0,0.0,0.0,0.0,0.0,0.0,0.0,0.0,0.0,0.0,0.0,0.0,0.0,0.0,0.0,0.0,0.0,0.0,0.0,0.0,0.0,0.0,0.0,0.0,0.0,0.0,0.0,0.0,0.0,0.0,0.0,0.0,0.0,0.0,0.0,0.0,0.0,0.0,0.0,0.0,0.0,0.0,0.0,0.0,0.0,0.0,0.0,0.0,0.0,0.0,0.0,0.0,0.0,0.0,0.0,0.0,0.0,0.0,0.0,0.0,0.0,0.0,0.0,0.0,0.0,0.0,0.0,0.0,0.0,0.0,0.0,0.0,0.0,0.0,0.0,0.0,0.0,0.0,0.0,0.0,0.0,0.0,0.0,0.0,0.0,0.0,0.0,0.0,0.0,0.0,0.0,0.0,0.0,0.0,0.0,0.0,0.0,0.0,0.0,0.0,0.0,0.0,0.0,0.0,0.0,0.0,0.0,0.0,0.0,0.0,0.0,0.0,0.0,0.0,0.0,0.0,0.0,0.0,0.0,0.0,0.0,0.0,0.0,0.0,0.0,0.0,0.0,0.0,0.0,0.0,0.0,0.0,0.0,0.0,0.0,0.0,0.0,0.0,0.0,0.0,0.0,0.0,0.0,0.0,0.0,0.0,0.0,0.0,0.0,0.0,0.0,0.0,0.0,0.0,0.0,0.0,0.0,0.0,0.0,0.0,0.0,0.0,0.0,0.0,0.0,0.0,0.0,0.0,0.0,0.0,0.0,0.0,0.0,0.0,0.0,0.0,0.0,0.0,0.0,0.0,0.0,0.0,0.0,0.0,0.0,0.0,0.0,0.0,0.0,0.0,0.0,0.0,0.0,0.0,0.0,0.0,0.0,0.0,0.0,0.0,0.0,0.0,0.0,0.0,0.0,0.0,0.0,0.0,0.0,0.0,0.0,0.0,0.0,0.0,0.0,0.0,0.0,0.0,0.0,0.0,0.0,0.0,0.0,0.0,0.0,0.0,0.0,0.0,0.0,0.0,0.0,0.0,0.0,0.0,0.0,0.0,0.0,0.0,0.0,0.0,0.0,0.0,0.0,0.0,0.0,0.0,0.0,0.0,0.0,0.0,0.0,0.0,0.0,0.0,0.0,0.0,0.0,0.0,0.0,0.0,0.0,0.0,0.0,0.0,0.0,0.0,0.0,0.0,0.0,0.0,0.0,0.0,0.0,0.0,0.0,0.0,0.0,0.0,0.0,0.0,0.0,0.0,0.0,0.0,0.0,0.0,0.0,0.0,0.0,0.0,0.0,0.0,0.0,0.0,0.0,0.0,0.0,0.0,0.0,0.0,0.0,0.0,0.0,0.0,0.0,0.0,0.0,0.0,0.0,0.0,0.0,0.0,0.0,0.0,0.0,0.0,0.0,0.0,0.0,0.0,0.0,0.0,0.0,0.0,0.0,0.0,0.0,0.0,0.0,0.0,0.0,0.0,0.0,0.0,0.0,0.0,0.0,0.0,0.0,0.0,0.0,0.0,0.0,0.0,0.0,0.0,0.0,0.0,0.0,0.0,0.0,0.0,0.0,0.0,0.0,0.0,0.0,0.0,0.0,0.0,0.0,0.0,0.0,0.0,0.0,0.0,0.0,0.0,0.0,0.0,0.0,0.0,0.0,0.0,0.0,0.0,0.0,0.0,0.0,0.0,0.0,0.0,0.0,0.0,0.0,0.0,0.0,0.0,0.0,0.0,0.0,0.0,0.0,0.0,0.0,0.0,0.0,0.0,0.0,0.0,0.0,0.0,0.0,0.0,0.0,0.0,0.0,0.0,0.0,0.0,0.0,0.0,0.0,0.0,0.0,0.0,0.0,0.0,0.0,0.0,0.0,0.0,0.0,0.0,0.0,0.0,0.0,0.0,0.0,0.0,0.0,0.0,0.0,0.0,0.0,0.0,0.0,0.0,0.0,0.0,0.0,0.0,0.0,0.0,0.0,0.0,0.0,0.0,0.0,0.0,0.0,0.0,0.0,0.0,0.0,0.0,0.0,0.0,0.0,0.0,0.0,0.0,0.0,0.0,0.0,0.0,0.0,0.0,0.0,0.0,0.0,0.0,0.0,0.0,0.0,0.0,0.0,0.0,0.0,0.0,0.0,0.0,0.0,0.0,0.0,0.0,0.0,0.0,0.0,0.0,0.0,0.0,0.0,0.0,0.0,0.0,0.0,0.0,0.0,0.0,0.0,0.0,0.0,0.0,0.0,0.0,0.0,0.0,0.0,0.0,0.0,0.0,0.0,0.0,0.0,0.0,0.0,0.0,0.0,0.0,0.0,0.0,0.0,0.0,0.0,0.0,0.0,0.0,0.0,0.0,0.0,0.0,0.0,0.0,0.0,0.0,0.0,0.0,0.0,0.0,0.0,0.0,0.0,0.0,0.0,0.0,0.0,0.0,0.0,0.0,0.0,0.0,0.0,0.0,0.0,0.0,0.0,0.0,0.0,0.0,0.0,0.0,0.0,0.0,0.0,0.0,0.0,0.0,0.0,0.0,0.0,0.0,0.0,0.0,0.0,0.0,0.0,0.0,0.0,0.0,0.0,0.0,0.0,0.0,0.0,0.0,0.0,0.0,0.0,0.0,0.0,0.0,0.0,0.0,0.0,0.0,0.0,0.0,0.0,0.0,0.0,0.0,0.0,0.0,0.0,0.0,0.0,0.0,0.0,0.0,0.0,0.0,0.0,0.0,0.0,0.0,0.0,0.0,0.0,0.0,0.0,0.0,0.0,0.0,0.0,0.0,0.0,0.0,0.0,0.0,0.0,0.0,0.0,0.0,0.0,0.0,0.0,0.0,0.0,0.0,0.0,0.0,0.0,0.0,0.0,0.0,0.0,0.0,0.0,0.0,0.0,0.0,0.0,0.0,0.0,0.0,0.0,0.0,0.0,0.0,0.0,0.0,0.0,0.0,0.0,0.0,0.0,0.0,0.0,0.0,0.0,0.0,0.0,0.0,0.0,0.0,0.0,0.0,0.0,0.0,0.0,0.0,0.0,0.0,0.0,0.0,0.0,0.0,0.0,0.0,0.0,0.0,0.0,0.0,0.0,0.0,0.0,0.0,0.0,0.0,0.0,0.0,0.0,0.0,0.0,0.0,0.0,0.0,0.0,0.0,0.0,0.0,0.0,0.0,0.0,0.0,0.0,0.0,0.0,0.0,0.0,0.0,0.0,0.0,0.0,0.0,0.0,0.0,0.0,0.0,0.0,-0.3232,-0.3085,0.0,0.0,0.0,0.0,0.0,0.0,0.0,0.0,0.0,0.0,0.0,0.0,0.0,0.0,0.0,0.0,0.0,0.0,0.0,0.0,0.0,0.0,0.0,0.1856,0.1678,0.1149,0.1043,0.0769,0.0237,0.0,0.0,0.0,0.0,0.0,0.0,0.0,0.0,0.0,0.0,0.0,0.0,0.0,0.0,0.0,0.0,0.0,0.0,0.0,0.0,0.0,0.0,0.0,0.0,0.0,0.0,0.0,0.0,0.0,0.0,0.0,0.0,0.0,0.0,0.0,0.0,0.0,0.0,0.0,0.0,0.0,0.0,0.0,0.0,0.0,0.0,0.0,0.0,0.0,0.0,0.0,0.0,0.0,0.0,0.0,0.0,0.0,0.0,0.0,0.0,0.0,0.0,0.0,0.0,0.0,0.0,0.0,0.0,0.0,0.0,0.0,0.0,0.0,0.0,0.0,0.0,0.0,0.0,0.0,0.0,0.0,0.0,0.0,0.0,0.0,-0.3856,-0.3617,0.0,0.0,0.0,0.0,0.0,0.0,0.0,0.0,0.0,0.0,0.0,0.0,0.0,0.0,0.0,0.0,0.0,0.0,0.0,0.0,0.0,0.1813,0.1829,0.1933,0.1718,0.0999,0.1039,0.0792,0.0051,0.0,0.0,0.0,0.0,0.0,0.0,0.0,0.0,0.0,0.0,0.0,0.0,0.0,0.0,0.0,0.0,0.0,0.0,0.0,0.0,0.0,0.0,0.0,0.0,0.0,0.0,0.0,0.0,0.0,0.0,0.0,0.0,0.0,0.0,0.0,0.0,0.0,0.0,0.0,0.0,0.0,0.0,0.0,0.0,0.0,0.0,0.0,0.0,0.0,0.0,0.0,0.0,0.0,0.0,0.0,0.0,0.0,0.0,0.0,0.0,0.0,0.0,0.0,0.0,0.0,0.0,0.0,0.0,0.0,0.0,0.0,0.0,0.0,0.0,0.0,0.0,0.0,0.0,0.0,-0.4702,-0.4832,-0.4996,-0.5023,-0.5083,-0.5181,-0.4544,-0.4294,-0.4298,-0.4146,0.0,0.0,0.0,0.0,0.0,0.0,0.0,0.0,0.0,0.0,0.0,0.0,0.0,0.0,0.0,0.0,0.0,0.0,0.0,0.1843,0.1967,0.1985,0.1752,0.1127,0.1091,0.0782,0.0051,0.0,0.0,0.0,0.0,0.0,0.0,0.0,0.0,0.0,0.0,0.0,0.0,0.0,0.0,0.0,0.0,0.0019,0.0057,0.0,0.0,0.0,0.0,0.0,0.0,0.0,0.0,0.0,0.0,0.0,0.0,0.0,0.0,0.0,0.0,0.0,0.0,0.0,0.0,0.0,0.0,0.0,0.0,0.0,0.0,0.0,0.0,0.0,0.0,0.0,0.0,0.0,0.0,0.0,0.0,0.0,0.0,0.0,0.0,0.0,-0.2774,-0.3096,0.0,0.0,0.0,0.0,0.0,0.0,0.0,0.0,0.0,0.0,0.0,0.0,0.0,-0.459,-0.4921,-0.5108,-0.5238,-0.5279,-0.5501,-0.5511,-0.5341,-0.544,-0.5579,-0.5701,-0.5477,0.0,-0.4779,-0.4549,0.0,0.0,0.0,0.0,0.0,0.0,0.0,0.0,0.0,0.0,0.0,0.0,0.0,0.0,0.0,0.0,0.0,0.0,0.0,0.0,0.0,0.177,0.1577,0.0781,0.0808,0.0627,0.0045,0.0,0.0,0.0,0.0,0.0,0.0,0.0,0.0,0.0,0.0,0.0,0.0,0.0,0.0,0.0,0.0,0.0,0.0,0.0,0.0,0.0,0.0,0.0,0.0,0.0,0.0,0.0,0.0,0.0,0.0,0.0,0.0,0.0,0.0,0.0,0.0,0.0,0.0,0.0,0.0,0.0,0.0,0.0,0.0,0.0,0.0,0.0,0.0,0.0,0.0,0.0,0.0,0.0,0.0,0.0,0.0,0.0,0.0,-0.2741,-0.3246,-0.3542,-0.3576,-0.3549,0.0,0.0,0.0,0.0,0.0,0.0,0.0,0.0,0.0,-0.4709,-0.505,-0.5308,-0.5504,-0.5784,-0.5941,-0.6023,-0.6153,-0.6156,-0.6115,-0.6183,-0.6247,-0.6305,-0.624,-0.6054,-0.5755,-0.532,-0.4918,-0.4594,0.0,0.0,0.0,0.0,-0.4372,-0.445,0.0,0.0,0.0,0.0,0.0,0.0,0.0,0.0,0.0,0.0,0.0,0.0,0.1462,0.1548,0.132,0.0545,0.0606,0.0502,0.0036,0.0,0.0,0.0,0.0,0.0,0.0,0.0,0.0,0.0,0.0,0.0,0.0,0.0,0.0,0.0,0.0,0.0,0.0,0.0,0.0,0.0,0.0,0.0,0.0,0.0,0.0,0.0,0.0,0.0,0.0,0.0,0.0,0.0,0.0,0.0,0.0,0.0,0.0,0.0,0.0,0.0,0.0,0.0,0.0,0.0,0.0,0.0,0.0,0.0,0.0,0.0,0.0,0.0,0.0,0.0,0.0,0.0,0.0,-0.3195,-0.3596,-0.3877,-0.3975,-0.4005,0.0,0.0,0.0,0.0,0.0,0.0,-0.4764,-0.4999,-0.523,-0.5413,-0.5779,-0.5993,-0.603,-0.6296,-0.6467,-0.6569,-0.6569,-0.659,-0.6702,-0.6702,-0.6722,-0.6756,-0.6719,-0.6658,-0.6546,-0.5989,-0.5603,-0.5309,-0.5162,-0.5023,-0.4931,-0.5003,-0.5057,-0.5121,0.0,0.0,0.0,0.0,0.0,0.0,0.0,0.0,0.0,0.0,0.0,0.1444,0.1747,0.1399,0.1015,0.0702,0.0688,0.0501,0.0021,0.0,0.0,0.0,0.0,0.0,0.0,0.0,0.0,0.0,0.0,0.0,0.0,0.0,0.0,0.0,0.0,0.0,0.0,0.0,0.0,0.0,0.0,0.0,0.0,0.0,0.0,0.0,0.0,0.0,0.0,0.0,0.0,0.0,0.0,0.0,0.0,0.0,0.0,0.0,0.0,0.0,0.0,0.0,0.0,0.0,0.0,0.0,0.0,0.0,0.0,0.0,0.0,0.0,0.0,0.0,0.0,0.0,0.0,0.0,0.0,-0.4153,-0.4473,0.0,0.0,0.0,0.0,-0.484,-0.484,-0.5067,-0.5508,-0.5677,-0.5895,-0.6231,-0.6395,-0.6508,-0.6654,-0.6671,-0.6681,-0.6688,-0.6688,-0.6695,-0.6702,-0.6702,-0.678,-0.6866,-0.6763,-0.6776,-0.6829,-0.6417,-0.6132,-0.5919,-0.5667,-0.5552,-0.5528,-0.5423,-0.5467,-0.5559,0.0,0.0,0.0,0.0,0.0,0.1803,0.1803,0.1803,0.1846,0.1979,0.1702,0.1451,0.1368,0.1036,0.0692,0.0282,0.0242,0.0169,0.0,0.0,0.0,0.0,0.0,0.0,0.0,0.0,0.0,0.0,0.0,0.0,0.0,0.0,0.0,0.0,0.0,0.0,0.0,0.0,0.0,0.0,0.0,0.0,0.0,0.0,0.0,0.0,0.0,0.0,0.0,0.0,0.0,0.0,0.0,0.0,0.0,0.0,0.0,0.0,0.0,0.0,0.0,0.0,0.0,0.0,0.0,0.0,0.0,0.0,0.0,0.0,0.0,0.0,0.0,0.0,0.0,0.0,0.0,0.0,0.0,-0.4746,-0.4996,0.0,-0.5078,-0.5071,-0.5197,-0.5464,-0.5488,-0.5684,-0.617,-0.6245,-0.6329,-0.6536,-0.6688,-0.6837,-0.694,-0.7082,-0.7183,-0.7278,-0.7278,-0.7278,-0.7278,-0.7278,-0.7309,-0.7353,-0.7197,-0.7163,-0.7193,-0.6932,-0.6681,-0.6441,-0.6237,-0.6197,-0.619,-0.6136,-0.6149,-0.6211,0.0,0.0,0.0,0.0,0.1803,0.1803,0.1803,0.1836,0.1942,0.2146,0.1737,0.1387,0.129,0.0776,0.0335,0.0026,0.0,0.0,0.0,0.0,0.0,0.0,0.0,0.0,0.0,0.0,0.0,0.0,0.0,0.0,0.0,0.0,0.0,0.0,0.0,0.0,0.0,0.0,0.0,0.0,0.0,0.0,0.0,0.0,0.0,0.0,0.0,0.0,0.0,0.0,0.0,0.0,0.0,0.0,0.0,0.0,0.0,0.0,0.0,0.0,0.0,0.0,0.0,0.0,0.0,0.0,0.0,0.0,0.0,0.0,0.0,0.0,0.0,0.0,0.0,0.0,0.0,-0.4433,-0.4816,-0.5165,-0.5433,-0.56,-0.5549,-0.5641,-0.5801,-0.601,-0.6027,-0.6203,-0.6607,-0.6671,-0.6766,-0.6922,-0.7075,-0.72,-0.725,-0.7397,-0.7499,-0.76,-0.76,-0.76,-0.76,-0.76,-0.76,-0.7594,-0.7492,-0.7448,-0.7441,-0.7339,-0.7149,-0.6909,-0.6705,-0.6627,-0.662,-0.6569,-0.6549,-0.6563,0.0,0.0,0.0,0.1902,0.1803,0.1803,0.1803,0.1913,0.2116,0.246,0.1697,0.1251,0.1564,0.0673,0.0026,0.0,0.0,0.0,0.0,0.0,0.0,0.0,0.0,0.0,0.0,0.0,0.0,0.0,0.0,0.0,0.0,0.0,0.0,0.0,0.0,0.0,0.0,0.0,0.0,0.0,0.0,0.0,0.0,0.0,0.0,0.0,0.0,0.0,0.0,0.0,0.0,0.0,0.0,0.0,0.0,0.0,0.0,0.0,0.0,0.0,0.0,0.0,0.0,0.0,0.0,0.0,0.0,0.0,0.0,0.0,0.0,0.0,0.0,0.0,0.0,0.0,-0.4511,-0.4874,-0.5216,-0.5405,-0.5779,-0.5956,-0.5844,-0.6139,-0.6375,-0.6521,-0.6535,-0.6627,-0.6893,-0.7038,-0.7224,-0.7419,-0.7522,-0.76,-0.7607,-0.7607,-0.7607,-0.7614,-0.7614,-0.7614,-0.7614,-0.7614,-0.7614,-0.7614,-0.7607,-0.7607,-0.7607,-0.76,-0.7512,-0.7395,-0.7058,-0.6896,-0.6876,-0.677,-0.6715,-0.6712,0.0,0.0,0.2513,0.1902,0.1803,0.1803,0.1803,0.1913,0.2116,0.246,0.2141,0.1819,0.1611,0.1125,0.0584,0.0055,0.0,0.0,0.0,0.0,0.0,0.0,0.0,0.0,0.0,0.0,0.0,0.0,0.0,0.0,0.0,0.0,0.0,0.0,0.0,0.0,0.0,0.0,0.0,0.0,0.0,0.0,0.0,0.0,0.0,0.0,0.0,0.0,0.0,0.0,0.0,0.0,0.0,0.0,0.0,0.0,0.0,0.0,0.0,0.0,0.0,0.0,0.0,0.0,0.0,0.0,0.0,0.0,0.0,0.0,0.0,0.0,0.0,0.0,-0.4567,-0.4948,-0.4948,-0.5396,-0.584,-0.603,-0.6312,-0.6498,-0.6458,-0.6529,-0.6685,-0.6939,-0.6913,-0.7092,-0.7397,-0.7451,-0.7495,-0.7536,-0.758,-0.7648,-0.775,-0.7753,-0.7807,-0.787,-0.787,-0.787,-0.787,-0.787,-0.787,-0.7864,-0.7801,-0.7753,-0.7743,-0.7641,-0.7577,-0.7516,-0.7326,-0.718,-0.7034,-0.6991,-0.6974,-0.696,0.0,0.2697,0.2513,0.1902,0.1803,0.1803,0.1803,0.1967,0.2198,0.2541,0.237,0.2076,0.1729,0.129,0.0738,0.0055,0.0,0.0,0.0,0.0,0.0,0.0,0.0,0.0,0.0,0.0,0.0,0.0,0.0,0.0,0.0,0.0,0.0,0.0,0.0,0.0,0.0,0.0,0.0,0.0,0.0,0.0,0.0,0.0,0.0,0.0,0.0,0.0,0.0,0.0,0.0,0.0,0.0,0.0,0.0,0.0,0.0,0.0,0.0,0.0,0.0,0.0,0.0,0.0,0.0,0.0,0.0,0.0,0.0,0.0,0.0,0.0,0.0,0.0,-0.5172,-0.5494,-0.5596,-0.5905,-0.6207,-0.646,-0.6654,-0.6797,-0.6797,-0.6909,-0.7054,-0.7224,-0.7295,-0.7411,-0.759,-0.7655,-0.7689,-0.7689,-0.775,-0.7824,-0.7906,-0.7906,-0.7901,-0.7988,-0.7988,-0.7988,-0.7988,-0.7988,-0.7988,-0.7985,-0.7894,-0.7906,-0.7899,-0.7818,-0.7746,-0.7675,0.0,0.0,0.0,0.0,-0.7095,-0.7085,0.0,0.2697,0.2513,0.1902,0.1803,0.1803,0.1803,0.2029,0.2311,0.2634,0.2484,0.2192,0.1816,0.1327,0.0742,0.0053,0.0,0.0,0.0,0.0,0.0,0.0,0.0,0.0,0.0,0.0,0.0,0.0,0.0,0.0,0.0,0.0,0.0,0.0,0.0,0.0,0.0,0.0,0.0,0.0,0.0,0.0,0.0,0.0,0.0,0.0,0.0,0.0,0.0,0.0,0.0,0.0,0.0,0.0,0.0,0.0,0.0,0.0,0.0,0.0,0.0,0.0,0.0,0.0,0.0,0.0,0.0,0.0,0.0,0.0,0.0,0.0,0.0,0.0,-0.5659,-0.6122,-0.6347,-0.6375,-0.6474,-0.6695,-0.6875,-0.6937,-0.6937,-0.7234,-0.745,-0.7467,-0.7546,-0.7631,-0.7648,-0.777,0.0,0.0,0.0,-0.7988,-0.7988,-0.7988,-0.7988,-0.7988,-0.7988,-0.7988,-0.7988,-0.7988,-0.7988,-0.7988,-0.7988,-0.7988,-0.7988,-0.7988,-0.7911,-0.7821,-0.7662,-0.7516,-0.738,-0.7244,-0.7136,-0.7122,0.0,0.2697,0.2513,0.1902,0.1803,0.1803,0.1803,0.2029,0.2285,0.2503,0.2902,0.2782,0.1748,0.1721,0.1302,0.0106,0.0,0.0,0.0,0.0,0.0,0.0,0.0,0.0,0.0,0.0,0.0,0.0,0.0,0.0,0.0,0.0,0.0,0.0,0.0,0.0,0.0,0.0,0.0,0.0,0.0,0.0,0.0,0.0,0.0,0.0,0.0,0.0,0.0,0.0,0.0,0.0,0.0,0.0,0.0,0.0,0.0,0.0,0.0,0.0,0.0,0.0,0.0,0.0,0.0,0.0,0.0,0.0,0.0,0.0,0.0,0.0,0.0,-0.5727,-0.6057,-0.6352,-0.6746,-0.68,-0.682,-0.6836,-0.7122,-0.7285,-0.7285,-0.7451,-0.7604,-0.7719,-0.7753,-0.7824,-0.7897,-0.7931,-0.7944,-0.7944,-0.7975,-0.7988,-0.7988,-0.7988,-0.7988,-0.7988,-0.7988,0.0,-0.7988,-0.7988,-0.7988,-0.7988,-0.7988,-0.7988,-0.7988,-0.7988,-0.7971,-0.7921,-0.7702,-0.7584,-0.7553,-0.7522,-0.7431,-0.7326,0.2982,0.2799,0.2557,0.2084,0.1891,0.1803,0.1803,0.1977,0.2201,0.247,0.2815,0.2756,0.1992,0.1831,0.141,0.0426,0.0143,0.0,0.0,0.0,0.0,0.0,0.0,0.0,0.0,0.0,0.0,0.0,0.0,0.0,0.0,0.0,0.0,0.0,0.0,0.0,0.0,0.0,0.0,0.0,0.0,0.0,0.0,0.0,0.0,0.0,0.0,0.0,0.0,0.0,0.0,0.0,0.0,0.0,0.0,0.0,0.0,0.0,0.0,0.0,0.0,0.0,0.0,0.0,0.0,0.0,0.0,0.0,0.0,-0.4471,0.0,0.0,-0.5693,-0.6179,-0.6444,-0.6675,-0.6856,-0.6947,-0.6991,-0.6991,-0.7234,-0.7415,-0.7415,-0.7573,-0.7736,-0.7804,-0.7882,-0.7911,-0.7985,-0.7988,-0.7988,-0.7988,-0.7988,-0.7988,-0.7988,-0.7988,-0.7988,-0.7988,-0.7988,-0.7988,-0.7988,-0.7988,-0.7988,-0.7988,-0.7988,-0.7988,-0.7988,-0.7988,-0.7988,-0.7975,-0.783,-0.7773,-0.7695,-0.7628,-0.755,-0.7485,0.3223,0.2918,0.2589,0.2259,0.1978,0.1803,0.1803,0.1913,0.2106,0.2407,0.2599,0.2563,0.2192,0.1889,0.144,0.0761,0.0268,0.0,0.0,0.0,0.0,0.0,0.0,0.0,0.0,0.0,0.0,0.0,0.0,0.0,0.0,0.0,0.0,0.0,0.0,0.0,0.0,0.0,0.0,0.0,0.0,0.0,0.0,0.0,0.0,0.0,0.0,0.0,0.0,0.0,0.0,0.0,0.0,0.0,0.0,0.0,0.0,0.0,0.0,0.0,0.0,0.0,0.0,0.0,0.0,0.0,-0.3966,-0.4886,-0.5083,-0.5291,-0.5796,-0.6013,-0.6213,-0.6512,-0.6766,-0.6896,-0.6923,-0.7024,-0.7095,-0.7095,-0.7302,-0.746,-0.746,-0.7682,-0.7855,-0.7855,-0.7921,-0.7988,-0.7988,-0.7988,-0.7988,-0.7988,-0.7988,-0.7988,-0.7988,-0.7988,-0.7988,-0.7988,-0.7988,-0.7988,-0.7988,-0.7988,-0.7988,-0.7988,-0.7988,-0.7988,-0.7988,-0.7988,-0.7988,-0.7988,-0.7988,-0.7914,-0.7841,-0.7726,-0.7665,-0.7641,0.0,0.3046,0.2589,0.2259,0.1978,0.1803,0.1803,0.1913,0.2059,0.2214,0.2506,0.2526,0.2065,0.2097,0.174,0.0794,0.0263,0.0,0.0,0.0,0.0,0.0,0.0,0.0,0.0,0.0,0.0,0.0,0.0,0.0,0.0,0.0,0.0,0.0,0.0,0.0,0.0,0.0,0.0,0.0,0.0,0.0,0.0,0.0,0.0,0.0,0.0,0.0,0.0,0.0,0.0,0.0,0.0,0.0,0.0,0.0,0.0,0.0,0.0,-0.0636,-0.1654,-0.3221,-0.3638,-0.3966,0.0,0.0,-0.5272,-0.5637,-0.581,-0.5969,-0.6211,-0.6364,-0.6522,-0.6827,-0.6862,-0.693,-0.7055,-0.7085,-0.7095,-0.7095,-0.7397,-0.7573,-0.7573,-0.7841,-0.7965,-0.7965,-0.7978,-0.7988,-0.7988,-0.7988,-0.7988,-0.7988,-0.7988,-0.7988,-0.7988,-0.7988,-0.7988,-0.7988,-0.7988,-0.7988,-0.7988,-0.7988,-0.7988,-0.7988,-0.7988,-0.7988,-0.7988,-0.7988,-0.7988,-0.7988,-0.7988,-0.7978,-0.7961,-0.7944,-0.7902,-0.7787,0.0,0.3068,0.2654,0.2513,0.211,0.1803,0.1803,0.1846,0.1933,0.2073,0.2279,0.2384,0.2294,0.2169,0.1718,0.0781,0.0517,0.0291,0.0026,0.0,0.0,0.0,0.0,0.0,0.0,0.0,0.0,0.0,0.0,0.0,0.0,0.0,0.0,0.0,0.0,0.0,0.0,0.0,0.0,0.0,0.0,0.0,0.0,0.0,0.0,0.0,0.0,0.0,0.0,0.0,0.0,0.0,0.0,0.0,0.0,0.0,0.0,0.0,-0.0512,-0.1425,-0.2476,0.0,-0.4341,-0.4983,-0.5497,-0.5603,-0.5705,-0.6044,-0.6186,-0.6363,-0.6607,-0.6698,-0.6807,0.0,-0.7126,-0.7177,-0.7098,-0.7217,-0.7241,-0.7105,-0.7333,-0.7502,-0.759,-0.7787,-0.7894,-0.7982,-0.7988,-0.7988,-0.7988,-0.7988,-0.7988,-0.7988,-0.7988,-0.7988,-0.7988,-0.7988,-0.7988,-0.7988,-0.7988,-0.7988,-0.7988,-0.7988,-0.7988,-0.7988,-0.7988,-0.7988,-0.7988,-0.7988,-0.7988,-0.7988,-0.7988,-0.7988,-0.7988,-0.7988,-0.7948,-0.7894,0.0,0.3121,0.2783,0.2708,0.2263,0.188,0.1814,0.1803,0.1846,0.1979,0.2117,0.2295,0.2524,0.2223,0.1741,0.112,0.0835,0.0547,0.0222,0.0082,0.0,0.0,0.0,0.0,0.0,0.0,0.0,0.0,0.0,0.0,0.0,0.0,0.0,0.0,0.0,0.0,0.0,0.0,0.0,0.0,0.0,0.0,0.0,0.0,0.0,0.0,0.0,0.0,0.0,0.0,0.0,0.0,0.0,0.0,0.0,0.0,0.0,-0.015,-0.0888,-0.1769,-0.2705,-0.3673,-0.4643,-0.5457,-0.5787,-0.5945,-0.6101,-0.632,-0.6474,-0.659,-0.677,-0.6829,-0.693,-0.7071,-0.7272,-0.7346,-0.723,-0.7326,-0.7329,-0.7217,-0.7265,-0.7383,-0.758,-0.7729,-0.7875,-0.7978,-0.7988,-0.7988,-0.7988,-0.7988,-0.7988,-0.7988,-0.7988,-0.7988,-0.7988,-0.7988,-0.7988,-0.7988,-0.7988,-0.7988,-0.7988,-0.7988,-0.7988,-0.7988,-0.7988,-0.7988,-0.7988,-0.7988,-0.7988,-0.7988,-0.7988,-0.7988,-0.7988,-0.7988,-0.7988,-0.7988,0.0,0.0,0.3004,0.274,0.2415,0.2095,0.1836,0.1803,0.1846,0.1979,0.2117,0.2321,0.2658,0.2278,0.1989,0.1967,0.1193,0.0698,0.0688,0.0256,0.0,0.0,0.0,0.0,0.0,0.0,0.0,0.0,0.0,0.0,0.0,0.0,0.0,0.0,0.0,0.0,0.0,0.0,0.0,0.0,0.0,0.0,0.0,0.0,0.0,0.0,0.0,0.0,0.0,0.0,0.0,0.0,0.0,0.0,0.0,0.0,0.0,-0.0154,-0.0893,-0.1221,-0.1801,-0.3714,-0.447,-0.5051,-0.6212,-0.6563,-0.6634,-0.6535,-0.6586,-0.6651,-0.6552,-0.6729,-0.693,-0.7071,-0.7272,-0.7421,-0.7567,-0.7461,-0.7415,-0.7409,-0.7238,-0.722,0.0,-0.7729,-0.7875,-0.7978,-0.7988,-0.7988,-0.7988,-0.7988,-0.7988,-0.7988,-0.7988,-0.7988,-0.7988,-0.7988,-0.7988,-0.7988,-0.7988,-0.7988,-0.7988,-0.7988,-0.7988,-0.7988,-0.7988,-0.7988,-0.7988,-0.7988,-0.7988,-0.7988,-0.7988,-0.7988,-0.7988,-0.7988,-0.7988,-0.7988,0.0,0.0,0.0,0.2982,0.2546,0.2172,0.2073,0.1913,0.1846,0.1979,0.2239,0.0,0.0,0.0,0.0,0.0,0.1804,0.1418,0.0751,0.0631,0.0408,0.0028,0.0,0.0,0.0,0.0,0.0,0.0,0.0,0.0,0.0,0.0,0.0,0.0,0.0,0.0,0.0,0.0,0.0,0.0,0.0,0.0,0.0,0.0,0.0,0.0,0.0,0.0,0.0,0.0,0.0,0.0,0.0,0.0,0.0,0.0,0.0,-0.0063,-0.0305,-0.0921,-0.184,-0.3242,-0.4241,-0.5167,-0.6365,-0.6664,-0.6685,-0.6634,-0.6583,-0.6563,-0.6614,-0.6709,-0.6827,-0.6933,-0.7295,-0.7506,-0.7455,-0.7573,-0.759,-0.7439,-0.7414,0.0,0.0,0.0,0.0,-0.7971,-0.7988,-0.7988,-0.7988,-0.7988,-0.7988,-0.7988,-0.7988,-0.7988,-0.7988,-0.7988,-0.7988,-0.7988,-0.7988,-0.7988,-0.7988,-0.7988,-0.7988,-0.7988,-0.7988,-0.7988,-0.7988,-0.7988,-0.7988,-0.7988,-0.7988,-0.7988,-0.7988,-0.7988,-0.7988,-0.7988,0.0,0.0,0.0,0.0,0.0,0.0,0.0,0.0,0.0,0.0,0.0,0.0,0.0,0.0,0.0,0.0,0.0,0.1882,0.1284,0.1194,0.0904,0.0357,0.0309,0.0231,0.0,0.0,0.0,0.0,0.0,0.0,0.0,0.0,0.0,0.0,0.0,0.0,0.0,0.0,0.0,0.0,0.0,0.0,0.0,0.0,0.0,0.0,0.0,0.0,0.0,0.0,0.0,0.0,0.0,0.0,0.0,0.0,0.0,0.0,0.0,-0.0489,-0.132,-0.2458,-0.3271,-0.4196,-0.5759,-0.614,-0.6229,-0.6495,-0.642,-0.6325,-0.6369,-0.638,-0.6481,-0.6797,-0.7177,-0.7458,-0.7519,-0.7692,-0.774,-0.755,-0.757,-0.7617,0.0,0.0,0.0,-0.7971,-0.7988,-0.7988,-0.7988,-0.7988,-0.7988,-0.7988,-0.7988,-0.7988,-0.7988,-0.7988,-0.7988,-0.7988,-0.7988,-0.7988,-0.7988,-0.7988,-0.7988,-0.7988,-0.7988,-0.7988,-0.7988,-0.7988,-0.7988,-0.7988,-0.7988,-0.7988,-0.7988,-0.7988,-0.7988,-0.7988,0.0,0.0,0.0,0.0,0.0,0.0,0.0,0.0,0.0,0.0,0.0,0.0,0.0,0.0,0.0,0.0,0.0,0.0,0.219,0.1848,0.1435,0.0946,0.0954,0.0674,0.0056,0.0056,0.0028,0.0,0.0,0.0,0.0,0.0,0.0,0.0,0.0,0.0,0.0,0.0,0.0,0.0,0.0,0.0,0.0,0.0,0.0,0.0,0.0,0.0,0.0,0.0,0.0,0.0,0.0,0.0,0.0,0.0,0.0,0.0,0.0,0.0,-0.0281,-0.1496,-0.178,-0.2384,-0.454,-0.5006,-0.5247,-0.5979,-0.5998,-0.5802,0.0,0.0,-0.5956,-0.6583,-0.6946,-0.726,-0.774,-0.7814,-0.7821,0.0,0.0,0.0,0.0,0.0,0.0,-0.7978,-0.7988,-0.7988,-0.7988,-0.7988,-0.7988,-0.7988,-0.7988,-0.7988,-0.7988,-0.7988,-0.7988,-0.7988,-0.7988,-0.7988,-0.7988,-0.7988,-0.7988,-0.7988,-0.7988,-0.7988,-0.7988,-0.7988,-0.7988,-0.7988,-0.7988,-0.7988,-0.7988,-0.7988,-0.7988,-0.7988,0.0,0.0,0.0,0.0,0.0,0.0,0.0,0.0,0.0,0.0,0.0,0.0,0.0,0.0,0.0,0.0,0.0,0.0,0.2083,0.2187,0.2016,0.1449,0.151,0.1282,0.0674,0.0666,0.0439,0.0,0.0,0.0,0.0,0.0,0.0,0.0,0.0,0.0,0.0,0.0,0.0,0.0,0.0,0.0,0.0,0.0,0.0,0.0,0.0,0.0,0.0,0.0,0.0,0.0,0.0,0.0,0.0,0.0,0.0,0.0,0.0,0.0,-0.0299,-0.1498,-0.182,-0.2165,-0.3649,-0.3922,-0.3893,-0.4036,-0.3869,-0.3893,0.0,0.0,0.0,-0.623,-0.6902,0.0,-0.7621,-0.7841,0.0,-0.7824,0.0,-0.7847,-0.7818,-0.7867,0.0,-0.7985,-0.7988,-0.7988,-0.7988,-0.7988,-0.7988,-0.7988,-0.7988,-0.7988,-0.7988,-0.7988,-0.7988,-0.7988,-0.7988,-0.7988,-0.7988,-0.7988,-0.7988,-0.7988,-0.7988,-0.7988,-0.7988,-0.7988,-0.7988,-0.7988,-0.7988,-0.7988,-0.7988,-0.7988,-0.7988,-0.7988,0.0,0.0,0.0,0.0,0.0,0.0,0.0,0.0,0.0,0.0,0.0,0.0,0.0,0.0,0.0,0.0,0.0,0.0,0.0,0.257,0.2464,0.2004,0.2066,0.1847,0.13,0.1354,0.1178,0.0783,0.084,0.0835,0.0793,0.0793,0.0793,0.0793,0.0793,0.0793,0.0793,0.0793,0.0802,0.0,0.0,0.0386,0.0358,0.0108,0.0,0.0,0.0,0.0,0.0,0.0,0.0,0.0,0.0,0.0,0.0,0.0,0.0,0.0,0.0,0.0,-0.0177,-0.085,-0.1024,-0.1312,-0.2472,-0.2662,-0.2695,-0.304,-0.296,0.0,-0.3872,-0.4212,-0.4766,0.0,0.0,0.0,-0.756,-0.7851,-0.7958,0.0,-0.7938,0.0,-0.787,-0.7938,-0.7988,-0.7988,-0.7988,-0.7988,-0.7988,-0.7988,-0.7988,-0.7988,-0.7988,-0.7988,-0.7988,-0.7988,-0.7988,-0.7988,-0.7988,-0.7988,-0.7988,-0.7988,-0.7988,-0.7988,-0.7988,-0.7988,-0.7988,-0.7988,-0.7637,-0.7185,-0.7786,-0.7282,-0.6326,-0.688,-0.6731,-0.6224,0.0,0.0,0.0,0.0,0.0,0.0,0.0,0.0,0.0,0.0,0.0,0.0,0.0,0.0,0.0,0.0,0.0,0.0,0.0,0.0,0.2827,0.2624,0.2625,0.2408,0.1926,0.2023,0.2007,0.1803,0.1915,0.1902,0.181,0.181,0.181,0.181,0.181,0.181,0.181,0.181,0.181,0.1761,0.1241,0.1038,0.0983,0.0,0.0,0.0,0.0,0.0,0.0,0.0,0.0,0.0,0.0,0.0,0.0,0.0,0.0,0.0,0.0,0.0,0.0,0.0,0.0,-0.0256,-0.1195,-0.1378,-0.16,-0.2351,0.0,-0.2565,-0.3311,-0.3649,-0.4271,-0.5606,0.0,-0.7041,-0.7529,-0.7834,-0.7968,-0.7988,-0.7988,-0.7988,-0.7988,-0.7988,-0.7988,-0.7988,-0.7988,-0.7988,-0.7988,-0.7988,-0.7988,-0.7988,-0.7988,-0.7988,-0.7988,-0.7988,-0.7988,-0.7988,-0.7988,-0.7988,-0.7988,-0.7988,-0.7988,-0.7988,-0.7789,-0.7739,-0.7736,-0.7534,-0.6781,-0.5827,-0.7033,-0.6024,-0.4166,-0.5322,-0.502,-0.4016,0.0,0.0,0.0,0.0,0.0,0.0,0.0,0.0,0.0,0.0,0.3062,0.2696,0.0,0.0,0.0,0.0,0.0,0.0,0.0,0.0,0.0,0.3169,0.3311,0.3136,0.2568,0.2568,0.2315,0.1803,0.0,0.1828,0.181,0.181,0.181,0.181,0.181,0.181,0.181,0.181,0.181,0.1789,0.1795,0.181,0.1742,0.1144,0.0,0.0,0.0,0.0,0.0,0.0,0.0,0.0,0.0,0.0,0.0,0.0,0.0,0.0,0.0,0.0,0.0,0.0,0.0,-0.0042,-0.0238,-0.0261,0.0,0.0,-0.0485,-0.0706,-0.1428,-0.2325,-0.3379,-0.4701,-0.5851,-0.6797,-0.7502,-0.7743,-0.7896,0.0,-0.7988,-0.7988,-0.7988,-0.7988,0.0,0.0,-0.7988,-0.7988,-0.7988,-0.7988,-0.7988,-0.7988,-0.7988,-0.7988,-0.7988,-0.7988,-0.7988,-0.7988,-0.7988,-0.7988,-0.7988,-0.7988,-0.7988,-0.7939,-0.6833,-0.6331,-0.6279,-0.517,-0.4568,-0.4368,-0.4618,-0.4416,-0.4016,-0.4268,-0.4216,-0.4016,0.0,0.0,0.0,0.0,0.0,0.0,0.0,0.4682,0.4998,0.4813,0.4474,0.391,0.2999,0.2788,0.2696,0.0,0.0,0.0,0.0,0.0,0.0,0.0,0.3422,0.3388,0.3167,0.0,0.0,0.0,0.0,0.0,0.0,0.0,0.0,0.0,0.0,0.0,0.0,0.2746,0.2746,0.2732,0.2542,0.2479,0.0,0.0,0.0,0.0,0.0,0.0,0.0,0.0,0.0,0.0,0.0,0.0,0.0,0.0,0.0,0.0,0.0,0.0,0.0,0.0,0.0,0.0,0.0,0.0,0.0,0.0,0.0,-0.0228,-0.0953,-0.1651,0.0,-0.3573,-0.4444,-0.5127,-0.5568,-0.6351,0.0,-0.6945,-0.7587,-0.7988,0.0,-0.7988,-0.7988,-0.7988,-0.7988,-0.7988,-0.7988,-0.7988,-0.7988,-0.7988,-0.7988,-0.7988,-0.7988,-0.7988,-0.7988,-0.7988,-0.7285,-0.6983,-0.6933,-0.6226,-0.5922,-0.5872,-0.522,-0.497,-0.492,-0.4268,-0.3565,-0.3015,-0.3715,-0.3165,-0.2013,-0.2715,-0.2514,-0.1913,0.0,0.0,0.0,0.0,0.0,0.0,0.0,0.5256,0.5766,0.5841,0.5902,0.5349,0.383,0.3279,0.2959,0.0,0.0,0.0,0.0,0.0,0.0,0.0,0.0,0.3499,0.0,0.0,0.0,0.0,0.0,0.0,0.0,0.0,0.0,0.0,0.0,0.0,0.0,0.0,0.3621,0.0,0.0,0.0,0.0,0.0,0.0,0.0,0.0,0.0,0.0,0.0,0.0,0.0,0.0,0.0,0.0,0.0,0.0,0.0,0.0,0.0,0.0,0.0,0.0,0.0,0.0,0.0,0.0,0.0,0.0,-0.0168,-0.0755,0.0,-0.1759,0.0,-0.3092,-0.3521,-0.3766,-0.4809,-0.5631,0.0,-0.6915,0.0,-0.7988,-0.7988,0.0,-0.7988,-0.7739,-0.7686,-0.7988,-0.7988,-0.7988,-0.7988,-0.7988,-0.7839,-0.7587,-0.7587,-0.7434,-0.7132,-0.6077,-0.5575,-0.5525,-0.4468,-0.4016,-0.3966,-0.3715,-0.3565,-0.3566,-0.3265,-0.2514,-0.1661,-0.2715,-0.1862,-0.0151,-0.1159,-0.0907,0.0,0.0,0.0,0.0,0.0,0.0,0.0,0.0,0.5755,0.6469,0.6354,0.6536,0.6383,0.5545,0.4615,0.3788,0.0,0.0,0.0,0.0,0.0,0.0,0.0,0.0,0.0,0.0,0.0,0.0,0.0,0.0,0.0,0.0,0.0,0.0,0.0,0.0,0.0,0.0,0.0,0.0,0.0,0.0,0.0,0.0,0.0,0.0,0.0,0.0,0.0,0.0,0.0,0.0,0.0,0.0,0.0,0.0,0.0,0.0,0.0,0.0,0.0,0.0,0.0,0.0,0.0,0.0,0.0,0.0,0.0,0.0,-0.0028,-0.0084,-0.0675,-0.1309,-0.1812,0.0,-0.3156,0.0,0.0,-0.4479,-0.5846,0.0,0.0,-0.7889,-0.7988,-0.7988,-0.7988,-0.6883,-0.6731,-0.7939,-0.7988,-0.7988,-0.7988,-0.7988,-0.7434,-0.6179,-0.6179,-0.5575,-0.4366,-0.4266,-0.4166,-0.4166,-0.4066,-0.4016,-0.3915,-0.2715,-0.2163,-0.2113,-0.0857,-0.0303,-0.0202,-0.0303,-0.0202,0.0,-0.0151,-0.0101,0.0,0.0,0.0,0.0,0.0,0.0,0.0,0.5531,0.6043,0.6653,0.7502,0.7519,0.7286,0.6831,0.5877,0.4832,0.3741,0.0,0.0,0.0,0.0,0.0,0.0,0.0,0.0,0.0,0.0,0.0,0.0,0.0,0.0,0.0,0.0,0.0,0.0,0.0,0.0,0.0,0.0,0.0,0.0,0.0,0.0,0.0,0.0,0.0,0.0,0.0,0.0,0.0,0.0,0.0,0.0,0.0152,0.0,0.0,0.0,0.0,0.0,0.0,0.0,0.0,0.0,0.0,0.0,0.0,0.0,0.0,0.0,0.0,0.0,0.0,-0.0252,-0.0485,-0.0695,-0.095,-0.1238,-0.1476,-0.2213,0.0,-0.3545,-0.4321,0.0,0.0,0.0,-0.557,-0.557,-0.512,-0.502,-0.557,-0.557,-0.557,-0.557,-0.557,-0.532,-0.482,-0.482,-0.4518,-0.3966,-0.3165,-0.2815,-0.2764,-0.1962,-0.1611,-0.1561,-0.1008,-0.0807,-0.0756,-0.0202,0.0,0.0,0.0,0.0,0.0,0.0,0.0,0.0,0.0,0.0,0.0,0.0,0.0,0.5062,0.582,0.6156,0.6713,0.7852,0.7949,0.7738,0.7344,0.6464,0.5454,0.4312,0.3643,0.0,0.0,0.0,0.0,0.0,0.0,0.0,0.0,0.0,0.3836,0.3927,0.0,0.0,0.0,0.0,0.0,0.0,0.0,0.0,0.0,0.0,0.0,0.0,0.0,0.0,0.0,0.0,0.0,0.0,0.0,0.0,0.0,0.0,0.0,0.0,0.0,0.0,0.0,0.0,0.0,0.0,0.0,0.0,0.0,0.0,0.0,0.0,0.0,0.0,0.0,0.0,0.0,0.0,0.0,0.0,0.0,0.0,0.0,0.0,0.0,-0.0813,0.0,0.0,0.0,-0.3577,-0.3939,-0.399,-0.3815,-0.3416,-0.3416,-0.3215,-0.2815,-0.2815,-0.3165,-0.3966,-0.4016,-0.3815,-0.3416,-0.3416,-0.3215,-0.2815,-0.1862,-0.141,-0.136,-0.0454,0.0,0.0,0.0,0.0,0.0,0.0,0.0,0.0,0.0,0.0,0.0,0.0,0.0,0.0,0.0,0.0,0.0,0.0,0.0,0.0,0.526,0.6043,0.6693,0.6973,0.7539,0.7631,0.6882,0.6137,0.5425,0.476,0.3839,0.0,0.0,0.0,0.0,0.0,0.0,0.0,0.0,0.0,0.3941,0.419,0.419,0.4194,0.0,0.0,0.0,0.0,0.0,0.0,0.0,0.0,0.0,0.0,0.0,0.0,0.0,0.0,0.0,0.0,0.0,0.0,0.0,0.0,0.0,0.0,0.0,0.0,0.0,0.0,0.0,0.0,0.0,0.0,0.0,0.0,0.0,0.0,0.0,0.0,0.0,0.0,0.0,0.0,0.0,0.0,0.0,0.0,0.0,0.0,0.0,0.0,0.0,0.0,0.0,-0.2559,-0.3887,-0.3981,-0.3466,-0.2113,-0.2013,-0.1461,-0.0101,-0.0051,-0.126,-0.3915,-0.4016,-0.3364,-0.2013,-0.2013,-0.136,-0.0051,-0.0051,0.0,0.0,0.0,0.0,0.0,0.0,0.0,0.0,0.0,0.0,0.0,0.0,0.0,0.0,0.0,0.0,0.0,0.0,0.0,0.0,0.0,0.0,0.0,0.0,0.4768,0.5161,0.6128,0.6249,0.6317,0.6505,0.587,0.5233,0.4732,0.3971,0.0,0.0,0.0,0.0,0.0,0.0,0.0,0.0,0.0,0.4021,0.4197,0.4345,0.4395,0.4395,0.4395,0.4317,0.0,0.0,0.0,0.0,0.0,0.0,0.0,0.0,0.0,0.0,0.0,0.0,0.0,0.0,0.0,0.0,0.0,0.0,0.0,0.0,0.0,0.0,0.0,0.0,0.0,0.0,0.0,0.0,0.0,0.0,0.0,0.0,0.0,0.0,0.0,0.0,0.0,0.0,0.0,0.0,0.0,0.0,0.0,0.0,0.0,0.0,-0.0562,-0.0655,-0.0788,0.0,0.0,-0.1109,-0.0656,-0.0656,-0.0454,0.0,0.0,-0.0404,-0.126,-0.126,-0.1058,-0.0656,-0.0656,-0.0404,0.0,0.0,0.0,0.0,0.0,0.0,0.0,0.0,0.0,0.0,0.0,0.0,0.0,0.0,0.0,0.0,0.0,0.0,0.0,0.0,0.0,0.0,0.0,0.0,0.0,0.0,0.4184,0.4435,0.522,0.5288,0.5364,0.5615,0.5189,0.4737,0.438,0.3895,0.0,0.0,0.0,0.0,0.0,0.0,0.0,0.3873,0.3947,0.4095,0.4301,0.4477,0.4545,0.4491,0.4549,0.447,0.4301,0.4247,0.0,0.0,0.0,0.0,0.0,0.0,0.0,0.0,0.0,0.0,0.0,0.0,0.0,0.0,0.0,0.0,0.0,0.0,0.0,0.0,0.0,0.0,0.0,0.0,0.0,0.0,0.0,0.0,0.0,0.0,0.0,0.0,0.0,0.0,0.0,0.0,0.0,0.0,0.0,0.0,0.0,0.0,0.0,0.0,0.0,0.0,0.0,0.0,0.0,0.0,0.0,0.0,0.0,0.0,0.0,0.0,0.0,0.0,0.0,0.0,0.0,0.0,0.0,0.0,0.0,0.0,0.0,0.0,0.0,0.0,0.0,0.0,0.0,0.0,0.0,0.0,0.0,0.0,0.0,0.0,0.0,0.0,0.0,0.0,0.0,0.0,0.0,0.0,0.4114,0.4297,0.4309,0.4583,0.4665,0.438,0.424,0.4062,0.378,0.0,0.0,0.0,0.0,0.0,0.0,0.0,0.0,0.3987,0.3994,0.4165,0.4491,0.4644,0.4648,0.4508,0.4662,0.4655,0.4501,0.4311,0.422,0.0,0.0,0.0,0.0,0.0,0.0,0.0,0.0,0.0,0.0,0.0,0.0,0.0,0.0,0.0,0.0,0.0,0.0,0.0,0.0,0.0,0.0,0.0,0.0,0.0,0.0,0.0,0.0,0.0,0.0,0.0,0.0,0.0,0.0,0.0,0.0,0.0,0.0,0.0,0.0,0.0,0.0,0.0,0.0,0.0,0.0,0.0,0.0,0.0,0.0,0.0,0.0,0.0,0.0,0.0,0.0,0.0,0.0,0.0,0.0,0.0,0.0,0.0,0.0,0.0,0.0,0.0,0.0,0.0,0.0,0.0,0.0,0.0,0.0,0.0,0.0,0.0,0.0,0.0,0.0,0.0,0.0,0.0,0.0,0.0,0.0,0.0,0.0,0.0,0.0,0.363,0.3704,0.3779,0.384,0.3774,0.0,0.0,0.0,0.0,0.0,0.0,0.0,0.0,0.0,0.3987,0.3994,0.4165,0.4491,0.4644,0.4674,0.4668,0.4796,0.4782,0.4665,0.4602,0.4521,0.0,0.0,0.0,0.0,0.0,0.0,0.0,0.0,0.0,0.0,0.426,0.425,0.0,0.0,0.0,0.0,0.0,0.0,0.0,0.0,0.0,0.0,0.0,0.0,0.0,0.0,0.0,0.0,0.0,0.0,0.0,0.0,0.0,0.0,0.0,0.0,0.0,0.0,0.0,0.0,0.0,0.0,0.0,0.0,0.0,0.0,0.0,0.0,0.0,0.0,0.0,0.0,0.0,0.0,0.0,0.0,0.0,0.0,0.0,0.0,0.0,0.0,0.0,0.0,0.0,0.0,0.0,0.0,0.0,0.0,0.0,0.0,0.0,0.0,0.0,0.0,0.0,0.0,0.0,0.0,0.0,0.0,0.0,0.0,0.0,0.0,0.0,0.0,0.0,0.0,0.0,0.3185,0.3353,0.3486,0.0,0.0,0.0,0.0,0.0,0.0,0.0,0.0,0.0,0.3717,0.3987,0.3994,0.4165,0.4491,0.4644,0.4691,0.4694,0.4775,0.4769,0.4687,0.4644,0.4566,0.0,0.0,0.0,0.0,0.0,0.0,0.0,0.0,0.0,0.0,0.4092,0.4115,0.0,0.4314,0.3635,0.2732,0.0,0.0,0.0,0.0,0.0252,0.0,0.0,0.0,0.0,0.0,0.0,0.0,0.0,0.0,0.0,0.0,0.0,0.0,0.0,0.0,0.0,0.0,0.0,0.0,0.0,0.0,0.0,0.0,0.0,0.0,0.0,0.0,0.0,0.0,0.0,0.0,0.0,0.0,0.0,0.0,0.0,0.0,0.0,0.0,0.0,0.0,0.0,0.0,0.0,0.0,0.0,0.0,0.0,0.0,0.0,0.0,0.0,0.0,0.0,0.0,0.0,0.0,0.0,0.0,0.0,0.0,0.0,0.0,0.0,0.0,0.0,0.0,0.0,0.0,0.0,0.0,0.0,0.0,0.0,0.0,0.0,0.0,0.0,0.0,0.0,0.0,0.3634,0.3741,0.3991,0.4018,0.4189,0.4491,0.4668,0.4724,0.4724,0.4772,0.4769,0.4718,0.4593,0.4511,0.0,0.0,0.0,0.0,0.0,0.0,0.0,0.0,0.0,0.0,0.0,0.0,0.0,0.4136,0.3797,0.3349,0.3292,0.0,0.0,0.0,0.0,0.0,0.0028,0.0,0.0,0.0,0.0,0.0,0.0,0.0,0.0,0.0,0.0,0.0,0.0,0.0,0.0,0.0,0.0,0.0,0.0,0.0,0.0,0.0,0.0,0.0,0.0,0.0,0.0,0.0,0.0,0.0,0.0,0.0,0.0,0.0,0.0,0.0,0.0,0.0,0.0,0.0,0.0,0.0,0.0,0.0,0.0,0.0,0.0,0.0,0.0,0.0,0.0,0.0,0.0,0.0,0.0,0.0,0.0,0.0,0.0,0.0,0.0,0.0,0.0,0.0,0.0,0.0,0.0,0.0,0.0,0.0,0.0,0.0,0.0,0.0,0.0,0.0,0.0,0.0,0.0,0.3754,0.3761,0.3839,0.3991,0.4119,0.4267,0.4491,0.4745,0.4884,0.4891,0.5173,0.5156,0.4877,0.4724,0.461,0.4491,0.4491,0.0,0.0,0.0,0.0,0.0,0.0,0.0,0.0,0.0,0.0,0.0,0.3981,0.3637,0.3156,0.313,0.0,0.0,0.0,0.0,0.0,0.0174,0.0,0.0,0.0,0.0,0.0,0.0,0.0,0.0,0.0,0.0,0.0,0.0,0.0,0.0,0.0,0.0,0.0,0.0,0.0,0.0,0.0,0.0,0.0,0.0,0.0,0.0,0.0,0.0,0.0,0.0,0.0,0.0,0.0,0.0,0.0,0.0,0.0,0.0,0.0,0.0,0.0,0.0,0.0,0.0,0.0,0.0,0.0,0.0,0.0,0.0,0.0,0.0,0.0,0.0,0.0,0.0,0.0,0.0,0.0,0.0,0.0,0.0,0.0,0.0,0.0,0.0,0.0,0.0,0.0,0.0,0.0,0.0,0.0,0.0,0.0,0.0,0.0,0.3747,0.3788,0.3948,0.4045,0.4115,0.4287,0.4436,0.4614,0.4887,0.5002,0.5005,0.5094,0.5006,0.4789,0.4665,0.4556,0.4491,0.4491,0.0,0.0,0.0,0.0,0.0,0.0,0.0,0.0,0.0,0.0,0.0,0.0,0.3799,0.3691,0.3691,0.0,0.0,0.0,0.0,0.0,0.0766,0.0527,0.0418,0.0089,0.0,0.0,0.0,0.0,0.0,0.0,0.0,0.0,0.0,0.0,0.0,0.0,0.0,0.0,0.0,0.0,0.0,0.0,0.0,0.0,0.0,0.0,0.0,0.0,0.0,0.0,0.0,0.0,0.0,0.0,0.0,0.0,0.0,0.0,0.0,0.0,0.0,0.0,0.0,0.0,0.0,0.0,0.0,0.0,0.0,0.0,0.0,0.0,0.0,0.0,0.0,0.0,0.0,0.0,0.0,0.0,0.0,0.0,0.0,0.0,0.0,0.0,0.0,0.0,0.0,0.0,0.0,0.0,0.0,0.0,0.0,0.0,0.0,0.3737,0.3809,0.3843,0.4078,0.421,0.4271,0.444,0.4634,0.4796,0.4988,0.5117,0.5182,0.5005,0.4887,0.4738,0.461,0.4525,0.4491,0.4491,0.4491,0.0,0.0,0.0,0.0,0.0,0.0,0.0,0.0,0.0,0.0,0.0,0.0,0.0,0.0,0.0,0.0,0.3428,0.2834,0.209,0.1314,0.0989,0.0746,0.0152,0.0,0.0,0.0,0.0,0.0,0.0,0.0,0.0,0.0,0.0,0.0,0.0,0.0,0.0,0.0,0.0,0.0,0.0,0.0,0.0,0.0,0.0,0.0,0.0,0.0,0.0,0.0,0.0,0.0,0.0,0.0,0.0,0.0,0.0,0.0,0.0,0.0,0.0,0.0,0.0,0.0,0.0,0.0,0.0,0.0,0.0,0.0,0.0,0.0,0.0,0.0,0.0,0.0,0.0,0.0,0.0,0.0,0.0,0.0,0.0,0.0,0.0,0.0,0.0,0.0,0.0,0.0,0.0,0.0,0.0,0.0,0.0,0.0,0.3737,0.3856,0.3971,0.4136,0.4284,0.447,0.4624,0.4813,0.5066,0.509,0.5203,0.5375,0.5186,0.5009,0.4867,0.4745,0.4624,0.4491,0.4491,0.4491,0.4491,0.0,0.0,0.0,0.0,0.0,0.0,0.0,0.0,0.0,0.0,0.0,0.0,0.0,0.0,0.4267,0.3539,0.316,0.2748,0.1437,0.0995,0.0767,0.0153,0.0,0.0,0.0,0.0,0.0,0.0,0.0,0.0,0.0,0.0,0.0,0.0,0.0,0.0,0.0,0.0,0.0,0.0,0.0,0.0,0.0,0.0,0.0,0.0,0.0,0.0,0.0,0.0,0.0,0.0,0.0,0.0,0.0,0.0,0.0,0.0,0.0,0.0,0.0,0.0,0.0,0.0,0.0,0.0,0.0,0.0,0.0,0.0,0.0,0.0,0.0,0.0,0.0,0.0,0.0,0.0,0.0,0.0,0.0,0.0,0.0,0.0,0.0,0.0,0.0,0.0,0.0,0.0,0.0,0.0,0.0,0.0,0.0,0.3802,0.3937,0.3994,0.425,0.445,0.4631,0.4755,0.4931,0.51,0.51,0.5209,0.5388,0.5016,0.4826,0.4769,0.4644,0.4545,0.4491,0.4491,0.4491,0.4491,0.4491,0.0,0.0,0.0,0.0,0.0,0.0,0.0,0.0,0.0,0.3822,0.3987,0.395,0.4192,0.4415,0.3974,0.3772,0.3387,0.2122,0.1623,0.1218,0.025,0.0,0.0,0.0,0.0,0.0,0.0,0.0,0.0,0.0,0.0,0.0,0.0,0.0,0.0,0.0,0.0,0.0,0.0,0.0,0.0,0.0,0.0,0.0,0.0,0.0,0.0,0.0,0.0,0.0,0.0,0.0,0.0,0.0,0.0,0.0,0.0,0.0,0.0,0.0,0.0,0.0,0.0,0.0,0.0,0.0,0.0,0.0,0.0,0.0,0.0,0.0,0.0,0.0,0.0,0.0,0.0,0.0,0.0,0.0,0.0,0.0,0.0,0.0,0.0,0.0,0.0,0.0,0.0,0.0,0.0,0.0,0.0,0.3604,0.3812,0.3944,0.3994,0.426,0.4487,0.4687,0.4792,0.4962,0.5203,0.5203,0.5209,0.5248,0.4857,0.4718,0.4755,0.458,0.4515,0.4559,0.4511,0.4491,0.4491,0.4491,0.4429,0.0,0.0,0.0,0.0,0.0,0.0,0.0,0.0,0.3782,0.3944,0.3938,0.4148,0.4385,0.4304,0.4026,0.3501,0.2482,0.1857,0.126,0.0252,0.0,0.0,0.0,0.0,0.0,0.0,0.0,0.0,0.0,0.0,0.0,0.0,0.0,0.0,0.0,0.0,0.0,0.0,0.0,0.0,0.0,0.0,0.0,0.0,0.0,0.0,0.0,0.0,0.0,0.0,0.0,0.0,0.0,0.0,0.0,0.0,0.0,0.0,0.0,0.0,0.0,0.0,0.0,0.0,0.0,0.0,0.0,0.0,0.0,0.0,0.0,0.0,0.0,0.0,0.0,0.0,0.0,0.0,0.0,0.0,0.0,0.0,0.0,0.0,0.0,0.0,0.0,0.0,0.0,0.0,0.0,0.0,0.3604,0.3737,0.386,0.3987,0.4139,0.4358,0.468,0.4691,0.4941,0.5392,0.5392,0.5238,0.4884,0.4762,0.4772,0.487,0.4627,0.4576,0.4677,0.4556,0.4491,0.4491,0.4491,0.4491,0.0,0.0,0.0,0.0,0.0,0.0,0.0,0.0,0.3788,0.3843,0.4122,0.4194,0.425,0.4447,0.3843,0.2974,0.238,0.1575,0.0774,0.0,0.0,0.0,0.0,0.0,0.0,0.0,0.0,0.0,0.0,0.0,0.0,0.0,0.0,0.0,0.0,0.0,0.0,0.0,0.0,0.0,0.0,0.0,0.0,0.0,0.0,0.0,0.0,0.0,0.0,0.0,0.0,0.0,0.0,0.0,0.0,0.0,0.0,0.0,0.0,0.0,0.0,0.0,0.0,0.0,0.0,0.0,0.0,0.0,0.0,0.0,0.0,0.0,0.0,0.0,0.0,0.0,0.0,0.0,0.0,0.0,0.0,0.0,0.0,0.0,0.0,0.0,0.0,0.0,0.0,0.0,0.0,0.0,0.3604,0.3737,0.386,0.3987,0.4139,0.4311,0.4552,0.4665,0.4809,0.505,0.505,0.4948,0.4758,0.4711,0.4657,0.4627,0.4644,0.4617,0.4556,0.4508,0.4491,0.4491,0.4491,0.4491,0.0,0.0,0.0,0.0,0.0,0.0,0.0,0.0,0.0,0.0,0.3897,0.4144,0.4389,0.4301,0.4189,0.391,0.3187,0.2325,0.0,0.0914,0.0,0.0,0.0,0.0,0.0,0.0,0.0,0.0,0.0,0.0,0.0,0.0,0.0,0.0,0.0,0.0,0.0,0.0,0.0,0.0,0.0,0.0,0.0,0.0,0.0,0.0,0.0,0.0,0.0,0.0,0.0,0.0,0.0,0.0,0.0,0.0,0.0,0.0,0.0,0.0,0.0,0.0,0.0,0.0,0.0,0.0,0.0,0.0,0.0,0.0,0.0,0.0,0.0,0.0,0.0,0.0,0.0,0.0,0.0,0.0,0.0,0.0,0.0,0.0,0.3604,0.0,0.0,0.0,0.0,0.0,0.0,0.0,0.0,0.3744,0.386,0.3987,0.4139,0.4291,0.4487,0.4641,0.4707,0.4738,0.4799,0.4752,0.4631,0.4663,0.4674,0.465,0.4741,0.4728,0.4668,0.4607,0.4545,0.4491,0.4491,0.4491,0.4474,0.0,0.0,0.0,0.0,0.0,0.0,0.0,0.0,0.0,0.3775,0.0,0.415,0.3866,0.3641,0.3345,0.2632,0.1824,0.0,0.0737,0.0341,0.0,0.0,0.0,0.0,0.0,0.0,0.0,0.0,0.0,0.0,0.0,0.0,0.0,0.0,0.0,0.0,0.0,0.0,0.0,0.0,0.0,0.0,0.0,0.0,0.0,0.0,0.0,0.0,0.0,0.0,0.0,0.0,0.0,0.0,0.0,0.0,0.0,0.0,0.0,0.0,0.0,0.0,0.0,0.0,0.0,0.0,0.0,0.0,0.0,0.0,0.0,0.0,0.0,0.0,0.0,0.0,0.0,0.0,0.0,0.0,0.0,0.0,0.0,0.3604,0.3604,0.0,0.0,0.0,0.0,0.0,0.0,0.0,0.3792,0.3866,0.4008,0.4159,0.4301,0.4487,0.4627,0.4631,0.4491,0.4644,0.4641,0.4494,0.4662,0.4779,0.487,0.4881,0.4881,0.4887,0.4735,0.4617,0.4491,0.4491,0.4491,0.4474,0.4277,0.0,0.0,0.0,0.0,0.0,0.0,0.0,0.0,0.3751,0.3799,0.375,0.3327,0.2742,0.2079,0.147,0.0,0.0,0.0114,0.004,0.0,0.0,0.0,0.0,0.0,0.0,0.0,0.0,0.0,0.0,0.0,0.0,0.0,0.0,0.0,0.0,0.0,0.0,0.0,0.0,0.0,0.0,0.0,0.0,0.0,0.0,0.0,0.0,0.0,0.0,0.0,0.0,0.0,0.0,0.0,0.0,0.0,0.0,0.0,0.0,0.0,0.0,0.0,0.0,0.0,0.0,0.0,0.0,0.0,0.0,0.0,0.0,0.0,0.0,0.0,0.0,0.0,0.0,0.0,0.0,0.0,0.0,0.0,0.0,0.0,0.0,0.0,0.0,0.0,0.0,0.0,0.0,0.3792,0.3914,0.4133,0.4338,0.4457,0.4491,0.4522,0.4525,0.4491,0.4644,0.4641,0.4494,0.4741,0.4823,0.4745,0.4863,0.4853,0.4728,0.4604,0.4518,0.4491,0.4491,0.4491,0.4474,0.4277,0.4129,0.0,0.0,0.0,0.0,0.0,0.0,0.0,0.3782,0.3873,0.3956,0.3958,0.3968,0.3795,0.3103,0.2343,0.0,0.0,0.0427,0.0,0.0,0.0,0.0,0.0,0.0,0.0,0.0,0.0,0.0,0.0,0.0,0.0,0.0,0.0,0.0,0.0,0.0,0.0,0.0,0.0,0.0,0.0,0.0,0.0,0.0,0.0,0.0,0.0,0.0,0.0,0.0,0.0,0.0,0.0,0.0,0.0,0.0,0.0,0.0,0.0,0.0,0.0,0.0,0.0,0.0,0.0,0.0,0.0,0.0,0.0,0.0,0.0,0.0,0.0,0.0,0.0,0.0,0.0,0.0,0.0,0.0,0.0,0.0,0.0,0.0,0.0,0.0,0.0,0.0,0.0,0.0,0.39,0.4036,0.4338,0.445,0.4491,0.4491,0.4491,0.4491,0.4491,0.4573,0.4607,0.4604,0.4809,0.4911,0.4904,0.4955,0.4908,0.4792,0.4665,0.4556,0.4491,0.4491,0.445,0.4351,0.425,0.4082,0.39,0.3819,0.0,0.0,0.0,0.0,0.0,0.0,0.0,0.3851,0.3556,0.359,0.3504,0.0,0.0,0.0,0.0759,0.0,0.0,0.0,0.0,0.0,0.0,0.0,0.0,0.0,0.0,0.0,0.0,0.0,0.0,0.0,0.0,0.0,0.0,0.0,0.0,0.0,0.0,0.0,0.0,0.0,0.0,0.0,0.0,0.0,0.0,0.0,0.0,0.0,0.0,0.0,0.0,0.0,0.0,0.0,0.0,0.0,0.0,0.0,0.0,0.0,0.0,0.0,0.0,0.0,0.0,0.0,0.0,0.0,0.0,0.0,0.0,0.0,0.0,0.0,0.0,0.0,0.0,0.0,0.0,0.0,0.0,0.0,0.0,0.0,0.0,0.0,0.0,0.0,0.4004,0.4182,0.4477,0.4491,0.4491,0.4491,0.4491,0.4491,0.4491,0.4491,0.4607,0.4809,0.4884,0.4965,0.5096,0.5073,0.4999,0.4874,0.4701,0.4541,0.445,0.4423,0.4314,0.4153,0.4127,0.3987,0.3788,0.3765,0.3716,0.3658,0.3751,0.0,0.0,0.0,0.0,0.3671,0.3081,0.2997,0.2817,0.0,0.0,0.0,0.0,0.0,0.0,0.0,0.0,0.0,0.0,0.0,0.0,0.0,0.0,0.0,0.0,0.0,0.0,0.0,0.0,0.0,0.0,0.0,0.0,0.0,0.0,0.0,0.0,0.0,0.0,0.0,0.0,0.0,0.0,0.0,0.0,0.0,0.0,0.0,0.0,0.0,0.0,0.0,0.0,0.0,0.0,0.0,0.0,0.0,0.0,0.0,0.0,0.0,0.0,0.0,0.0,0.0,0.0,0.0,0.0,0.0,0.0,0.0,0.0,0.0,0.0,0.0,0.0,0.0,0.3604,0.3604,0.3604,0.0,0.0,0.0,0.0,0.3812,0.0,0.0,0.4484,0.4491,0.4491,0.4491,0.4491,0.4491,0.4491,0.4491,0.4771,0.53,0.503,0.4965,0.5093,0.4972,0.4908,0.4864,0.4453,0.4271,0.4237,0.4105,0.4041,0.4011,0.39,0.3826,0.3775,0.3675,0.3699,0.3768,0.3785,0.388,0.0,0.0,0.0,0.3792,0.3671,0.3752,0.3685,0.0,0.0,0.0,0.0,0.0,0.0,0.0,0.0,0.0,0.0,0.0,0.0,0.0,0.0,0.0,0.0,0.0,0.0,0.0,0.0,0.0,0.0,0.0,0.0,0.0,0.0,0.0,0.0,0.0,0.0,0.0,0.0,0.0,0.0,0.0,0.0,0.0,0.0,0.0,0.0,0.0,0.0,0.0,0.0,0.0,0.0,0.0,0.0,0.0,0.0,0.0,0.0,0.0,0.0,0.0,0.0,0.0,0.0,0.0,0.0,0.0,0.0,0.0,0.0,0.0,0.0,0.0,0.0,0.0,0.372,0.372,0.372,0.0,0.0,0.0,0.0,0.3782,0.4051,0.0,0.4338,0.4447,0.4491,0.4491,0.4385,0.4382,0.4491,0.4382,0.4694,0.5392,0.5262,0.5335,0.5585,0.5308,0.5118,0.4978,0.4558,0.4294,0.419,0.4149,0.4169,0.4233,0.3914,0.3897,0.3981,0.3693,0.3645,0.372,0.3863,0.394,0.3984,0.3941,0.0,0.0,0.0,0.3778,0.0,0.2656,0.0,0.0,0.0,0.0,0.0,0.0,0.0,0.0,0.0,0.0,0.0,0.0,0.0,0.0,0.0,0.0,0.0,0.0,0.0,0.0,0.0,0.0,0.0,0.0,0.0,0.0,0.0,0.0,0.0,0.0,0.0,0.0,0.0,0.0,0.0,0.0,0.0,0.0,0.0,0.0,0.0,0.0,0.0,0.0,0.0,0.0,0.0,0.0,0.0,0.0,0.0,0.0,0.0,0.0,0.0,0.0,0.0,0.0,0.0,0.0,0.0,0.0,0.0,0.0,0.0,0.0,0.0,0.0,0.0,0.3846,0.0,0.0,0.0,0.0,0.0,0.3782,0.0,0.0,0.0,0.4385,0.4491,0.4491,0.4294,0.4291,0.4491,0.4291,0.4621,0.5453,0.5453,0.5698,0.6141,0.5691,0.5369,0.5159,0.474,0.448,0.4385,0.4308,0.4365,0.4464,0.4216,0.4223,0.4341,0.3995,0.386,0.3856,0.3991,0.4051,0.4045,0.4008,0.3994,0.0,0.0,0.0,0.0,0.0,0.0,0.0,0.0,0.0,0.0,0.0,0.0,0.0,0.0,0.0,0.0,0.0,0.0,0.0,0.0,0.0,0.0,0.0,0.0,0.0,0.0,0.0,0.0,0.0,0.0,0.0,0.0,0.0,0.0,0.0,0.0,0.0,0.0,0.0,0.0,0.0,0.0,0.0,0.0,0.0,0.0,0.0,0.0,0.0,0.0,0.0,0.0,0.0,0.0,0.0,0.0,0.0,0.0,0.0,0.0,0.0,0.0,0.0,0.0,0.0,0.0,0.0,0.0,0.0,0.0,0.0,0.0,0.0,0.0,0.3967,0.3877,0.3788,0.3782,0.0,0.0,0.0,0.0,0.0,0.0,0.0,0.0,0.4491,0.4294,0.4291,0.4491,0.4291,0.4675,0.5579,0.5579,0.5966,0.6637,0.6044,0.562,0.5354,0.49,0.4758,0.483,0.4597,0.4484,0.4535,0.4908,0.4958,0.4833,0.4694,0.4566,0.4426,0.425,0.4184,0.416,0.4041,0.3994,0.3937,0.0,0.0,0.0,0.0,0.0,0.0,0.0,0.0,0.0,0.0,0.0,0.0,0.0,0.0,0.0,0.0,0.0,0.0,0.0,0.0,0.0,0.0,0.0,0.0,0.0,0.0,0.0,0.0,0.0,0.0,0.0,0.0,0.0,0.0,0.0,0.0,0.0,0.0,0.0,0.0,0.0,0.0,0.0,0.0,0.0,0.0,0.0,0.0,0.0,0.0,0.0,0.0,0.0,0.0,0.0,0.0,0.0,0.0,0.0,0.0,0.0,0.0,0.0,0.0,0.0,0.0,0.0,0.0,0.0,0.0,0.0,0.0,0.0,0.0,0.4092,0.4018,0.3944,0.3802,0.0,0.0,0.0,0.0,0.0,0.0,0.0,0.4491,0.4226,0.4149,0.4297,0.4149,0.4436,0.5162,0.5388,0.562,0.5873,0.5718,0.5657,0.5596,0.4887,0.4662,0.4762,0.4653,0.487,0.5204,0.5043,0.5228,0.5541,0.51,0.4816,0.4644,0.4635,0.4459,0.417,0.4041,0.3994,0.3937,0.3689,0.3714,0.0,0.0,0.0,0.0,0.0,0.1375,0.1044,0.0767,0.0343,0.0,0.0,0.0,0.0,0.0,0.0,0.0,0.0,0.0,0.0,0.0,0.0,0.0,0.0,0.0,0.0,0.0,0.0,0.0,0.0,0.0,0.0,0.0,0.0,0.0,0.0,0.0,0.0,0.0,0.0,0.0,0.0,0.0,0.0,0.0,0.0,0.0,0.0,0.0,0.0,0.0,0.0,0.0,0.0,0.0,0.0,0.0,0.0,0.0,0.0,0.0,0.0,0.0,0.0,0.0,0.0,0.0,0.0,0.3846,0.3974,0.0,0.0,0.0,0.0,0.4133,0.4008,0.3927,0.387,0.387,0.3987,0.0,0.0,0.0,0.0,0.0,0.4222,0.4119,0.4197,0.4068,0.4274,0.4847,0.5074,0.5276,0.547,0.5386,0.5501,0.5691,0.5126,0.4928,0.4996,0.5043,0.5274,0.5596,0.5647,0.5841,0.6132,0.5747,0.5467,0.5209,0.5162,0.4847,0.4483,0.4281,0.4107,0.3894,0.3675,0.3751,0.0,0.3223,0.0,0.0,0.0,0.0,0.1778,0.1714,0.1017,0.0513,0.0961,0.0497,0.0139,0.0513,0.028,0.0,0.0,0.0,0.0,0.0,0.0,0.0,0.0,0.0,0.0,0.0,0.0,0.0,0.0,0.0,0.0,0.0,0.0,0.0,0.0,0.0,0.0,0.0,0.0,0.0,0.0,0.0,0.0,0.0,0.0,0.0,0.0,0.0,0.0,0.0,0.0,0.0,0.0,0.0,0.0,0.0,0.0,0.0,0.0,0.0,0.0,0.0,0.0,0.0,0.0,0.0,0.0,0.386,0.3984,0.0,0.0,0.0,0.0,0.0,0.4028,0.4011,0.4004,0.4001,0.4139,0.0,0.0,0.0,0.0,0.4491,0.4294,0.4194,0.4187,0.4065,0.4243,0.467,0.468,0.4999,0.5545,0.5118,0.5165,0.5569,0.5559,0.5569,0.5599,0.5728,0.5722,0.5739,0.6694,0.6861,0.6562,0.6664,0.6525,0.6252,0.5772,0.541,0.5059,0.4779,0.4277,0.3771,0.3655,0.3716,0.3802,0.0,0.0,0.0,0.0,0.0,0.0,0.2937,0.0,0.1499,0.2801,0.1491,0.0437,0.1603,0.0896,0.0091,0.0047,0.0,0.0,0.0,0.0,0.0,0.0,0.0,0.0,0.0,0.0,0.0,0.0,0.0,0.0,0.0,0.0,0.0,0.0,0.0,0.0,0.0,0.0,0.0,0.0,0.0,0.0,0.0,0.0,0.0,0.0,0.0,0.0,0.0,0.0,0.0,0.0,0.0,0.0,0.0,0.0,0.0,0.0,0.0,0.0,0.0,0.0,0.0,0.4058,0.395,0.4028,0.4112,0.0,0.0,0.0,0.4487,0.4524,0.4551,0.4507,0.4429,0.4297,0.4166,0.4174,0.4197,0.4197,0.4385,0.4491,0.4491,0.4294,0.414,0.4058,0.4014,0.4058,0.4209,0.4453,0.4702,0.4942,0.5002,0.5052,0.5091,0.49,0.5122,0.5572,0.5389,0.5777,0.6552,0.6519,0.6831,0.7265,0.7082,0.6859,0.6709,0.6474,0.5979,0.5352,0.4754,0.4263,0.3923,0.391,0.3981,0.4072,0.396,0.0,0.0,0.0,0.0,0.0,0.0,0.0,0.207,0.2689,0.2339,0.2122,0.2628,0.2594,0.2195,0.1289,0.0503,0.0,0.0,0.0,0.0,0.0,0.0,0.0,0.0,0.0,0.0,0.0,0.0,0.0,0.0,0.0,0.0,0.0,0.0,0.0,0.0,0.0,0.0,0.0,0.0,0.0,0.0,0.0,0.0,0.0,0.0,0.0,0.0,0.0,0.0,0.0,0.0,0.0,0.0,0.0,0.0,0.0,0.0,0.0,0.0,0.4351,0.4338,0.4307,0.4219,0.428,0.4338,0.0,0.0,0.0,0.458,0.4748,0.4823,0.4701,0.4638,0.4522,0.4348,0.4338,0.4338,0.4338,0.4447,0.4491,0.4491,0.4379,0.4237,0.4089,0.4089,0.4058,0.4001,0.4263,0.4389,0.4419,0.4628,0.4685,0.4597,0.445,0.4769,0.5416,0.561,0.6078,0.6668,0.6841,0.7156,0.7499,0.7441,0.7284,0.7183,0.7031,0.6444,0.5644,0.4891,0.449,0.4263,0.4048,0.4142,0.4264,0.4051,0.4192,0.0,0.0,0.0,0.0,0.4016,0.3354,0.2941,0.375,0.3205,0.2849,0.3549,0.34,0.2949,0.2274,0.175,0.1088,0.0139,0.0,0.0,0.0,0.0,0.0,0.0,0.0,0.0,0.0,0.0,0.0,0.0,0.0,0.0,0.0,0.0,0.0,0.0,0.0,0.0,0.0,0.0,0.0,0.0,0.0,0.0,0.0,0.0,0.0,0.0,0.0,0.0,0.0,0.0,0.0,0.0,0.0,0.0,0.0,0.0,0.0,0.4494,0.4511,0.4515,0.4528,0.4559,0.4552,0.4552,0.0,0.4604,0.4682,0.4819,0.5043,0.5046,0.4813,0.4745,0.4679,0.4525,0.4498,0.4491,0.4491,0.4491,0.4491,0.4491,0.4491,0.4392,0.4197,0.4197,0.4153,0.4021,0.4133,0.4123,0.4028,0.4133,0.4197,0.4197,0.4231,0.4601,0.5194,0.6044,0.6409,0.6501,0.7383,0.7614,0.7478,0.7723,0.774,0.7621,0.7434,0.6807,0.5939,0.5214,0.4911,0.4704,0.425,0.4328,0.4525,0.4199,0.4217,0.4395,0.4636,0.45,0.0,0.4921,0.4263,0.3927,0.5262,0.4069,0.3152,0.4379,0.3839,0.3145,0.3026,0.328,0.2768,0.0669,0.0273,0.0183,0.018,0.0093,0.0,0.0,0.0,0.0,0.0,0.0,0.0,0.0,0.0,0.0,0.0,0.0,0.0,0.0,0.0,0.0,0.0,0.0,0.0,0.0,0.0,0.0,0.0,0.0,0.0,0.0,0.0,0.0,0.0,0.0,0.0,0.0,0.0,0.0,0.0,0.0,0.447,0.4528,0.4651,0.4646,0.4724,0.4962,0.4904,0.4918,0.5187,0.5327,0.5471,0.5703,0.5606,0.5477,0.542,0.5084,0.4809,0.4685,0.4559,0.4491,0.4491,0.4491,0.4491,0.4491,0.4491,0.4392,0.4197,0.4197,0.418,0.4153,0.418,0.418,0.4153,0.418,0.4197,0.421,0.4476,0.488,0.5375,0.564,0.6247,0.6947,0.7149,0.7489,0.785,0.7834,0.7872,0.7843,0.7502,0.7014,0.6458,0.5827,0.5528,0.5325,0.4874,0.4952,0.5153,0.4823,0.4938,0.5102,0.4765,0.4921,0.0,0.4706,0.4611,0.4697,0.4967,0.4722,0.4598,0.5135,0.5125,0.4748,0.3775,0.4004,0.3912,0.2812,0.1955,0.1439,0.1434,0.0587,0.0,0.0,0.0,0.0,0.0,0.0,0.0,0.0,0.0,0.0,0.0,0.0,0.0,0.0,0.0,0.0,0.0,0.0,0.0,0.0,0.0,0.0,0.0,0.0,0.0,0.0,0.0,0.0,0.0,0.0,0.0,0.0,0.0,0.0,0.0,0.4491,0.4491,0.4539,0.4663,0.4755,0.4904,0.5199,0.5186,0.5247,0.5576,0.5815,0.5895,0.582,0.581,0.5722,0.5528,0.5135,0.4853,0.4701,0.4576,0.4491,0.4491,0.4491,0.4491,0.4491,0.4491,0.4453,0.4355,0.4257,0.4157,0.4109,0.416,0.4197,0.4197,0.4197,0.4304,0.4442,0.4442,0.4728,0.5199,0.5874,0.6542,0.7129,0.7425,0.7729,0.7978,0.7904,0.7924,0.7907,0.7434,0.7105,0.6803,0.6129,0.5918,0.5856,0.5294,0.533,0.5429,0.502,0.5026,0.5104,0.4948,0.4969,0.0,0.0,0.4691,0.4755,0.4948,0.4908,0.4921,0.5327,0.5362,0.5183,0.4673,0.4913,0.4996,0.4589,0.3343,0.2468,0.2468,0.1474,0.0782,0.0782,0.0304,0.0,0.0,0.0,0.0,0.0,0.0,0.0,0.0,0.0,0.0,0.0,0.0,0.0,0.0,0.0,0.0,0.0,0.0,0.0,0.0,0.0,0.0,0.0,0.0,0.0,0.0,0.0,0.0,0.0,0.0,0.0404,0.1008,0.4491,0.4491,0.4539,0.4663,0.4816,0.502,0.5347,0.5395,0.5521,0.5844,0.6179,0.631,0.5966,0.6095,0.6067,0.5767,0.5328,0.5026,0.4874,0.4696,0.4566,0.4535,0.4505,0.4505,0.4535,0.4505,0.4491,0.4491,0.4291,0.4133,0.4041,0.4137,0.418,0.4153,0.4237,0.4412,0.4674,0.4409,0.4648,0.5301,0.6268,0.6766,0.6957,0.7611,0.7864,0.7874,0.7958,0.7988,0.7911,0.7398,0.7206,0.7065,0.638,0.6288,0.6317,0.574,0.5699,0.5711,0.5291,0.522,0.5218,0.5189,0.506,0.4928,0.0,0.0,0.0,0.4938,0.4813,0.4788,0.0,0.5084,0.5043,0.5201,0.546,0.5661,0.5637,0.4437,0.3496,0.3323,0.2433,0.1824,0.1831,0.1039,0.0462,0.0302,0.0257,0.013,0.0,0.0,0.0,0.0,0.0,0.0,0.0,0.0,0.0,0.0,0.0,0.0,0.0,0.0,0.0,0.0,0.0,0.0,0.0,0.0,0.0,0.0,0.0,0.0,0.0,0.0,0.0857,0.2013,0.4491,0.4491,0.4539,0.4663,0.4816,0.502,0.5347,0.5395,0.56,0.6173,0.6583,0.6932,0.719,0.6966,0.6815,0.6889,0.6179,0.564,0.5498,0.5098,0.4806,0.467,0.4563,0.4552,0.4663,0.4559,0.4491,0.4491,0.4291,0.4187,0.417,0.4187,0.4123,0.4031,0.4321,0.4559,0.4687,0.4657,0.5281,0.6347,0.6484,0.6359,0.6212,0.7115,0.7448,0.7499,0.7847,0.7988,0.7958,0.7804,0.7651,0.7465,0.6937,0.6795,0.6763,0.6334,0.6395,0.6505,0.6231,0.6298,0.6312,0.5566,0.561,0.5637,0.475,0.0,0.4806,0.461,0.0,0.4532,0.4583,0.0,0.0,0.459,0.4925,0.513,0.5005,0.5185,0.5012,0.4178,0.3191,0.2623,0.2756,0.2555,0.213,0.1469,0.1136,0.0694,0.0044,0.0,0.0,0.0,0.0,0.0,0.0,0.0,0.0,0.0,0.0,0.0,0.0,0.0,0.0,0.0,0.0,0.0,0.0,0.0,0.0,0.0,0.0,0.0,0.0,0.0,0.0857,0.2013,0.4491,0.4491,0.4539,0.4663,0.4745,0.4918,0.5337,0.5839,0.623,0.6481,0.6983,0.7333,0.7412,0.718,0.7031,0.7092,0.6556,0.6091,0.5861,0.5508,0.524,0.5119,0.4798,0.4667,0.4819,0.4614,0.4491,0.4491,0.4291,0.4197,0.4197,0.4197,0.4324,0.4523,0.4758,0.5081,0.5457,0.5284,0.5501,0.5976,0.6146,0.6088,0.6034,0.7285,0.7756,0.7784,0.7924,0.7988,0.7941,0.7665,0.7577,0.7536,0.7122,0.7007,0.6953,0.6729,0.6675,0.6634,0.6381,0.645,0.6417,0.5776,0.5694,0.5593,0.4887,0.4691,0.4667,0.4718,0.0,0.0,0.0,0.0,0.0,0.0,0.4752,0.4853,0.4796,0.5026,0.5111,0.4905,0.3985,0.3148,0.271,0.2619,0.2471,0.2242,0.2093,0.1652,0.0792,0.0857,0.0654,0.0,0.0,0.0,0.0,0.0,0.0,0.0,0.0,0.0,0.0,0.0,0.0,0.0,0.0,0.0,0.0,0.0,0.0,0.0,0.0,0.0,0.0099,0.0854,0.2013,0.3265,0.4491,0.0,0.4525,0.4638,0.4697,0.4918,0.544,0.6071,0.6576,0.6742,0.7214,0.7543,0.7553,0.7455,0.7371,0.7452,0.7061,0.6671,0.6413,0.6006,0.576,0.5648,0.517,0.4928,0.5036,0.4745,0.4576,0.4491,0.4291,0.4197,0.4197,0.4197,0.4395,0.4719,0.5026,0.5481,0.5922,0.583,0.5915,0.6152,0.6242,0.6327,0.6519,0.7489,0.7884,0.7988,0.7988,0.7988,0.7934,0.7614,0.7567,0.7611,0.7304,0.722,0.7193,0.7092,0.7,0.6881,0.6583,0.6648,0.661,0.5956,0.5725,0.5498,0.4925,0.4718,0.4684,0.4826,0.4808,0.0,0.0,0.0,0.4638,0.468,0.0,0.4724,0.4668,0.4758,0.4938,0.5184,0.4587,0.3898,0.3267,0.3183,0.3115,0.3052,0.2989,0.2578,0.1802,0.1865,0.149,0.0478,0.0441,0.0312,0.0,0.0,0.0,0.0,0.0,0.0,0.0,0.0,0.0,0.0,0.0,0.018,0.0494,0.0501,0.0687,0.0965,0.0999,0.1016,0.1122,0.1747,0.2865,0.4216,0.4491,0.4491,0.4491,0.4498,0.4714,0.5111,0.5698,0.5935,0.6222,0.6802,0.719,0.7543,0.7921,0.7965,0.8126,0.8414,0.7902,0.7495,0.7385,0.6685,0.6276,0.6272,0.5696,0.5375,0.5382,0.5057,0.4758,0.4491,0.4291,0.4197,0.4197,0.4197,0.4204,0.4247,0.503,0.5559,0.5827,0.6153,0.6784,0.7509,0.7176,0.7405,0.7877,0.7539,0.7662,0.7988,0.7988,0.7988,0.7965,0.7851,0.7801,0.778,0.7631,0.7587,0.7556,0.74,0.7458,0.7506,0.7149,0.7224,0.7139,0.6057,0.5796,0.5562,0.4709,0.4806,0.4999,0.4755,0.5068,0.5279,0.4969,0.4881,0.4857,0.4714,0.4816,0.0,0.0,0.4631,0.4701,0.4711,0.4935,0.5043,0.5014,0.4895,0.4576,0.3995,0.373,0.3361,0.2882,0.2865,0.2471,0.1557,0.1561,0.1053,0.0,0.0,0.0,0.0,0.0,0.0,0.0,0.0,0.0,0.0,0.0,0.0673,0.1746,0.1747,0.2416,0.3492,0.3477,0.3548,0.3532,0.2431,0.2865,0.4216,0.4641,0.0,0.4701,0.4525,0.4658,0.5036,0.583,0.6296,0.6795,0.7434,0.7689,0.7984,0.8435,0.8394,0.8411,0.8615,0.8357,0.8035,0.7685,0.7339,0.7054,0.6851,0.6313,0.5996,0.5996,0.5501,0.5064,0.4765,0.4616,0.4541,0.4538,0.4436,0.4497,0.4685,0.5267,0.5822,0.6264,0.6573,0.6932,0.724,0.7139,0.7456,0.7975,0.7872,0.786,0.7988,0.7988,0.7988,0.7982,0.7931,0.7896,0.7821,0.7875,0.7756,0.7607,0.7648,0.7634,0.7577,0.7472,0.755,0.7458,0.661,0.6251,0.5931,0.5087,0.4988,0.5015,0.4752,0.5081,0.5303,0.4975,0.4887,0.4867,0.4714,0.4735,0.4697,0.0,0.4535,0.4566,0.4566,0.4718,0.0,0.484,0.4796,0.4759,0.473,0.4636,0.4295,0.3651,0.3844,0.354,0.2607,0.2686,0.2625,0.2369,0.1612,0.1612,0.237,0.1567,0.1612,0.237,0.237,0.237,0.237,0.237,0.2592,0.2992,0.2992,0.3215,0.3623,0.3607,0.3683,0.3855,0.4347,0.487,0.5525,0.4782,0.485,0.4857,0.466,0.488,0.5352,0.6146,0.6732,0.7299,0.7896,0.8102,0.8367,0.8818,0.8781,0.876,0.8859,0.873,0.8476,0.8075,0.7865,0.7645,0.7344,0.6915,0.6648,0.6498,0.605,0.5593,0.5159,0.5006,0.4877,0.4769,0.4644,0.4677,0.4908,0.5389,0.5918,0.6538,0.6912,0.7231,0.7412,0.7412,0.7644,0.7988,0.7988,0.7988,0.7988,0.7988,0.7988,0.7988,0.7988,0.7924,0.7909,0.7958,0.786,0.7763,0.7801,0.7784,0.7733,0.7628,0.7702,0.7645,0.6953,0.6637,0.6288,0.5477,0.542,0.5433,0.5081,0.5313,0.5528,0.5413,0.5176,0.4979,0.4935,0.4796,0.4665,0.0,0.4491,0.4491,0.4491,0.0,0.0,0.0,0.4565,0.4657,0.4952,0.4941,0.4807,0.4523,0.4809,0.4575,0.3678,0.3819,0.3774,0.3614,0.2815,0.2815,0.357,0.2815,0.2858,0.3614,0.3614,0.3614,0.3614,0.3614,0.3838,0.4239,0.4239,0.4461,0.4823,0.4845,0.4954,0.5183,0.5622,0.6178,0.6833,0.4935,0.4935,0.4958,0.4975,0.5454,0.602,0.6637,0.7102,0.7651,0.8262,0.8418,0.8672,0.9173,0.9221,0.9221,0.9221,0.9032,0.8821,0.8523,0.8235,0.7955,0.7851,0.756,0.7268,0.6937,0.6651,0.6238,0.5623,0.5481,0.5245,0.0,0.0,0.0,0.0,0.5386,0.0,0.6528,0.7146,0.7624,0.7988,0.7988,0.7988,0.7988,0.7988,0.7988,0.7988,0.7988,0.7988,0.7988,0.7988,0.7988,0.7988,0.7988,0.7988,0.7961,0.7865,0.7877,0.7928,0.7699,0.7719,0.7685,0.7071,0.6913,0.6674,0.5854,0.6023,0.6207,0.5725,0.5752,0.5939,0.6238,0.5654,0.5203,0.5354,0.4999,0.4658,0.4511,0.4491,0.4494,0.4501,0.0,0.0,0.0,0.4301,0.4341,0.4657,0.4687,0.4914,0.5358,0.563,0.547,0.4788,0.492,0.4574,0.3785,0.3701,0.3703,0.3792,0.3703,0.3703,0.3792,0.3792,0.3792,0.3792,0.3792,0.4419,0.5492,0.5492,0.6115,0.7095,0.7095,0.7284,0.7476,0.631,0.6776,0.7988,0.5289,0.5644,0.5986,0.6207,0.6091,0.6247,0.7071,0.7394,0.7797,0.8503,0.8726,0.895,0.9286,0.9323,0.9323,0.9323,0.9184,0.9018,0.8832,0.8642,0.8469,0.8316,0.8024,0.778,0.7587,0.6966,0.6461,0.6126,0.5634,0.5264,0.5042,0.0,0.0,0.0,0.0,0.5796,0.619,0.6898,0.7479,0.7988,0.7988,0.7988,0.7988,0.7988,0.7988,0.7988,0.7988,0.7988,0.7988,0.7988,0.7988,0.7988,0.7988,0.7988,0.7982,0.7941,0.7958,0.7975,0.7897,0.7904,0.7867,0.7651,0.7287,0.6953,0.662,0.6675,0.6661,0.6315,0.6454,0.6525,0.6156,0.5837,0.5498,0.5098,0.4745,0.4535,0.4494,0.4491,0.4532,0.4648,0.0,0.0,0.0,0.4244,0.4297,0.4535,0.4655,0.4836,0.5172,0.5477,0.5653,0.5673,0.6018,0.6195,0.6062,0.5315,0.5356,0.6201,0.5356,0.5398,0.6201,0.6201,0.6201,0.6201,0.6201,0.6381,0.665,0.665,0.6827,0.7095,0.7095,0.7284,0.7584,0.7492,0.7654,0.7988,0.5791,0.6276,0.6719,0.6953,0.6892,0.7,0.7573,0.7794,0.8113,0.873,0.894,0.912,0.9357,0.9496,0.9547,0.9486,0.9401,0.9262,0.9045,0.8954,0.8808,0.8591,0.8421,0.8231,0.8018,0.7468,0.6976,0.6552,0.5949,0.5508,0.5223,0.0,0.0,0.0,0.0,0.5728,0.6186,0.7065,0.7621,0.7988,0.7988,0.7988,0.0,0.7988,0.7988,0.7988,0.7988,0.7988,0.7988,0.7988,0.7988,0.7988,0.7988,0.7988,0.7988,0.7988,0.7988,0.7988,0.7988,0.7988,0.7968,0.7884,0.7671,0.7415,0.7187,0.7122,0.7054,0.6814,0.6746,0.6705,0.663,0.6118,0.5515,0.4914,0.4674,0.4566,0.4498,0.4491,0.0,0.0,0.446,0.4338,0.4204,0.4197,0.4227,0.4267,0.4498,0.4692,0.483,0.5318,0.5694,0.5922,0.643,0.6773,0.6883,0.6408,0.647,0.7095,0.6473,0.6473,0.7095,0.7095,0.7095,0.7095,0.7095,0.7095,0.7095,0.7095,0.7095,0.7109,0.7243,0.7448,0.7634,0.788,0.7988,0.7988,0.6412,0.6837,0.7227,0.7407,0.7689,0.7957,0.8079,0.8272,0.8513,0.894,0.914,0.935,0.9422,0.9669,0.9771,0.9649,0.9618,0.9496,0.9286,0.9251,0.9115,0.8781,0.875,0.8601,0.8354,0.798,0.7522,0.6886,0.6286,0.5789,0.0,0.0,0.0,0.0,0.0,0.0,0.0,0.7353,0.7865,0.7988,0.7988,0.7988,0.7988,0.7988,0.7988,0.7988,0.7988,0.7988,0.7988,0.7988,0.7988,0.7988,0.7988,0.7988,0.7988,0.7988,0.7988,0.7988,0.7988,0.7988,0.7988,0.7988,0.7988,0.7887,0.7546,0.7458,0.7421,0.724,0.6919,0.6811,0.7251,0.6413,0.5457,0.4874,0.4762,0.4707,0.4624,0.4556,0.0,0.0,0.4406,0.0,0.425,0.4207,0.414,0.4035,0.4334,0.4508,0.4549,0.5162,0.5613,0.5796,0.6366,0.6746,0.6856,0.7014,0.7095,0.7095,0.7095,0.7095,0.7095,0.7095,0.7095,0.7095,0.7095,0.7095,0.7095,0.7095,0.7109,0.7152,0.7485,0.7611,0.7662,0.7887,0.7988,0.7988,0.692,0.7366,0.7702,0.7729,0.8082,0.8459,0.8683,0.875,0.8937,0.9262,0.9537,0.9713,0.9741,0.9788,0.9812,0.9785,0.9676,0.9588,0.9534,0.9412,0.9262,0.9139,0.8964,0.8757,0.8452,0.8028,0.7522,0.6886,0.6286,0.57,0.5133,0.4969,0.0,0.0,0.0,0.0,0.6841,0.7268,0.7678,0.7988,0.7988,0.7988,0.7988,0.7988,0.7988,0.7988,0.7988,0.7988,0.7988,0.7988,0.7988,0.7988,0.7988,0.7988,0.7988,0.7988,0.7988,0.7988,0.7988,0.7988,0.7988,0.7988,0.7988,0.7968,0.7891,0.7874,0.7867,0.784,0.7624,0.7356,0.7162,0.6468,0.5796,0.5354,0.5135,0.5087,0.5221,0.4914,0.0,0.0,0.0,0.4565,0.4464,0.4291,0.4184,0.4157,0.4365,0.46,0.4826,0.5046,0.5393,0.5789,0.6264,0.6586,0.6739,0.6964,0.7095,0.7095,0.7095,0.7095,0.7095,0.7095,0.7095,0.7095,0.7095,0.7095,0.7095,0.7095,0.7214,0.735,0.7529,0.7672,0.7794,0.7924,0.7988,0.7988,0.7695,0.796,0.8184,0.8265,0.8584,0.8906,0.9133,0.9296,0.9391,0.9384,0.9503,0.9591,0.9591,0.973,0.9822,0.9822,0.9758,0.972,0.972,0.9581,0.9466,0.9395,0.9171,0.8944,0.8723,0.8279,0.7756,0.716,0.6481,0.584,0.5247,0.5023,0.4836,0.4724,0.0,0.6278,0.0,0.7438,0.777,0.7988,0.7988,0.7988,0.7988,0.7988,0.7988,0.7988,0.7988,0.7988,0.7988,0.7988,0.7988,0.7988,0.7988,0.7988,0.7988,0.7988,0.7988,0.7988,0.7988,0.7988,0.7988,0.7988,0.7988,0.7988,0.7988,0.7988,0.7988,0.7988,0.7804,0.7458,0.6997,0.6495,0.6051,0.5755,0.545,0.5304,0.5491,0.5155,0.4945,0.0,0.0,0.0,0.4505,0.4399,0.4294,0.4115,0.4338,0.4556,0.4674,0.4965,0.5272,0.5681,0.6238,0.6546,0.6698,0.695,0.7095,0.7095,0.7095,0.7095,0.7095,0.7095,0.7095,0.7095,0.7095,0.7095,0.7102,0.7227,0.7305,0.7439,0.7621,0.775,0.7831,0.7934,0.7988,0.7988,0.834,0.8506,0.8662,0.8784,0.9076,0.9337,0.9456,0.9727,0.9812,0.9513,0.9476,0.9476,0.9476,0.9683,0.9822,0.9822,0.9822,0.9822,0.9822,0.9717,0.9642,0.9612,0.9378,0.915,0.8888,0.8591,0.8085,0.7421,0.6808,0.6163,0.5532,0.5199,0.503,0.5016,0.5979,0.6664,0.7169,0.76,0.7872,0.7988,0.7988,0.7988,0.7988,0.7988,0.7988,0.7988,0.7988,0.7988,0.7988,0.7988,0.7988,0.7988,0.7988,0.7988,0.7988,0.7988,0.7988,0.7988,0.7988,0.7988,0.7988,0.7988,0.7988,0.7988,0.7988,0.7988,0.7988,0.7988,0.7804,0.7417,0.681,0.6563,0.6356,0.6037,0.5762,0.5617,0.5671,0.5393,0.5148,0.0,0.0,0.0,0.4552,0.4481,0.4321,0.4062,0.4341,0.4518,0.4583,0.4863,0.5192,0.5532,0.6084,0.6451,0.6607,0.6916,0.7095,0.7095,0.7095,0.7095,0.7095,0.7095,0.7095,0.7095,0.7095,0.7115,0.7156,0.7356,0.7438,0.7489,0.7719,0.7831,0.7875,0.7944,0.7988,0.7988,0.8665,0.8896,0.9152,0.9166,0.9469,0.9764,0.9778,1.0039,1.0127,0.9819,0.9781,0.9781,0.9781,0.9805,0.9822,0.9822,0.9822,0.9822,0.9822,0.9808,0.9744,0.9615,0.9581,0.9371,0.8892,0.8844,0.8448,0.758,0.7227,0.6643,0.5925,0.5664,0.5661,0.5888,0.6434,0.6915,0.7363,0.7543,0.7784,0.7988,0.7988,0.7988,0.7988,0.7988,0.7988,0.7988,0.7988,0.7988,0.7988,0.7988,0.7988,0.7988,0.7988,0.7988,0.7988,0.7988,0.7988,0.7988,0.7988,0.7988,0.7988,0.7988,0.7988,0.7988,0.7988,0.7988,0.7988,0.7988,0.7804,0.7417,0.681,0.6895,0.6788,0.6104,0.6112,0.617,0.5969,0.5613,0.5419,0.5511,0.0,0.0,0.4684,0.4399,0.4204,0.4177,0.4372,0.461,0.486,0.4782,0.4931,0.5402,0.583,0.6146,0.634,0.6858,0.7095,0.7095,0.7095,0.7095,0.7095,0.7095,0.7095,0.7095,0.7095,0.7221,0.7363,0.7516,0.7655,0.7773,0.7801,0.7896,0.7971,0.7985,0.7988,0.7988,0.9378,0.9405,0.9483,0.9659,0.9764,0.9883,1.007,1.0202,1.0236,1.0114,1.0097,1.0059,0.9906,0.9896,0.9859,0.9829,0.9822,0.9822,0.9822,0.9822,0.9795,0.9737,0.9656,0.9523,0.9344,0.902,0.8632,0.8001,0.7607,0.7078,0.643,0.6312,0.6369,0.6549,0.7037,0.7387,0.7655,0.7987,0.8197,0.8306,0.8306,0.8306,0.8306,0.8306,0.8306,0.8296,0.8208,0.8177,0.8163,0.8022,0.7988,0.7988,0.7988,0.7988,0.7988,0.7988,0.7988,0.7988,0.7988,0.7988,0.7988,0.7988,0.7988,0.7988,0.7988,0.7988,0.7988,0.7988,0.7804,0.7468,0.7044,0.6915,0.6795,0.6674,0.6451,0.634,0.6417,0.5966,0.5616,0.5593,0.0,0.486,0.4704,0.4395,0.4294,0.4473,0.4375,0.4423,0.4633,0.4762,0.4992,0.5385,0.5924,0.624,0.6426,0.6888,0.7095,0.7095,0.7095,0.7095,0.7095,0.7095,0.7146,0.7278,0.7278,0.7366,0.7519,0.7668,0.776,0.7821,0.7913,0.7934,0.7988,0.7988,0.7988,0.7988,0.988,0.9842,0.9886,1.0137,1.0127,1.0158,1.0378,1.0412,1.0412,1.0412,1.0412,1.0334,1.0137,1.0117,1.0056,0.99,0.9886,0.9869,0.9825,0.9822,0.9822,0.9822,0.9727,0.9652,0.9612,0.93,0.8916,0.8469,0.8102,0.7641,0.7092,0.7048,0.7109,0.7227,0.7634,0.7875,0.8031,0.8347,0.8482,0.8482,0.8482,0.8482,0.8482,0.8482,0.8482,0.8469,0.837,0.8385,0.8309,0.8157,0.8106,0.8099,0.8005,0.7988,0.7988,0.7988,0.7988,0.7988,0.7988,0.7988,0.7988,0.7988,0.7988,0.7988,0.7988,0.7988,0.7965,0.788,0.7743,0.7506,0.7152,0.6927,0.6868,0.6947,0.6661,0.6474,0.6556,0.6129,0.5749,0.5606,0.5192,0.486,0.4704,0.446,0.4416,0.467,0.451,0.4479,0.4679,0.4823,0.5077,0.545,0.6006,0.6368,0.6511,0.6915,0.7095,0.7095,0.7095,0.7095,0.7098,0.7142,0.7268,0.7422,0.7461,0.756,0.7675,0.7818,0.7879,0.7889,0.7948,0.7988,0.7988,0.7988,0.7988,0.7988,0.9957,1.0168,1.0317,1.0463,1.0609,1.0711,1.0714,1.0714,1.0714,1.0714,1.0714,1.0605,1.031,1.0276,1.0215,0.9997,1.0046,0.9985,0.9832,0.9822,0.9822,0.9822,0.9819,0.9751,0.9612,0.9605,0.9381,0.8875,0.8774,0.8465,0.7971,0.7868,0.7879,0.7982,0.8194,0.834,0.8476,0.8479,0.8482,0.8482,0.8482,0.8482,0.8482,0.8482,0.8482,0.8482,0.8479,0.8479,0.8459,0.8316,0.832,0.8241,0.8089,0.7988,0.7988,0.7988,0.7988,0.7988,0.7988,0.7988,0.7988,0.7988,0.7988,0.7988,0.7988,0.7988,0.7907,0.7665,0.76,0.7506,0.7152,0.7092,0.6997,0.6753,0.6702,0.6597,0.6344,0.5996,0.5749,0.5606,0.5192,0.486,0.4704,0.458,0.4552,0.4677,0.4826,0.4941,0.5083,0.4961,0.5125,0.5572,0.6064,0.6368,0.6511,0.6915,0.7095,0.7095,0.7095,0.7095,0.7102,0.7299,0.7415,0.7433,0.7678,0.7807,0.7821,0.7924,0.7985,0.7988,0.7988,0.7988,0.7988,0.7988,0.7988,0.7988,1.0497,1.0544,1.0595,1.0639,1.0687,1.0721,1.0721,1.0721,1.0721,1.0721,1.0721,1.0683,1.0588,1.0487,1.0368,1.0219,1.0209,1.0144,0.9923,0.9916,0.9869,0.9825,0.9822,0.9798,0.9754,0.9659,0.949,0.9239,0.9086,0.8835,0.8492,0.834,0.8296,0.8347,0.8503,0.8598,0.8645,0.875,0.8794,0.8794,0.8794,0.8794,0.8794,0.8794,0.8794,0.8777,0.8676,0.8638,0.8615,0.8465,0.8414,0.8408,0.8357,0.8201,0.7988,0.7988,0.7988,0.7988,0.7988,0.7988,0.7988,0.7988,0.7988,0.7988,0.7988,0.7988,0.7934,0.7784,0.7665,0.7539,0.7336,0.721,0.7065,0.697,0.6831,0.663,0.6474,0.6057,0.5749,0.5606,0.5277,0.5012,0.4965,0.486,0.4796,0.4843,0.4796,0.4826,0.4948,0.5237,0.544,0.5586,0.6156,0.6518,0.6627,0.6923,0.7095,0.7095,0.7095,0.7149,0.7302,0.7458,0.758,0.7675,0.777,0.7872,0.7921,0.7971,0.7988,0.7988,0.7988,0.7988,0.7988,0.7988,0.7988,0.7988,1.0721,1.0721,1.0721,1.0721,1.0721,1.0721,1.0721,1.0721,1.0721,1.0721,1.0721,1.0721,1.0721,1.0633,1.0517,1.0371,1.0361,1.0297,1.0144,1.0137,1.0066,0.9852,0.9845,0.988,0.9822,0.9734,0.9615,0.9466,0.9313,0.9144,0.896,0.8866,0.8788,0.8791,0.8835,0.8845,0.8801,0.8844,0.8885,0.8885,0.8885,0.8885,0.8885,0.8885,0.8885,0.8871,0.8828,0.8798,0.8774,0.8618,0.8567,0.8557,0.8499,0.8353,0.8194,0.8143,0.8035,0.7988,0.7988,0.7988,0.7988,0.7988,0.7988,0.7988,0.7988,0.7988,0.7944,0.7841,0.7699,0.7553,0.7446,0.7244,0.7095,0.7095,0.6892,0.6647,0.6535,0.6084,0.5749,0.5606,0.5369,0.5216,0.5216,0.5189,0.5192,0.5247,0.527,0.5298,0.5302,0.5498,0.5691,0.5915,0.639,0.6715,0.6865,0.7004,0.7095,0.7095,0.72,0.7305,0.7461,0.7611,0.7726,0.7814,0.7872,0.7901,0.7988,0.7988,0.7988,0.7988,0.7988,0.7988,0.7988,0.7988,0.7988,0.7988,1.0721,1.0721,1.0721,1.0721,1.0721,1.0721,1.0721,1.0721,1.0721,1.0721,1.0721,1.0721,1.0721,1.0721,1.0663,1.0521,1.0507,1.0449,1.0304,1.0293,1.0226,1.0011,1.0004,0.993,0.9839,0.9836,0.9768,0.9625,0.9469,0.9398,0.9398,0.9388,0.9306,0.9224,0.9224,0.9093,0.8912,0.8912,0.8912,0.8912,0.8912,0.8908,0.8898,0.8898,0.8892,0.8885,0.8885,0.8885,0.8861,0.8774,0.8726,0.8703,0.856,0.8506,0.8469,0.8368,0.817,0.8005,0.7992,0.7988,0.7988,0.7988,0.7988,0.7988,0.7988,0.7988,0.7948,0.7858,0.7712,0.7567,0.746,0.7261,0.7105,0.7085,0.6888,0.6644,0.6521,0.6088,0.5766,0.5623,0.5521,0.544,0.544,0.5579,0.5688,0.581,0.6119,0.6186,0.6016,0.5793,0.5905,0.6494,0.677,0.6953,0.7095,0.7095,0.7102,0.7112,0.7322,0.7478,0.7617,0.7763,0.7828,0.7834,0.7928,0.7988,0.7988,0.7988,0.7988,0.7988,0.7988,0.7988,0.7988,0.7988,0.7988,0.7988,1.0721,1.0721,1.0721,1.0721,1.0721,1.0721,1.0721,1.0721,1.0721,1.0721,1.0721,1.0721,1.0721,1.0721,1.0707,1.067,1.0666,1.0602,1.0453,1.0443,1.0378,1.0232,1.0226,1.0151,0.9936,0.9933,0.9859,0.9771,0.9625,0.9554,0.9554,0.9435,0.9361,0.9327,0.9327,0.931,0.9276,0.9276,0.9276,0.9276,0.9276,0.9208,0.9103,0.9103,0.9032,0.8885,0.8885,0.8885,0.8878,0.8841,0.8828,0.8824,0.8842,0.875,0.8604,0.8347,0.8245,0.8191,0.8022,0.7988,0.7988,0.7988,0.7988,0.7988,0.7988,0.7988,0.7978,0.7941,0.7865,0.7719,0.757,0.7421,0.7241,0.697,0.682,0.661,0.6385,0.6118,0.5918,0.5769,0.5823,0.5871,0.5871,0.601,0.6067,0.5946,0.6044,0.6122,0.6242,0.6282,0.6368,0.6508,0.677,0.6953,0.7095,0.7095,0.72,0.7319,0.7584,0.7726,0.7767,0.7916,0.7934,0.7938,0.7975,0.7988,0.7988,0.7988,0.7988,0.7988,0.7988,0.7988,0.7988,0.7988,0.7988,0.7988,1.0721,1.0721,1.0721,1.0721,1.0721,1.0721,1.0721,1.0721,1.0721,1.0721,1.0721,1.0721,1.0721,1.0721,1.0721,1.0721,1.0721,1.0683,1.0602,1.0595,1.0531,1.0382,1.0378,1.0307,1.0158,1.0024,0.9913,0.9822,0.9744,0.9707,0.9703,0.9622,0.9547,0.9486,0.9486,0.9445,0.9381,0.9381,0.9381,0.9381,0.9381,0.9334,0.9313,0.9313,0.9167,0.9035,0.9035,0.8994,0.8885,0.8885,0.8885,0.8885,0.8885,0.8828,0.8771,0.854,0.8377,0.8252,0.8167,0.8092,0.7988,0.7988,0.7988,0.7988,0.7988,0.7988,0.7988,0.7988,0.787,0.7767,0.7628,0.7475,0.7275,0.6933,0.68,0.6597,0.634,0.6129,0.6023,0.6013,0.6084,0.619,0.6322,0.6413,0.6427,0.6342,0.6364,0.6447,0.6461,0.6661,0.6749,0.6681,0.6905,0.7051,0.7244,0.7316,0.7424,0.7573,0.7736,0.7848,0.7919,0.7951,0.7988,0.7988,0.7988,0.7988,0.7988,0.7988,0.7988,0.7988,0.7988,0.7988,0.7988,0.7988,0.7988,0.7988,1.0721,1.0721,1.0721,1.0721,1.0721,1.0721,1.0721,1.0721,1.0721,1.0721,1.0721,1.0721,1.0721,1.0721,1.0721,1.0721,1.0721,1.0721,1.0721,1.0721,1.0663,1.0531,1.0527,1.046,1.0317,1.0161,0.9947,0.9856,0.9856,0.9842,0.9822,0.9822,0.9758,0.9642,0.9642,0.9568,0.9449,0.9449,0.9449,0.9449,0.9449,0.9435,0.9415,0.9415,0.932,0.9245,0.9245,0.9093,0.8971,0.8971,0.8902,0.8885,0.8885,0.8885,0.8858,0.8781,0.8554,0.8326,0.8333,0.8157,0.7988,0.7988,0.7988,0.7988,0.7988,0.7988,0.7988,0.7988,0.7887,0.7801,0.7658,0.7509,0.7302,0.6937,0.682,0.6624,0.6344,0.6186,0.6173,0.632,0.6371,0.6501,0.6712,0.6736,0.6746,0.6766,0.6868,0.6839,0.6773,0.7027,0.7075,0.7,0.7068,0.7248,0.745,0.7556,0.7692,0.7811,0.7834,0.7913,0.7988,0.7988,0.7988,0.7988,0.7988,0.7988,0.7988,0.7988,0.7988,0.7988,0.7988,0.7988,0.7988,0.7988,0.7988,0.7988,1.0721,1.0721,1.0721,1.0721,1.0721,1.0721,1.0721,1.0721,1.0721,1.0721,1.0721,1.0721,1.0721,1.0721,1.0721,1.0721,1.0721,1.0721,1.0721,1.0721,1.0711,1.0683,1.0683,1.0616,1.0463,1.0321,1.0168,0.9953,0.9953,0.9886,0.9822,0.9822,0.9808,0.9788,0.9788,0.9774,0.9751,0.9751,0.9751,0.9751,0.9751,0.968,0.9574,0.9574,0.9479,0.9347,0.9347,0.9249,0.9176,0.9176,0.9039,0.8885,0.8885,0.8885,0.8878,0.8854,0.8777,0.8587,0.8336,0.8157,0.7988,0.7988,0.7988,0.7988,0.7988,0.7988,0.7988,0.7988,0.7971,0.7911,0.7804,0.7662,0.7424,0.6953,0.6866,0.6746,0.6361,0.6454,0.6559,0.6494,0.6668,0.6844,0.6846,0.6852,0.69,0.7018,0.694,0.6927,0.7021,0.7241,0.7326,0.7305,0.7322,0.7411,0.7563,0.7706,0.779,0.7814,0.7894,0.7968,0.7988,0.7988,0.7988,0.7988,0.7988,0.7988,0.7988,0.7988,0.7988,0.7988,0.7988,0.7988,0.7988,0.7988,0.7988,0.7988,1.0721,1.0721,1.0721,1.0721,1.0721,1.0721,1.0721,1.0721,1.0721,1.0721,1.0721,1.0721,1.0721,1.0721,1.0721,1.0721,1.0721,1.0721,1.0721,1.0721,1.0721,1.0721,1.0721,1.0649,1.0493,1.0429,1.0324,1.0175,1.0175,1.0093,0.9883,0.9883,0.9839,0.9822,0.9822,0.9822,0.9822,0.9822,0.9822,0.9822,0.9822,0.9781,0.9724,0.9724,0.9632,0.9503,0.9503,0.9405,0.932,0.9238,0.9166,0.9206,0.989,1.008,1.008,1.008,0.9421,0.8645,0.835,0.8218,0.8143,0.8012,0.7988,0.7988,0.7988,0.7988,0.7988,0.7988,0.7988,0.7941,0.7838,0.7695,0.7506,0.7214,0.7034,0.6815,0.6651,0.6668,0.6705,0.6715,0.6844,0.6916,0.6991,0.7119,0.7193,0.7258,0.7282,0.7319,0.7383,0.7455,0.7529,0.7604,0.7607,0.7641,0.7712,0.7862,0.7884,0.7887,0.7958,0.7988,0.7988,0.7988,0.7988,0.7988,0.7988,0.7988,0.7988,0.7988,0.7988,0.7988,0.7988,0.7988,0.7988,0.7988,0.7988,0.7988,1.1894,1.1894,1.1762,1.1372,1.1633,1.1762,1.1372,1.1633,1.1894,1.1894,1.1567,1.1306,1.1306,1.1306,1.1111,1.0721,1.1045,1.1111,1.0721,1.0721,1.0721,1.0721,1.0721,1.0666,1.0548,1.0544,1.0473,1.0331,1.0771,1.0876,1.0655,1.0615,1.0533,1.0411,1.0015,0.9822,0.9822,0.9822,0.9822,0.9822,0.9822,0.9822,0.9822,0.9822,0.9754,0.9659,0.9659,0.9561,0.9415,0.9357,0.9292,0.9461,1.073,1.1169,1.1215,1.1496,1.0466,0.913,0.8546,0.8323,0.8343,0.8464,0.8507,0.8482,0.8482,0.8482,0.8382,0.8088,0.7988,0.7955,0.7885,0.7746,0.76,0.7448,0.7234,0.7014,0.6947,0.6939,0.6939,0.7024,0.7065,0.7085,0.7189,0.7356,0.7424,0.7424,0.7533,0.76,0.76,0.7631,0.7712,0.7862,0.7865,0.7865,0.7865,0.7931,0.7988,0.7988,0.7988,0.7988,0.7988,0.7988,0.7988,0.7988,0.7988,0.7988,0.7988,0.7988,0.7988,0.7988,0.7988,0.7988,0.7988,0.7988,0.7988,0.7988,1.5524,1.5524,1.5009,1.339,1.4423,1.4944,1.339,1.4488,1.5524,1.5524,1.4101,1.3128,1.3128,1.3128,1.2479,1.085,1.2153,1.2413,1.0784,1.0721,1.0721,1.0721,1.0721,1.0714,1.0704,1.0704,1.0629,1.0477,1.2069,1.2804,1.2691,1.251,1.2422,1.2339,1.0605,0.9822,0.9822,0.9822,0.9822,0.9822,0.9822,0.9822,0.9822,0.9822,0.9815,0.9805,0.9805,0.9713,0.9591,0.9581,0.9483,0.9622,1.0856,1.1295,1.1539,1.2782,1.2068,1.0611,0.9094,0.8479,0.8568,0.975,0.9921,0.9854,0.9854,0.9854,0.9509,0.8237,0.7988,0.7985,0.7975,0.7899,0.775,0.7607,0.7563,0.7451,0.7122,0.736,0.7485,0.7398,0.7465,0.7553,0.7563,0.7577,0.7584,0.7584,0.7594,0.76,0.76,0.7726,0.7865,0.7968,0.7971,0.7971,0.7971,0.7985,0.7988,0.7988,0.7988,0.7988,0.7988,0.7988,0.7988,0.7988,0.7988,0.7988,0.7988,0.7988,0.7988,0.7988,0.7988,0.7988,0.7988,0.7988,0.7988,0.7988,1.5913,1.6496,1.649,1.5139,1.6043,1.649,1.5139,1.5459,1.5913,1.5913,1.5334,1.4879,1.4879,1.4879,1.4619,1.397,1.4553,1.4619,1.397,1.3905,1.2931,1.0784,1.0721,1.0721,1.0721,1.0721,1.1212,1.2249,1.2893,1.3693,1.4639,1.4553,1.4452,1.4389,1.3635,1.3224,1.3051,1.3051,1.2919,1.2753,1.2753,1.2753,1.2753,1.2753,1.2753,1.2633,1.1679,1.1278,1.1033,0.9993,1.0211,1.1221,1.2511,1.3476,1.4208,1.452,1.3588,1.233,1.1715,1.0075,0.8808,0.9916,1.0159,1.0332,1.1002,1.117,1.1023,1.0534,0.9801,0.9217,0.9217,0.8447,0.7824,0.7865,0.7719,0.759,0.756,0.758,0.758,0.7519,0.7563,0.76,0.76,0.7678,0.7729,0.7729,0.7818,0.7872,0.7872,0.7874,0.7931,0.7988,0.7988,0.7988,0.7988,0.7988,0.7988,0.7988,0.7988,0.7988,0.7988,0.7988,0.7988,0.7988,0.7988,0.7988,0.7988,0.7988,0.7988,0.7988,0.7988,0.7988,0.7988,0.7988,0.7988,0.7988,1.7532,1.818,1.8308,1.6947,1.7789,1.8238,1.6947,1.7211,1.7532,1.7532,1.7082,1.6695,1.6695,1.6695,1.6501,1.5983,1.6372,1.6496,1.5913,1.5913,1.4619,1.1633,1.1501,1.124,1.0721,1.0721,1.1567,1.3325,1.384,1.4933,1.6573,1.6561,1.6448,1.6361,1.5727,1.5361,1.5156,1.5156,1.4968,1.4705,1.4705,1.4665,1.4604,1.4604,1.4604,1.4485,1.3347,1.2933,1.2791,1.1542,1.1913,1.3044,1.4333,1.563,1.6551,1.5779,1.4888,1.4007,1.3447,1.176,1.0255,1.0875,1.0903,1.1029,1.1835,1.2283,1.2431,1.1994,1.1214,1.0583,1.0583,0.9457,0.8496,0.8609,0.8112,0.7773,0.7868,0.7797,0.774,0.774,0.774,0.774,0.774,0.7824,0.7882,0.7882,0.7931,0.7988,0.7988,0.7988,0.7988,0.7988,0.7988,0.7988,0.7988,0.7988,0.7988,0.7988,0.7988,0.7988,0.7988,0.7988,0.7988,0.7988,0.7988,0.7988,0.7988,0.7988,0.7988,0.7988,0.7988,0.7988,0.7988,0.7988,0.7988,0.7988,2.1109,2.1109,2.0526,1.8832,1.9935,2.0526,1.8768,2.0005,2.1109,2.1109,1.961,1.8506,1.8506,1.8506,1.7795,1.6108,1.7532,1.7795,1.6043,1.5913,1.5139,1.3386,1.332,1.2479,1.0787,1.0721,1.1567,1.3325,1.5074,1.6818,1.85,1.8368,1.8307,1.8232,1.6361,1.5515,1.5515,1.5515,1.532,1.5054,1.5054,1.4861,1.4669,1.4663,1.4663,1.4663,1.4604,1.4604,1.4604,1.4604,1.4604,1.486,1.6137,1.7447,1.8147,1.6442,1.592,1.5528,1.3818,1.3324,1.3268,1.2886,1.25,1.2219,1.2219,1.3128,1.3542,1.2188,1.1896,1.1901,1.1901,1.0877,0.9998,0.9998,0.8924,0.8038,0.8041,0.8041,0.7988,0.7988,0.7988,0.7988,0.8041,0.8041,0.8041,0.8041,0.7988,0.7988,0.7988,0.7988,0.7988,0.7988,0.7988,0.7988,0.7988,0.7988,0.7988,0.7988,0.7988,0.7988,0.7988,0.7988,0.7988,0.7988,0.7988,0.7988,0.7988,0.7988,0.7988,0.7988,0.7988,0.7988,0.7988,0.7988,0.7988,0.7988,2.1109,2.1109,2.0912,2.0392,2.0779,2.0912,2.0392,2.0786,2.1109,2.1109,2.0652,2.0329,2.0329,2.0329,2.0132,1.961,2.0005,2.0132,1.961,1.9546,1.8768,1.7017,1.5784,1.4879,1.4358,1.4362,1.5204,1.6953,1.7468,1.864,2.0322,2.0302,2.0263,2.0263,1.9663,1.9331,1.915,1.915,1.8932,1.8677,1.8677,1.8567,1.8534,1.8348,1.8273,1.8071,1.6737,1.6256,1.6138,1.4955,1.537,1.651,1.7779,1.8455,1.8619,1.7926,1.7582,1.7245,1.6717,1.5731,1.4714,1.4414,1.424,1.4299,1.4955,1.5352,1.539,1.4748,1.3932,1.3295,1.3295,1.2231,1.1312,1.1312,1.1019,1.0435,0.9509,0.941,0.9069,0.8088,0.7988,0.8382,0.9312,0.941,0.941,0.941,0.8531,0.7988,0.7988,0.7988,0.7988,0.7988,0.7988,0.7988,0.7988,0.7988,0.7988,0.7988,0.7988,0.7988,0.7988,0.7988,0.7988,0.7988,0.7988,0.7988,0.7988,0.7988,0.7988,0.7988,0.7988,0.7988,0.7988,0.7988,0.7988,0.8137,2.1109,2.1109,2.1109,2.1109,2.1109,2.1109,2.1109,2.1109,2.1109,2.1109,2.1109,2.1109,2.1109,2.1109,2.1109,2.1109,2.1109,2.1109,2.1109,2.1109,2.0652,1.9546,1.8506,1.7339,1.5913,1.5913,1.6759,1.8506,1.8506,1.9413,2.1109,2.1109,2.1109,2.1109,2.1109,2.1009,2.0848,2.0848,2.0675,2.0408,2.0408,2.0334,2.0153,2.004,1.9967,1.9807,1.8545,1.8084,1.7947,1.6832,1.7155,1.8073,1.8858,1.9098,1.9045,1.8744,1.8531,1.8288,1.8055,1.7244,1.6386,1.6107,1.5535,1.5166,1.567,1.6032,1.6219,1.6039,1.5271,1.4657,1.4657,1.359,1.2668,1.2668,1.2237,1.1604,1.0877,1.073,1.0243,0.897,0.9217,0.9657,0.9948,1.0435,1.073,1.073,0.9998,0.9312,0.8825,0.8775,0.8528,0.8041,0.7988,0.7988,0.7988,0.7988,0.7988,0.7988,0.7988,0.7988,0.7988,0.7988,0.7988,0.7988,0.7988,0.7988,0.7988,0.7988,0.7988,0.7988,0.7988,0.7988,0.7988,0.7988,0.7988,0.8187,2.1109,2.1109,2.1109,2.1109,2.1109,2.1109,2.1109,2.1109,2.1109,2.1109,2.1109,2.1109,2.1109,2.1109,2.1109,2.1109,2.1109,2.1109,2.1109,2.1109,2.1109,2.1109,2.1109,1.961,1.6436,1.6366,1.7146,1.8704,1.8704,1.9546,2.1109,2.1109,2.1109,2.1109,2.1109,2.1109,2.1109,2.1109,2.0955,2.0715,2.0715,2.0555,2.0307,2.0281,2.0213,2.0234,1.9947,1.982,1.976,1.9466,1.9424,1.9424,1.9424,1.9424,1.9319,1.9038,1.8945,1.8804,1.8215,1.8035,1.7922,1.7695,1.6434,1.5221,1.5197,1.5809,1.6388,1.6319,1.6079,1.5824,1.5824,1.4867,1.407,1.407,1.306,1.2188,1.2091,1.2091,1.1604,1.0337,1.117,1.1512,1.0435,1.1409,1.2091,1.2091,1.1945,1.1409,1.0243,1.0145,0.9608,0.8382,0.8333,0.8283,0.8187,0.8283,0.8233,0.7988,0.7988,0.7988,0.7988,0.7988,0.7988,0.7988,0.7988,0.7988,0.7988,0.7988,0.7988,0.7988,0.7988,0.7988,0.7988,0.7988,0.7988,0.8187,2.1109,2.1109,2.1109,2.1109,2.1109,2.1109,2.1109,2.1109,2.1109,2.1109,2.1109,2.1109,2.1109,2.1109,2.1109,2.1109,2.1109,2.1109,2.1109,2.1109,2.1109,2.1109,2.1109,2.0722,2.0005,1.9998,2.0132,2.0526,2.0526,2.0716,2.1109,2.1109,2.1109,2.1109,2.1109,2.1109,2.1109,2.1109,2.1076,2.1015,2.1015,2.0975,2.0895,2.0668,2.0581,2.0541,2.0247,1.9993,1.976,1.9466,1.9424,1.9424,1.9424,1.9424,1.9417,1.9292,1.9105,1.8891,1.8764,1.8342,1.7975,1.7909,1.7496,1.6997,1.6775,1.6888,1.6945,1.666,1.638,1.6179,1.6179,1.5739,1.5391,1.5391,1.5146,1.4609,1.359,1.3488,1.2958,1.1653,1.175,1.2183,1.3006,1.3295,1.3488,1.3488,1.2474,1.1799,1.1507,1.1512,1.1361,1.1068,1.1068,1.0583,0.9558,1.0583,1.0047,0.7988,0.7988,0.7988,0.7988,0.7988,0.7988,0.7988,0.7988,0.7988,0.7988,0.7988,0.7988,0.7988,0.7988,0.7988,0.7988,0.7988,0.7988,0.8187,2.1109,2.1109,2.1109,2.1109,2.1109,2.1109,2.1109,2.1109,2.1109,2.1109,2.1109,2.1109,2.1109,2.1109,2.1109,2.1109,2.1109,2.1109,2.1109,2.1109,2.1109,2.1109,2.1109,2.1109,2.1109,2.1109,2.1109,2.1109,2.1109,2.1109,2.1109,2.1109,2.1109,2.1109,2.1109,2.1109,2.1109,2.1109,2.1109,2.1109,2.1109,2.1109,2.1089,2.0942,2.0882,2.0848,2.0548,2.0167,1.978,1.9626,1.9486,1.9424,1.9424,1.9424,1.9424,1.9424,1.9259,1.9105,1.8958,1.8641,1.8342,1.8062,1.7869,1.7722,1.7474,1.73,1.7159,1.6947,1.668,1.644,1.6299,1.6146,1.5999,1.5852,1.5784,1.5581,1.4902,1.48,1.4316,1.3006,1.3397,1.4028,1.4752,1.48,1.48,1.48,1.4178,1.3499,1.2915,1.2861,1.2571,1.1896,1.1896,1.1556,1.0925,1.156,1.1214,0.985,0.9266,0.897,0.8924,0.8283,0.8333,0.892,0.8283,0.7988,0.7988,0.7988,0.7988,0.7988,0.7988,0.7988,0.7988,0.7988,0.8775,0.9948,2.1109,2.1109,2.1109,2.1109,2.1109,2.1109,2.1109,2.1109,2.1109,2.1109,2.1109,2.1109,2.1109,2.1109,2.1109,2.1109,2.1109,2.1109,2.1109,2.1109,2.1109,2.1109,2.1109,2.1109,2.1109,2.1109,2.1109,2.1109,2.1109,2.1109,2.1109,2.1109,2.1109,2.1109,2.1109,2.1109,2.1109,2.1109,2.1109,2.1109,2.1109,2.1109,2.1109,2.1109,2.1109,2.1076,2.0835,2.0408,1.994,1.9893,1.9679,1.9446,1.9446,1.9464,1.9424,1.9424,1.9424,1.9312,1.9065,1.8958,1.8804,1.8262,1.8069,1.7922,1.7722,1.7435,1.728,1.728,1.6987,1.6707,1.6466,1.6388,1.6192,1.5945,1.5865,1.5784,1.5784,1.5784,1.5391,1.4364,1.5146,1.5784,1.5784,1.5784,1.5784,1.5784,1.5784,1.5337,1.4268,1.4214,1.3734,1.2576,1.2576,1.2479,1.2237,1.2479,1.2334,1.1896,1.1068,1.0534,1.0288,0.9164,0.9262,1.0243,0.9167,0.8676,0.8676,0.8676,0.8676,0.8676,0.8676,0.8676,0.8676,0.8676,1.019,1.2237,2.1109,2.1109,2.1109,2.1109,2.1109,2.1109,2.1109,2.1109,2.1109,2.1109,2.1109,2.1109,2.1109,2.1109,2.1109,2.1109,2.1109,2.1109,2.1109,2.1109,2.1109,2.1109,2.1109,2.1109,2.1109,2.1109,2.1109,2.1109,2.1109,2.1109,2.1109,2.1109,2.1109,2.1109,2.1109,2.1109,2.1109,2.1109,2.1109,2.1109,2.1109,2.1109,2.1109,2.1109,2.1109,2.1109,2.1069,2.0835,2.0521,2.0261,1.998,1.974,1.974,1.9573,1.9424,1.9424,1.9424,1.9417,1.9319,1.9118,1.8905,1.8824,1.8368,1.7982,1.7935,1.7749,1.7522,1.7522,1.7347,1.7125,1.7092,1.6663,1.6308,1.6219,1.5999,1.5784,1.5784,1.5784,1.573,1.5581,1.5683,1.5784,1.5784,1.5784,1.5784,1.5784,1.5784,1.573,1.554,1.5534,1.5439,1.5296,1.5296,1.4758,1.3632,1.4704,1.413,1.1901,1.2909,1.2764,1.1653,1.1458,1.1458,1.1604,1.1463,1.1365,1.1365,1.1365,1.1365,1.1365,1.1365,1.1365,1.1365,1.1365,1.2328,1.3632,2.1109,2.1109,2.1109,2.1109,2.1109,2.1109,2.1109,2.1109,2.1109,2.1109,2.1109,2.1109,2.1109,2.1109,2.1109,2.1109,2.1109,2.1109,2.1109,2.1109,2.1109,2.1109,2.1109,2.1109,2.1109,2.1109,2.1109,2.1109,2.1109,2.1109,2.1109,2.1109,2.1109,2.1109,2.1109,2.1109,2.1109,2.1109,2.1109,2.1109,2.1109,2.1109,2.1109,2.1109,2.1109,2.1109,2.1109,2.0922,2.0661,2.0528,2.0287,2.0013,1.9853,1.9713,1.9579,1.9412,1.9424,1.9424,1.9424,1.9272,1.9132,1.8965,1.8675,1.8395,1.8069,1.7889,1.7796,1.7615,1.7534,1.7393,1.7233,1.6991,1.6757,1.654,1.6273,1.6079,1.6079,1.5932,1.5784,1.5784,1.5784,1.5784,1.5784,1.5784,1.5784,1.5784,1.5784,1.5784,1.5784,1.5784,1.5784,1.5784,1.5784,1.5534,1.4949,1.5534,1.5194,1.4082,1.4663,1.4268,1.3006,1.2237,1.2334,1.2963,1.2237,1.1896,1.1896,1.1896,1.1896,1.1896,1.1896,1.1896,1.1896,1.1896,1.277,1.3926]}]]